Time,TemperatureF,DewpointF,PressureIn,WindDirection,WindDirectionDegrees,WindSpeedMPH,WindSpeedGustMPH,Humidity,HourlyPrecipIn,Conditions,Clouds,dailyrainin,SoftwareType,DateUTC
2013-06-23 00:00:00,80.1,58.0,30.21,East,101,4.9,4.9,47,0.00,,---,0.00,VWS V15.00,2013-06-23 04:00:00,
2013-06-23 00:01:00,80.4,54.6,30.21,ENE,76,2.7,3.1,41,0.00,,---,0.00,VWS V14.01,2013-06-23 04:01:00,
2013-06-23 00:02:00,79.9,57.9,30.21,ESE,115,0.0,4.9,47,0.00,,---,0.00,VWS V15.00,2013-06-23 04:02:00,
2013-06-23 00:03:00,79.9,57.9,30.21,ENE,76,2.7,2.7,47,0.00,,---,0.00,VWS V15.00,2013-06-23 04:03:00,
2013-06-23 00:04:00,79.9,57.9,30.21,ENE,73,5.4,5.4,47,0.00,,---,0.00,VWS V15.00,2013-06-23 04:04:00,
2013-06-23 00:05:00,79.9,57.9,30.21,East,95,2.2,5.4,47,0.00,,---,0.00,VWS V15.00,2013-06-23 04:05:00,
2013-06-23 00:06:00,79.9,57.9,30.21,ENE,69,0.0,2.2,47,0.00,,---,0.00,VWS V15.00,2013-06-23 04:06:00,
2013-06-23 00:07:00,80.8,54.9,30.21,East,85,8.7,8.7,41,0.00,,---,0.00,VWS V14.01,2013-06-23 04:07:00,
2013-06-23 00:08:00,79.9,57.9,30.21,ENE,72,4.0,4.0,47,0.00,,---,0.00,VWS V15.00,2013-06-23 04:08:00,
2013-06-23 00:09:00,79.9,57.3,30.21,ENE,73,2.7,4.0,46,0.00,,---,0.00,VWS V15.00,2013-06-23 04:09:00,
2013-06-23 00:10:00,79.9,57.3,30.21,SE,136,2.7,2.7,46,0.00,,---,0.00,VWS V15.00,2013-06-23 04:10:00,
2013-06-23 00:11:00,79.9,57.3,30.21,ENE,74,2.7,4.0,46,0.00,,---,0.00,VWS V15.00,2013-06-23 04:11:00,
2013-06-23 00:12:00,80.6,54.1,30.21,East,95,5.8,5.8,40,0.00,,---,0.00,VWS V14.01,2013-06-23 04:12:00,
2013-06-23 00:13:00,79.9,57.3,30.21,SSE,154,5.4,5.4,46,0.00,,---,0.00,VWS V15.00,2013-06-23 04:13:00,
2013-06-23 00:14:00,79.9,57.3,30.21,SSE,154,5.4,5.4,46,0.00,,---,0.00,VWS V15.00,2013-06-23 04:14:00,
2013-06-23 00:15:00,79.9,56.7,30.21,SSW,199,3.6,5.4,45,0.00,,---,0.00,VWS V15.00,2013-06-23 04:15:00,
2013-06-23 00:16:00,79.9,56.7,30.21,East,80,3.1,3.6,45,0.00,,---,0.00,VWS V15.00,2013-06-23 04:16:00,
2013-06-23 00:17:00,80.6,54.1,30.24,SSE,160,3.6,4.0,40,0.00,,---,0.00,VWS V14.01,2013-06-23 04:17:00,
2013-06-23 00:18:00,80.1,56.2,30.21,ESE,117,2.7,3.1,44,0.00,,---,0.00,VWS V15.00,2013-06-23 04:18:00,
2013-06-23 00:19:00,80.1,56.2,30.21,ESE,108,0.0,2.7,44,0.00,,---,0.00,VWS V15.00,2013-06-23 04:19:00,
2013-06-23 00:20:00,80.1,56.2,30.21,ESE,109,3.1,3.6,44,0.00,,---,0.00,VWS V15.00,2013-06-23 04:20:00,
2013-06-23 00:21:00,80.1,56.2,30.21,SE,130,2.7,3.1,44,0.00,,---,0.00,VWS V15.00,2013-06-23 04:21:00,
2013-06-23 00:22:00,80.4,54.6,30.24,SE,137,0.0,5.4,41,0.00,,---,0.00,VWS V14.01,2013-06-23 04:22:00,
2013-06-23 00:23:00,80.1,56.2,30.21,SE,126,3.1,3.1,44,0.00,,---,0.00,VWS V15.00,2013-06-23 04:23:00,
2013-06-23 00:24:00,80.1,56.8,30.21,ENE,76,2.7,3.1,45,0.00,,---,0.00,VWS V15.00,2013-06-23 04:24:00,
2013-06-23 00:25:00,80.1,56.8,30.21,SSE,147,5.8,5.8,45,0.00,,---,0.00,VWS V15.00,2013-06-23 04:25:00,
2013-06-23 00:26:00,80.1,56.8,30.21,SSE,147,5.8,5.8,45,0.00,,---,0.00,VWS V15.00,2013-06-23 04:26:00,
2013-06-23 00:27:00,79.7,55.2,30.24,ESE,109,2.7,2.7,43,0.00,,---,0.00,VWS V14.01,2013-06-23 04:27:00,
2013-06-23 00:28:00,80.2,55.1,30.21,SSE,162,0.0,4.0,42,0.00,,---,0.00,VWS V15.00,2013-06-23 04:28:00,
2013-06-23 00:29:00,80.2,55.1,30.21,SSE,162,0.0,0.0,42,0.00,,---,0.00,VWS V15.00,2013-06-23 04:29:00,
2013-06-23 00:30:00,80.2,55.1,30.21,SE,130,0.0,0.0,42,0.00,,---,0.00,VWS V15.00,2013-06-23 04:30:00,
2013-06-23 00:31:00,80.2,55.1,30.21,East,95,0.0,0.0,42,0.00,,---,0.00,VWS V15.00,2013-06-23 04:31:00,
2013-06-23 00:32:00,79.3,55.6,30.24,SSE,149,0.0,2.2,44,0.00,,---,0.00,VWS V14.01,2013-06-23 04:32:00,
2013-06-23 00:33:00,80.2,55.1,30.21,SE,133,4.0,4.0,42,0.00,,---,0.00,VWS V15.00,2013-06-23 04:33:00,
2013-06-23 00:34:00,80.2,55.1,30.21,ESE,116,4.0,4.0,42,0.00,,---,0.00,VWS V15.00,2013-06-23 04:34:00,
2013-06-23 00:35:00,80.2,54.4,30.21,SE,136,4.0,4.0,41,0.00,,---,0.00,VWS V15.00,2013-06-23 04:35:00,
2013-06-23 00:36:00,80.2,54.4,30.21,SE,136,4.0,4.0,41,0.00,,---,0.00,VWS V15.00,2013-06-23 04:36:00,
2013-06-23 00:37:00,79.3,55.6,30.21,SSE,165,0.0,0.0,44,0.00,,---,0.00,VWS V14.01,2013-06-23 04:37:00,
2013-06-23 00:38:00,80.2,54.4,30.21,SE,137,0.0,0.0,41,0.00,,---,0.00,VWS V15.00,2013-06-23 04:38:00,
2013-06-23 00:39:00,80.1,54.3,30.21,ESE,106,0.0,0.0,41,0.00,,---,0.00,VWS V15.00,2013-06-23 04:39:00,
2013-06-23 00:40:00,80.1,54.3,30.21,East,101,4.9,4.9,41,0.00,,---,0.00,VWS V15.00,2013-06-23 04:40:00,
2013-06-23 00:41:00,80.1,54.3,30.21,ESE,112,4.0,4.9,41,0.00,,---,0.00,VWS V15.00,2013-06-23 04:41:00,
2013-06-23 00:42:00,78.6,53.6,30.21,East,90,2.2,2.7,42,0.00,,---,0.00,VWS V14.01,2013-06-23 04:42:00,
2013-06-23 00:43:00,80.1,54.3,30.21,East,93,4.0,4.0,41,0.00,,---,0.00,VWS V15.00,2013-06-23 04:43:00,
2013-06-23 00:44:00,80.1,54.3,30.21,SSE,148,2.7,4.0,41,0.00,,---,0.00,VWS V15.00,2013-06-23 04:44:00,
2013-06-23 00:45:00,80.1,54.3,30.21,SSE,148,2.7,2.7,41,0.00,,---,0.00,VWS V15.00,2013-06-23 04:45:00,
2013-06-23 00:46:00,80.1,54.3,30.21,ESE,114,4.0,4.0,41,0.00,,---,0.00,VWS V15.00,2013-06-23 04:46:00,
2013-06-23 00:47:00,78.1,53.8,30.21,East,90,0.0,0.0,43,0.00,,---,0.00,VWS V14.01,2013-06-23 04:47:00,
2013-06-23 00:48:00,80.1,54.3,30.21,South,179,4.0,4.0,41,0.00,,---,0.00,VWS V15.00,2013-06-23 04:48:00,
2013-06-23 00:49:00,80.1,54.3,30.21,SE,146,3.1,4.0,41,0.00,,---,0.00,VWS V15.00,2013-06-23 04:49:00,
2013-06-23 00:50:00,80.1,54.3,30.21,ESE,113,3.1,3.1,41,0.00,,---,0.00,VWS V15.00,2013-06-23 04:50:00,
2013-06-23 00:51:00,80.1,54.3,30.21,SE,136,3.6,3.6,41,0.00,,---,0.00,VWS V15.00,2013-06-23 04:51:00,
2013-06-23 00:52:00,77.4,53.8,30.21,East,90,0.0,0.0,44,0.00,,---,0.00,VWS V14.01,2013-06-23 04:52:00,
2013-06-23 00:53:00,80.1,54.3,30.21,SE,131,0.0,3.6,41,0.00,,---,0.00,VWS V15.00,2013-06-23 04:53:00,
2013-06-23 00:54:00,80.1,54.3,30.21,ESE,111,2.7,2.7,41,0.00,,---,0.00,VWS V15.00,2013-06-23 04:54:00,
2013-06-23 00:55:00,80.2,54.4,30.21,ESE,104,3.1,3.1,41,0.00,,---,0.00,VWS V15.00,2013-06-23 04:55:00,
2013-06-23 00:56:00,80.2,54.4,30.21,ESE,113,2.7,3.1,41,0.00,,---,0.00,VWS V15.00,2013-06-23 04:56:00,
2013-06-23 00:57:00,76.8,53.9,30.21,East,90,0.0,0.0,45,0.00,,---,0.00,VWS V14.01,2013-06-23 04:57:00,
2013-06-23 00:58:00,80.4,54.6,30.21,ESE,120,2.7,4.0,41,0.00,,---,0.00,VWS V15.00,2013-06-23 04:58:00,
2013-06-23 00:59:00,80.4,54.6,30.21,ESE,104,3.1,3.1,41,0.00,,---,0.00,VWS V15.00,2013-06-23 04:59:00,
2013-06-23 01:00:00,80.4,54.6,30.21,East,95,3.1,3.1,41,0.00,,---,0.00,VWS V15.00,2013-06-23 05:00:00,
2013-06-23 01:01:00,80.8,54.9,30.21,East,95,2.7,3.1,41,0.00,,---,0.00,VWS V15.00,2013-06-23 05:01:00,
2013-06-23 01:02:00,80.8,54.9,30.21,East,89,2.7,2.7,41,0.00,,---,0.00,VWS V15.00,2013-06-23 05:02:00,
2013-06-23 01:03:00,77.0,57.5,30.21,East,90,0.0,0.0,51,0.00,,---,0.00,VWS V14.01,2013-06-23 05:03:00,
2013-06-23 01:04:00,80.8,54.9,30.21,South,172,4.0,4.0,41,0.00,,---,0.00,VWS V15.00,2013-06-23 05:04:00,
2013-06-23 01:05:00,80.8,54.9,30.21,ESE,121,3.6,4.0,41,0.00,,---,0.00,VWS V15.00,2013-06-23 05:05:00,
2013-06-23 01:06:00,80.8,54.9,30.21,East,85,8.7,8.7,41,0.00,,---,0.00,VWS V15.00,2013-06-23 05:06:00,
2013-06-23 01:07:00,80.8,54.9,30.21,East,88,3.6,8.7,41,0.00,,---,0.00,VWS V15.00,2013-06-23 05:07:00,
2013-06-23 01:08:00,77.2,57.7,30.21,ESE,123,2.2,3.1,51,0.00,,---,0.00,VWS V14.01,2013-06-23 05:08:00,
2013-06-23 01:09:00,80.8,54.2,30.21,ESE,106,5.4,5.8,40,0.00,,---,0.00,VWS V15.00,2013-06-23 05:09:00,
2013-06-23 01:10:00,80.8,54.2,30.21,ESE,106,5.4,5.4,40,0.00,,---,0.00,VWS V15.00,2013-06-23 05:10:00,
2013-06-23 01:11:00,80.8,54.2,30.21,SE,128,3.6,5.4,40,0.00,,---,0.00,VWS V15.00,2013-06-23 05:11:00,
2013-06-23 01:12:00,80.6,54.1,30.21,East,95,5.8,5.8,40,0.00,,---,0.00,VWS V15.00,2013-06-23 05:12:00,
2013-06-23 01:13:00,77.9,57.8,30.21,SE,124,3.1,3.1,50,0.00,,---,0.00,VWS V14.01,2013-06-23 05:13:00,
2013-06-23 01:14:00,80.6,54.1,30.21,ESE,102,4.0,4.0,40,0.00,,---,0.00,VWS V15.00,2013-06-23 05:14:00,
2013-06-23 01:15:00,80.6,54.1,30.21,SSE,147,4.0,6.3,40,0.00,,---,0.00,VWS V15.00,2013-06-23 05:15:00,
2013-06-23 01:16:00,80.6,54.1,30.21,East,98,4.0,4.0,40,0.00,,---,0.00,VWS V15.00,2013-06-23 05:16:00,
2013-06-23 01:17:00,80.6,54.1,30.24,SSE,160,3.6,4.0,40,0.00,,---,0.00,VWS V15.00,2013-06-23 05:17:00,
2013-06-23 01:18:00,78.3,57.5,30.21,ESE,115,3.1,3.1,49,0.00,,---,0.00,VWS V14.01,2013-06-23 05:18:00,
2013-06-23 01:19:00,80.4,54.6,30.24,East,98,5.4,5.4,41,0.00,,---,0.00,VWS V15.00,2013-06-23 05:19:00,
2013-06-23 01:20:00,80.4,54.6,30.24,East,98,5.4,5.4,41,0.00,,---,0.00,VWS V15.00,2013-06-23 05:20:00,
2013-06-23 01:21:00,80.4,54.6,30.24,East,98,5.4,5.4,41,0.00,,---,0.00,VWS V15.00,2013-06-23 05:21:00,
2013-06-23 01:22:00,80.2,54.4,30.24,SE,137,0.0,5.4,41,0.00,,---,0.00,VWS V15.00,2013-06-23 05:22:00,
2013-06-23 01:23:00,78.4,58.3,30.21,SE,140,3.6,3.6,50,0.00,,---,0.00,VWS V14.01,2013-06-23 05:23:00,
2013-06-23 01:24:00,80.2,54.4,30.24,ESE,109,3.1,3.6,41,0.00,,---,0.00,VWS V15.00,2013-06-23 05:24:00,
2013-06-23 01:25:00,80.2,54.4,30.24,ESE,108,2.7,3.1,41,0.00,,---,0.00,VWS V15.00,2013-06-23 05:25:00,
2013-06-23 01:26:00,80.2,54.4,30.24,ESE,108,2.2,2.7,41,0.00,,---,0.00,VWS V15.00,2013-06-23 05:26:00,
2013-06-23 01:27:00,79.7,55.2,30.24,ESE,109,2.7,2.7,43,0.00,,---,0.00,VWS V15.00,2013-06-23 05:27:00,
2013-06-23 01:28:00,78.6,59.0,30.21,East,101,3.6,3.6,51,0.00,,---,0.00,VWS V14.01,2013-06-23 05:28:00,
2013-06-23 01:29:00,79.5,55.7,30.24,SE,141,0.0,0.0,44,0.00,,---,0.00,VWS V15.00,2013-06-23 05:29:00,
2013-06-23 01:30:00,79.5,55.7,30.24,ESE,117,2.2,2.2,44,0.00,,---,0.00,VWS V15.00,2013-06-23 05:30:00,
2013-06-23 01:31:00,79.5,55.7,30.24,ESE,117,2.2,2.2,44,0.00,,---,0.00,VWS V15.00,2013-06-23 05:31:00,
2013-06-23 01:32:00,79.3,55.6,30.24,SSE,149,0.0,2.2,44,0.00,,---,0.00,VWS V15.00,2013-06-23 05:32:00,
2013-06-23 01:33:00,79.0,58.8,30.21,SE,133,2.7,2.7,50,0.00,,---,0.00,VWS V14.01,2013-06-23 05:33:00,
2013-06-23 01:34:00,79.3,55.6,30.24,SSE,151,0.0,0.0,44,0.00,,---,0.00,VWS V15.00,2013-06-23 05:34:00,
2013-06-23 01:35:00,79.3,55.6,30.24,SSE,151,0.0,0.0,44,0.00,,---,0.00,VWS V15.00,2013-06-23 05:35:00,
2013-06-23 01:36:00,79.3,55.6,30.21,SSE,151,0.0,0.0,44,0.00,,---,0.00,VWS V15.00,2013-06-23 05:36:00,
2013-06-23 01:37:00,79.3,55.6,30.21,SSE,165,0.0,0.0,44,0.00,,---,0.00,VWS V15.00,2013-06-23 05:37:00,
2013-06-23 01:38:00,78.8,59.2,30.21,ESE,112,2.7,2.7,51,0.00,,---,0.00,VWS V14.01,2013-06-23 05:38:00,
2013-06-23 01:39:00,78.8,53.8,30.21,WSW,248,0.0,0.0,42,0.00,,---,0.00,VWS V15.00,2013-06-23 05:39:00,
2013-06-23 01:40:00,78.6,53.6,30.21,WSW,249,0.0,0.0,42,0.00,,---,0.00,VWS V15.00,2013-06-23 05:40:00,
2013-06-23 01:41:00,78.6,53.6,30.21,North,0,0.0,0.0,42,0.00,,---,0.00,VWS V15.00,2013-06-23 05:41:00,
2013-06-23 01:42:00,78.6,53.6,30.21,East,90,2.7,2.7,42,0.00,,---,0.00,VWS V15.00,2013-06-23 05:42:00,
2013-06-23 01:43:00,78.8,59.7,30.21,SE,128,5.4,5.4,52,0.00,,---,0.00,VWS V14.01,2013-06-23 05:43:00,
2013-06-23 01:44:00,78.6,53.6,30.21,East,90,0.0,2.2,42,0.00,,---,0.00,VWS V15.00,2013-06-23 05:44:00,
2013-06-23 01:45:00,78.1,53.8,30.21,East,90,0.0,0.0,43,0.00,,---,0.00,VWS V15.00,2013-06-23 05:45:00,
2013-06-23 01:46:00,78.1,53.8,30.21,East,90,0.0,0.0,43,0.00,,---,0.00,VWS V15.00,2013-06-23 05:46:00,
2013-06-23 01:47:00,78.1,53.8,30.21,East,90,0.0,0.0,43,0.00,,---,0.00,VWS V15.00,2013-06-23 05:47:00,
2013-06-23 01:48:00,79.0,58.8,30.21,ESE,115,3.1,3.1,50,0.00,,---,0.00,VWS V14.01,2013-06-23 05:48:00,
2013-06-23 01:49:00,78.1,53.8,30.21,East,90,0.0,0.0,43,0.00,,---,0.00,VWS V15.00,2013-06-23 05:49:00,
2013-06-23 01:50:00,77.4,53.8,30.21,East,90,0.0,0.0,44,0.00,,---,0.00,VWS V15.00,2013-06-23 05:50:00,
2013-06-23 01:51:00,77.4,53.8,30.21,East,90,0.0,0.0,44,0.00,,---,0.00,VWS V15.00,2013-06-23 05:51:00,
2013-06-23 01:52:00,77.4,53.8,30.21,East,90,0.0,0.0,44,0.00,,---,0.00,VWS V15.00,2013-06-23 05:52:00,
2013-06-23 01:53:00,79.2,56.6,30.18,SE,128,4.9,4.9,46,0.00,,---,0.00,VWS V14.01,2013-06-23 05:53:00,
2013-06-23 01:54:00,77.0,53.4,30.21,East,90,0.0,0.0,44,0.00,,---,0.00,VWS V15.00,2013-06-23 05:54:00,
2013-06-23 01:55:00,77.0,53.4,30.21,East,90,0.0,0.0,44,0.00,,---,0.00,VWS V15.00,2013-06-23 05:55:00,
2013-06-23 01:56:00,77.0,53.4,30.21,East,90,0.0,0.0,44,0.00,,---,0.00,VWS V15.00,2013-06-23 05:56:00,
2013-06-23 01:57:00,76.8,53.9,30.21,East,90,0.0,0.0,45,0.00,,---,0.00,VWS V15.00,2013-06-23 05:57:00,
2013-06-23 01:58:00,79.0,55.8,30.18,ESE,114,5.4,5.4,45,0.00,,---,0.00,VWS V14.01,2013-06-23 05:58:00,
2013-06-23 01:59:00,76.8,55.1,30.21,East,90,0.0,0.0,47,0.00,,---,0.00,VWS V15.00,2013-06-23 05:59:00,
2013-06-23 02:00:00,76.8,55.1,30.21,East,90,0.0,0.0,47,0.00,,---,0.00,VWS V15.00,2013-06-23 06:00:00,
2013-06-23 02:01:00,79.0,55.8,30.18,SE,127,3.1,3.1,45,0.00,,---,0.00,VWS V14.01,2013-06-23 06:01:00,
2013-06-23 02:02:00,77.0,57.5,30.21,East,90,0.0,0.0,51,0.00,,---,0.00,VWS V15.00,2013-06-23 06:02:00,
2013-06-23 02:03:00,77.0,57.5,30.21,East,90,0.0,0.0,51,0.00,,---,0.00,VWS V15.00,2013-06-23 06:03:00,
2013-06-23 02:04:00,77.0,57.5,30.21,ESE,121,0.0,0.0,51,0.00,,---,0.00,VWS V15.00,2013-06-23 06:04:00,
2013-06-23 02:05:00,77.2,57.7,30.21,ESE,122,0.0,0.0,51,0.00,,---,0.00,VWS V15.00,2013-06-23 06:05:00,
2013-06-23 02:06:00,78.8,54.4,30.18,ESE,118,3.1,3.1,43,0.00,,---,0.00,VWS V14.01,2013-06-23 06:06:00,
2013-06-23 02:07:00,77.2,57.7,30.21,ESE,108,3.1,3.1,51,0.00,,---,0.00,VWS V15.00,2013-06-23 06:07:00,
2013-06-23 02:08:00,77.2,57.7,30.21,ESE,123,0.0,3.1,51,0.00,,---,0.00,VWS V15.00,2013-06-23 06:08:00,
2013-06-23 02:09:00,77.5,57.5,30.21,ESE,120,3.6,3.6,50,0.00,,---,0.00,VWS V15.00,2013-06-23 06:09:00,
2013-06-23 02:10:00,77.7,57.6,30.21,East,96,4.0,4.0,50,0.00,,---,0.00,VWS V15.00,2013-06-23 06:10:00,
2013-06-23 02:11:00,78.6,54.9,30.18,ESE,119,3.6,3.6,44,0.00,,---,0.00,VWS V14.01,2013-06-23 06:11:00,
2013-06-23 02:12:00,77.9,57.8,30.21,SE,131,2.7,4.0,50,0.00,,---,0.00,VWS V15.00,2013-06-23 06:12:00,
2013-06-23 02:13:00,77.9,57.8,30.21,SE,124,3.1,3.1,50,0.00,,---,0.00,VWS V15.00,2013-06-23 06:13:00,
2013-06-23 02:14:00,77.9,57.8,30.21,ESE,110,3.1,3.1,50,0.00,,---,0.00,VWS V15.00,2013-06-23 06:14:00,
2013-06-23 02:15:00,77.9,57.8,30.21,SE,129,2.7,3.1,50,0.00,,---,0.00,VWS V15.00,2013-06-23 06:15:00,
2013-06-23 02:16:00,78.6,54.9,30.18,SE,143,3.1,3.1,44,0.00,,---,0.00,VWS V14.01,2013-06-23 06:16:00,
2013-06-23 02:17:00,78.3,57.5,30.21,ESE,115,3.1,3.1,49,0.00,,---,0.00,VWS V15.00,2013-06-23 06:17:00,
2013-06-23 02:18:00,78.3,57.5,30.21,ESE,115,3.1,3.1,49,0.00,,---,0.00,VWS V15.00,2013-06-23 06:18:00,
2013-06-23 02:19:00,78.3,57.5,30.21,ESE,120,4.0,4.0,49,0.00,,---,0.00,VWS V15.00,2013-06-23 06:19:00,
2013-06-23 02:20:00,78.4,58.3,30.21,SE,127,2.7,4.0,50,0.00,,---,0.00,VWS V15.00,2013-06-23 06:20:00,
2013-06-23 02:21:00,78.3,54.6,30.18,SE,141,3.6,3.6,44,0.00,,---,0.00,VWS V14.01,2013-06-23 06:21:00,
2013-06-23 02:22:00,78.4,58.3,30.21,SE,140,3.6,3.6,50,0.00,,---,0.00,VWS V15.00,2013-06-23 06:22:00,
2013-06-23 02:23:00,78.4,58.3,30.21,SE,140,3.6,3.6,50,0.00,,---,0.00,VWS V15.00,2013-06-23 06:23:00,
2013-06-23 02:24:00,78.4,58.3,30.21,SE,140,3.6,3.6,50,0.00,,---,0.00,VWS V15.00,2013-06-23 06:24:00,
2013-06-23 02:25:00,78.4,58.3,30.21,SE,140,3.6,3.6,50,0.00,,---,0.00,VWS V15.00,2013-06-23 06:25:00,
2013-06-23 02:26:00,78.4,58.3,30.21,East,101,3.6,3.6,50,0.00,,---,0.00,VWS V15.00,2013-06-23 06:26:00,
2013-06-23 02:27:00,78.3,54.6,30.18,East,92,3.1,3.1,44,0.00,,---,0.00,VWS V14.01,2013-06-23 06:27:00,
2013-06-23 02:28:00,78.6,59.0,30.21,East,101,3.6,3.6,51,0.00,,---,0.00,VWS V15.00,2013-06-23 06:28:00,
2013-06-23 02:29:00,78.6,59.0,30.21,SSE,150,3.6,3.6,51,0.00,,---,0.00,VWS V15.00,2013-06-23 06:29:00,
2013-06-23 02:30:00,78.6,59.0,30.21,SE,128,2.7,3.6,51,0.00,,---,0.00,VWS V15.00,2013-06-23 06:30:00,
2013-06-23 02:31:00,78.6,59.0,30.21,SE,131,2.2,2.7,51,0.00,,---,0.00,VWS V15.00,2013-06-23 06:31:00,
2013-06-23 02:32:00,78.1,52.5,30.18,ESE,122,0.0,2.7,41,0.00,,---,0.00,VWS V14.01,2013-06-23 06:32:00,
2013-06-23 02:33:00,79.0,58.8,30.21,SE,133,2.7,2.7,50,0.00,,---,0.00,VWS V15.00,2013-06-23 06:33:00,
2013-06-23 02:34:00,79.0,58.8,30.21,ESE,117,2.7,4.0,50,0.00,,---,0.00,VWS V15.00,2013-06-23 06:34:00,
2013-06-23 02:35:00,78.8,59.2,30.21,ESE,119,5.4,5.4,51,0.00,,---,0.00,VWS V15.00,2013-06-23 06:35:00,
2013-06-23 02:36:00,78.8,59.7,30.21,ESE,119,3.1,5.4,52,0.00,,---,0.00,VWS V15.00,2013-06-23 06:36:00,
2013-06-23 02:37:00,78.1,49.0,30.18,SE,135,2.7,5.4,36,0.00,,---,0.00,VWS V14.01,2013-06-23 06:37:00,
2013-06-23 02:38:00,78.8,59.2,30.21,ESE,112,2.7,2.7,51,0.00,,---,0.00,VWS V15.00,2013-06-23 06:38:00,
2013-06-23 02:39:00,78.8,59.2,30.21,ESE,112,2.7,2.7,51,0.00,,---,0.00,VWS V15.00,2013-06-23 06:39:00,
2013-06-23 02:40:00,78.8,59.7,30.21,ESE,122,4.0,4.0,52,0.00,,---,0.00,VWS V15.00,2013-06-23 06:40:00,
2013-06-23 02:41:00,78.8,59.7,30.21,SE,127,3.1,4.0,52,0.00,,---,0.00,VWS V15.00,2013-06-23 06:41:00,
2013-06-23 02:42:00,78.1,49.0,30.18,ESE,122,0.0,0.0,36,0.00,,---,0.00,VWS V14.01,2013-06-23 06:42:00,
2013-06-23 02:43:00,78.8,59.7,30.21,SE,128,5.4,5.4,52,0.00,,---,0.00,VWS V15.00,2013-06-23 06:43:00,
2013-06-23 02:44:00,78.8,59.7,30.21,SE,128,5.4,5.4,52,0.00,,---,0.00,VWS V15.00,2013-06-23 06:44:00,
2013-06-23 02:45:00,79.0,58.8,30.21,SE,128,5.4,5.4,50,0.00,,---,0.00,VWS V15.00,2013-06-23 06:45:00,
2013-06-23 02:46:00,79.0,58.8,30.21,SE,128,5.4,5.4,50,0.00,,---,0.00,VWS V15.00,2013-06-23 06:46:00,
2013-06-23 02:47:00,77.5,50.0,30.18,East,82,0.0,0.0,38,0.00,,---,0.00,VWS V14.01,2013-06-23 06:47:00,
2013-06-23 02:48:00,79.0,58.8,30.21,ESE,115,3.1,3.1,50,0.00,,---,0.00,VWS V15.00,2013-06-23 06:48:00,
2013-06-23 02:49:00,79.0,58.2,30.18,ENE,71,3.6,3.6,49,0.00,,---,0.00,VWS V15.00,2013-06-23 06:49:00,
2013-06-23 02:50:00,79.0,58.2,30.18,SE,144,5.8,5.8,49,0.00,,---,0.00,VWS V15.00,2013-06-23 06:50:00,
2013-06-23 02:51:00,79.0,58.2,30.18,SE,144,5.8,5.8,49,0.00,,---,0.00,VWS V15.00,2013-06-23 06:51:00,
2013-06-23 02:52:00,77.2,49.6,30.18,ESE,119,2.7,2.7,38,0.00,,---,0.00,VWS V14.01,2013-06-23 06:52:00,
2013-06-23 02:53:00,79.0,57.0,30.18,SE,128,4.9,5.4,47,0.00,,---,0.00,VWS V15.00,2013-06-23 06:53:00,
2013-06-23 02:54:00,79.2,56.6,30.18,SE,133,4.5,4.9,46,0.00,,---,0.00,VWS V15.00,2013-06-23 06:54:00,
2013-06-23 02:55:00,79.2,56.0,30.18,SE,133,4.5,4.5,45,0.00,,---,0.00,VWS V15.00,2013-06-23 06:55:00,
2013-06-23 02:56:00,79.2,56.0,30.18,SE,145,2.2,4.5,45,0.00,,---,0.00,VWS V15.00,2013-06-23 06:56:00,
2013-06-23 02:57:00,77.2,48.9,30.18,ESE,120,0.0,0.0,37,0.00,,---,0.00,VWS V14.01,2013-06-23 06:57:00,
2013-06-23 02:58:00,79.0,55.8,30.18,SE,139,3.6,3.6,45,0.00,,---,0.00,VWS V15.00,2013-06-23 06:58:00,
2013-06-23 02:59:00,79.0,55.8,30.18,ESE,114,5.4,5.4,45,0.00,,---,0.00,VWS V15.00,2013-06-23 06:59:00,
2013-06-23 03:00:00,79.0,55.8,30.18,SE,138,4.0,5.4,45,0.00,,---,0.00,VWS V15.00,2013-06-23 07:00:00,
2013-06-23 03:01:00,79.0,55.8,30.18,SE,127,3.1,4.0,45,0.00,,---,0.00,VWS V15.00,2013-06-23 07:01:00,
2013-06-23 03:02:00,77.2,49.6,30.18,ESE,120,0.0,0.0,38,0.00,,---,0.00,VWS V14.01,2013-06-23 07:02:00,
2013-06-23 03:03:00,79.0,55.2,30.18,SE,138,3.6,3.6,44,0.00,,---,0.00,VWS V15.00,2013-06-23 07:03:00,
2013-06-23 03:04:00,78.8,55.1,30.18,ESE,119,5.4,5.4,44,0.00,,---,0.00,VWS V15.00,2013-06-23 07:04:00,
2013-06-23 03:05:00,78.8,55.1,30.18,ESE,120,3.6,5.4,44,0.00,,---,0.00,VWS V15.00,2013-06-23 07:05:00,
2013-06-23 03:06:00,78.8,54.4,30.18,ESE,120,2.2,3.6,43,0.00,,---,0.00,VWS V15.00,2013-06-23 07:06:00,
2013-06-23 03:07:00,76.8,50.7,30.18,ESE,120,0.0,0.0,40,0.00,,---,0.00,VWS V14.01,2013-06-23 07:07:00,
2013-06-23 03:08:00,78.8,54.4,30.18,SE,133,2.7,3.1,43,0.00,,---,0.00,VWS V15.00,2013-06-23 07:08:00,
2013-06-23 03:09:00,78.6,54.9,30.18,ESE,123,3.6,3.6,44,0.00,,---,0.00,VWS V15.00,2013-06-23 07:09:00,
2013-06-23 03:10:00,78.6,54.9,30.18,SE,127,3.6,3.6,44,0.00,,---,0.00,VWS V15.00,2013-06-23 07:10:00,
2013-06-23 03:11:00,78.6,54.9,30.18,SE,131,3.1,4.0,44,0.00,,---,0.00,VWS V15.00,2013-06-23 07:11:00,
2013-06-23 03:12:00,76.1,51.4,30.18,ESE,120,0.0,0.0,42,0.00,,---,0.00,VWS V14.01,2013-06-23 07:12:00,
2013-06-23 03:13:00,78.6,54.9,30.18,ESE,119,3.6,3.6,44,0.00,,---,0.00,VWS V15.00,2013-06-23 07:13:00,
2013-06-23 03:14:00,78.6,54.9,30.18,SE,125,3.1,3.6,44,0.00,,---,0.00,VWS V15.00,2013-06-23 07:14:00,
2013-06-23 03:15:00,78.6,54.9,30.18,ESE,112,3.1,3.1,44,0.00,,---,0.00,VWS V15.00,2013-06-23 07:15:00,
2013-06-23 03:16:00,78.6,54.9,30.18,SE,143,3.1,3.1,44,0.00,,---,0.00,VWS V15.00,2013-06-23 07:16:00,
2013-06-23 03:17:00,75.7,51.7,30.18,ESE,120,0.0,0.0,43,0.00,,---,0.00,VWS V14.01,2013-06-23 07:17:00,
2013-06-23 03:18:00,78.6,54.9,30.18,ESE,119,2.2,4.0,44,0.00,,---,0.00,VWS V15.00,2013-06-23 07:18:00,
2013-06-23 03:19:00,78.6,54.9,30.18,ESE,123,2.2,2.2,44,0.00,,---,0.00,VWS V15.00,2013-06-23 07:19:00,
2013-06-23 03:20:00,78.4,54.7,30.18,ESE,123,2.2,2.2,44,0.00,,---,0.00,VWS V15.00,2013-06-23 07:20:00,
2013-06-23 03:21:00,78.3,54.6,30.18,SE,141,3.6,3.6,44,0.00,,---,0.00,VWS V15.00,2013-06-23 07:21:00,
2013-06-23 03:22:00,75.4,52.0,30.18,ESE,120,0.0,0.0,44,0.00,,---,0.00,VWS V14.01,2013-06-23 07:22:00,
2013-06-23 03:23:00,78.3,54.6,30.18,SE,128,3.6,3.6,44,0.00,,---,0.00,VWS V15.00,2013-06-23 07:23:00,
2013-06-23 03:24:00,78.3,54.6,30.18,SSE,156,3.1,3.6,44,0.00,,---,0.00,VWS V15.00,2013-06-23 07:24:00,
2013-06-23 03:25:00,78.3,54.6,30.18,SE,142,3.1,3.1,44,0.00,,---,0.00,VWS V15.00,2013-06-23 07:25:00,
2013-06-23 03:26:00,78.3,54.6,30.18,East,92,3.1,4.9,44,0.00,,---,0.00,VWS V15.00,2013-06-23 07:26:00,
2013-06-23 03:27:00,78.3,54.6,30.18,ESE,122,2.2,3.1,44,0.00,,---,0.00,VWS V15.00,2013-06-23 07:27:00,
2013-06-23 03:28:00,75.2,53.0,30.18,ESE,120,0.0,0.0,46,0.00,,---,0.00,VWS V14.01,2013-06-23 07:28:00,
2013-06-23 03:29:00,78.1,53.8,30.18,ESE,122,4.9,4.9,43,0.00,,---,0.00,VWS V15.00,2013-06-23 07:29:00,
2013-06-23 03:30:00,78.1,53.8,30.18,ESE,122,4.9,4.9,43,0.00,,---,0.00,VWS V15.00,2013-06-23 07:30:00,
2013-06-23 03:31:00,78.1,53.8,30.18,East,92,2.7,5.8,43,0.00,,---,0.00,VWS V15.00,2013-06-23 07:31:00,
2013-06-23 03:32:00,78.1,52.5,30.18,ESE,122,0.0,2.7,41,0.00,,---,0.00,VWS V15.00,2013-06-23 07:32:00,
2013-06-23 03:33:00,75.0,54.6,30.18,ESE,120,0.0,0.0,49,0.00,,---,0.00,VWS V14.01,2013-06-23 07:33:00,
2013-06-23 03:34:00,78.1,49.7,30.18,SSE,153,2.7,2.7,37,0.00,,---,0.00,VWS V15.00,2013-06-23 07:34:00,
2013-06-23 03:35:00,78.1,49.7,30.18,East,98,4.0,4.0,37,0.00,,---,0.00,VWS V15.00,2013-06-23 07:35:00,
2013-06-23 03:36:00,78.1,49.7,30.18,SE,125,5.4,5.4,37,0.00,,---,0.00,VWS V15.00,2013-06-23 07:36:00,
2013-06-23 03:37:00,78.1,49.0,30.18,SE,135,2.2,5.4,36,0.00,,---,0.00,VWS V15.00,2013-06-23 07:37:00,
2013-06-23 03:38:00,75.0,55.1,30.18,ESE,120,0.0,0.0,50,0.00,,---,0.00,VWS V14.01,2013-06-23 07:38:00,
2013-06-23 03:39:00,78.3,49.1,30.18,SE,138,4.0,4.0,36,0.00,,---,0.00,VWS V15.00,2013-06-23 07:39:00,
2013-06-23 03:40:00,78.3,49.1,30.18,SE,138,4.0,4.0,36,0.00,,---,0.00,VWS V15.00,2013-06-23 07:40:00,
2013-06-23 03:41:00,78.1,49.0,30.18,SE,124,0.0,4.0,36,0.00,,---,0.00,VWS V15.00,2013-06-23 07:41:00,
2013-06-23 03:42:00,78.1,49.0,30.18,ESE,122,0.0,0.0,36,0.00,,---,0.00,VWS V15.00,2013-06-23 07:42:00,
2013-06-23 03:43:00,74.8,54.4,30.18,ESE,120,0.0,0.0,49,0.00,,---,0.00,VWS V14.01,2013-06-23 07:43:00,
2013-06-23 03:44:00,78.1,49.0,30.18,ESE,120,0.0,0.0,36,0.00,,---,0.00,VWS V15.00,2013-06-23 07:44:00,
2013-06-23 03:45:00,78.1,49.0,30.18,East,82,0.0,0.0,36,0.00,,---,0.00,VWS V15.00,2013-06-23 07:45:00,
2013-06-23 03:46:00,78.1,49.0,30.18,East,82,0.0,0.0,36,0.00,,---,0.00,VWS V15.00,2013-06-23 07:46:00,
2013-06-23 03:47:00,77.5,50.0,30.18,East,82,0.0,0.0,38,0.00,,---,0.00,VWS V15.00,2013-06-23 07:47:00,
2013-06-23 03:48:00,74.7,54.8,30.18,ESE,120,0.0,0.0,50,0.00,,---,0.00,VWS V14.01,2013-06-23 07:48:00,
2013-06-23 03:49:00,77.4,49.8,30.18,East,82,0.0,0.0,38,0.00,,---,0.00,VWS V15.00,2013-06-23 07:49:00,
2013-06-23 03:50:00,77.4,49.8,30.18,East,82,0.0,0.0,38,0.00,,---,0.00,VWS V15.00,2013-06-23 07:50:00,
2013-06-23 03:51:00,77.2,49.6,30.18,ESE,110,2.7,2.7,38,0.00,,---,0.00,VWS V15.00,2013-06-23 07:51:00,
2013-06-23 03:52:00,77.2,49.6,30.18,ESE,119,2.7,2.7,38,0.00,,---,0.00,VWS V15.00,2013-06-23 07:52:00,
2013-06-23 03:53:00,74.7,54.8,30.18,ESE,120,0.0,0.0,50,0.00,,---,0.00,VWS V14.01,2013-06-23 07:53:00,
2013-06-23 03:54:00,77.2,48.9,30.18,SE,138,3.1,3.1,37,0.00,,---,0.00,VWS V15.00,2013-06-23 07:54:00,
2013-06-23 03:55:00,77.2,48.9,30.18,SE,145,0.0,3.1,37,0.00,,---,0.00,VWS V15.00,2013-06-23 07:55:00,
2013-06-23 03:56:00,77.2,48.9,30.18,SE,145,0.0,0.0,37,0.00,,---,0.00,VWS V15.00,2013-06-23 07:56:00,
2013-06-23 03:57:00,77.2,48.9,30.18,ESE,120,0.0,0.0,37,0.00,,---,0.00,VWS V15.00,2013-06-23 07:57:00,
2013-06-23 03:58:00,74.5,55.2,30.18,ESE,120,0.0,0.0,51,0.00,,---,0.00,VWS V14.01,2013-06-23 07:58:00,
2013-06-23 03:59:00,77.4,49.8,30.18,ESE,120,0.0,0.0,38,0.00,,---,0.00,VWS V15.00,2013-06-23 07:59:00,
2013-06-23 04:00:00,77.2,49.6,30.18,ESE,120,0.0,0.0,38,0.00,,---,0.00,VWS V15.00,2013-06-23 08:00:00,
2013-06-23 04:01:00,77.2,49.6,30.18,ESE,120,0.0,0.0,38,0.00,,---,0.00,VWS V15.00,2013-06-23 08:01:00,
2013-06-23 04:02:00,77.2,49.6,30.18,ESE,120,0.0,0.0,38,0.00,,---,0.00,VWS V15.00,2013-06-23 08:02:00,
2013-06-23 04:03:00,74.7,56.9,30.18,ESE,120,0.0,0.0,54,0.00,,---,0.00,VWS V14.01,2013-06-23 08:03:00,
2013-06-23 04:04:00,76.8,50.7,30.18,ESE,120,0.0,0.0,40,0.00,,---,0.00,VWS V15.00,2013-06-23 08:04:00,
2013-06-23 04:05:00,76.8,50.7,30.18,ESE,120,0.0,0.0,40,0.00,,---,0.00,VWS V15.00,2013-06-23 08:05:00,
2013-06-23 04:06:00,76.8,50.7,30.18,ESE,120,0.0,0.0,40,0.00,,---,0.00,VWS V15.00,2013-06-23 08:06:00,
2013-06-23 04:07:00,76.8,50.7,30.18,ESE,120,0.0,0.0,40,0.00,,---,0.00,VWS V15.00,2013-06-23 08:07:00,
2013-06-23 04:08:00,74.7,57.4,30.18,ESE,120,0.0,0.0,55,0.00,,---,0.00,VWS V14.01,2013-06-23 08:08:00,
2013-06-23 04:09:00,76.3,51.5,30.18,ESE,120,0.0,0.0,42,0.00,,---,0.00,VWS V15.00,2013-06-23 08:09:00,
2013-06-23 04:10:00,76.3,51.5,30.18,ESE,120,0.0,0.0,42,0.00,,---,0.00,VWS V15.00,2013-06-23 08:10:00,
2013-06-23 04:11:00,76.1,51.4,30.18,ESE,120,0.0,0.0,42,0.00,,---,0.00,VWS V15.00,2013-06-23 08:11:00,
2013-06-23 04:12:00,76.1,51.4,30.18,ESE,120,0.0,0.0,42,0.00,,---,0.00,VWS V15.00,2013-06-23 08:12:00,
2013-06-23 04:13:00,74.5,59.7,30.18,ESE,120,0.0,0.0,60,0.00,,---,0.00,VWS V14.01,2013-06-23 08:13:00,
2013-06-23 04:14:00,75.9,51.2,30.18,ESE,120,0.0,0.0,42,0.00,,---,0.00,VWS V15.00,2013-06-23 08:14:00,
2013-06-23 04:15:00,75.9,51.8,30.18,ESE,120,0.0,0.0,43,0.00,,---,0.00,VWS V15.00,2013-06-23 08:15:00,
2013-06-23 04:16:00,75.7,51.7,30.18,ESE,120,0.0,0.0,43,0.00,,---,0.00,VWS V15.00,2013-06-23 08:16:00,
2013-06-23 04:17:00,75.7,51.7,30.18,ESE,120,0.0,0.0,43,0.00,,---,0.00,VWS V15.00,2013-06-23 08:17:00,
2013-06-23 04:18:00,74.1,60.7,30.18,South,181,0.0,0.0,63,0.00,,---,0.00,VWS V14.01,2013-06-23 08:18:00,
2013-06-23 04:19:00,75.6,52.1,30.18,ESE,120,0.0,0.0,44,0.00,,---,0.00,VWS V15.00,2013-06-23 08:19:00,
2013-06-23 04:20:00,75.6,52.1,30.18,ESE,120,0.0,0.0,44,0.00,,---,0.00,VWS V15.00,2013-06-23 08:20:00,
2013-06-23 04:21:00,75.4,52.0,30.18,ESE,120,0.0,0.0,44,0.00,,---,0.00,VWS V15.00,2013-06-23 08:21:00,
2013-06-23 04:22:00,75.4,52.0,30.18,ESE,120,0.0,0.0,44,0.00,,---,0.00,VWS V15.00,2013-06-23 08:22:00,
2013-06-23 04:23:00,74.5,66.0,30.18,SSE,161,0.0,0.0,75,0.00,,---,0.00,VWS V14.01,2013-06-23 08:23:00,
2013-06-23 04:24:00,75.4,52.0,30.18,ESE,120,0.0,0.0,44,0.00,,---,0.00,VWS V15.00,2013-06-23 08:24:00,
2013-06-23 04:25:00,75.4,52.0,30.18,ESE,120,0.0,0.0,44,0.00,,---,0.00,VWS V15.00,2013-06-23 08:25:00,
2013-06-23 04:26:00,75.2,53.0,30.18,ESE,120,0.0,0.0,46,0.00,,---,0.00,VWS V15.00,2013-06-23 08:26:00,
2013-06-23 04:27:00,75.2,53.0,30.18,ESE,120,0.0,0.0,46,0.00,,---,0.00,VWS V15.00,2013-06-23 08:27:00,
2013-06-23 04:28:00,75.2,53.0,30.18,ESE,120,0.0,0.0,46,0.00,,---,0.00,VWS V15.00,2013-06-23 08:28:00,
2013-06-23 04:29:00,74.5,66.8,30.18,SE,136,0.0,0.0,77,0.00,,---,0.00,VWS V14.01,2013-06-23 08:29:00,
2013-06-23 04:30:00,75.2,54.2,30.18,ESE,120,0.0,0.0,48,0.00,,---,0.00,VWS V15.00,2013-06-23 08:30:00,
2013-06-23 04:31:00,75.2,54.2,30.18,ESE,120,0.0,0.0,48,0.00,,---,0.00,VWS V15.00,2013-06-23 08:31:00,
2013-06-23 04:32:00,75.0,54.6,30.18,ESE,120,0.0,0.0,49,0.00,,---,0.00,VWS V15.00,2013-06-23 08:32:00,
2013-06-23 04:33:00,75.0,54.6,30.18,ESE,120,0.0,0.0,49,0.00,,---,0.00,VWS V15.00,2013-06-23 08:33:00,
2013-06-23 04:34:00,74.7,67.7,30.18,SE,141,0.0,0.0,79,0.00,,---,0.00,VWS V14.01,2013-06-23 08:34:00,
2013-06-23 04:35:00,75.0,54.6,30.18,ESE,120,0.0,0.0,49,0.00,,---,0.00,VWS V15.00,2013-06-23 08:35:00,
2013-06-23 04:36:00,75.0,54.6,30.18,ESE,120,0.0,0.0,49,0.00,,---,0.00,VWS V15.00,2013-06-23 08:36:00,
2013-06-23 04:37:00,75.0,55.1,30.18,ESE,120,0.0,0.0,50,0.00,,---,0.00,VWS V15.00,2013-06-23 08:37:00,
2013-06-23 04:38:00,75.0,55.1,30.18,ESE,120,0.0,0.0,50,0.00,,---,0.00,VWS V15.00,2013-06-23 08:38:00,
2013-06-23 04:39:00,74.7,67.7,30.18,SE,141,0.0,0.0,79,0.00,,---,0.00,VWS V14.01,2013-06-23 08:39:00,
2013-06-23 04:40:00,75.0,55.1,30.18,ESE,120,0.0,0.0,50,0.00,,---,0.00,VWS V15.00,2013-06-23 08:40:00,
2013-06-23 04:41:00,75.0,55.1,30.18,ESE,120,0.0,0.0,50,0.00,,---,0.00,VWS V15.00,2013-06-23 08:41:00,
2013-06-23 04:42:00,75.0,55.1,30.18,ESE,120,0.0,0.0,50,0.00,,---,0.00,VWS V15.00,2013-06-23 08:42:00,
2013-06-23 04:43:00,74.8,54.4,30.18,ESE,120,0.0,0.0,49,0.00,,---,0.00,VWS V15.00,2013-06-23 08:43:00,
2013-06-23 04:44:00,74.7,68.1,30.18,SE,141,0.0,0.0,80,0.00,,---,0.00,VWS V14.01,2013-06-23 08:44:00,
2013-06-23 04:45:00,74.8,55.0,30.18,ESE,120,0.0,0.0,50,0.00,,---,0.00,VWS V15.00,2013-06-23 08:45:00,
2013-06-23 04:46:00,74.8,55.0,30.18,ESE,120,0.0,0.0,50,0.00,,---,0.00,VWS V15.00,2013-06-23 08:46:00,
2013-06-23 04:47:00,74.8,55.0,30.18,ESE,120,0.0,0.0,50,0.00,,---,0.00,VWS V15.00,2013-06-23 08:47:00,
2013-06-23 04:48:00,74.7,54.8,30.18,ESE,120,0.0,0.0,50,0.00,,---,0.00,VWS V15.00,2013-06-23 08:48:00,
2013-06-23 04:49:00,74.8,70.0,30.18,ENE,59,0.0,0.0,85,0.00,,---,0.00,VWS V14.01,2013-06-23 08:49:00,
2013-06-23 04:50:00,74.7,54.8,30.18,ESE,120,0.0,0.0,50,0.00,,---,0.00,VWS V15.00,2013-06-23 08:50:00,
2013-06-23 04:51:00,74.7,54.8,30.18,ESE,120,0.0,0.0,50,0.00,,---,0.00,VWS V15.00,2013-06-23 08:51:00,
2013-06-23 04:52:00,74.7,54.8,30.18,ESE,120,0.0,0.0,50,0.00,,---,0.00,VWS V15.00,2013-06-23 08:52:00,
2013-06-23 04:53:00,74.7,54.8,30.18,ESE,120,0.0,0.0,50,0.00,,---,0.00,VWS V15.00,2013-06-23 08:53:00,
2013-06-23 04:54:00,74.8,70.0,30.18,East,90,2.2,5.4,85,0.00,,---,0.00,VWS V14.01,2013-06-23 08:54:00,
2013-06-23 04:55:00,74.5,55.2,30.18,ESE,120,0.0,0.0,51,0.00,,---,0.00,VWS V15.00,2013-06-23 08:55:00,
2013-06-23 04:56:00,74.5,55.2,30.18,ESE,120,0.0,0.0,51,0.00,,---,0.00,VWS V15.00,2013-06-23 08:56:00,
2013-06-23 04:57:00,74.5,55.2,30.18,ESE,120,0.0,0.0,51,0.00,,---,0.00,VWS V15.00,2013-06-23 08:57:00,
2013-06-23 04:58:00,74.5,55.2,30.18,ESE,120,0.0,0.0,51,0.00,,---,0.00,VWS V15.00,2013-06-23 08:58:00,
2013-06-23 04:59:00,75.0,68.4,30.18,ESE,108,2.2,3.1,80,0.00,,---,0.00,VWS V14.01,2013-06-23 08:59:00,
2013-06-23 05:00:00,74.5,55.2,30.18,ESE,120,0.0,0.0,51,0.00,,---,0.00,VWS V15.00,2013-06-23 09:00:00,
2013-06-23 05:01:00,74.5,56.2,30.18,ESE,120,0.0,0.0,53,0.00,,---,0.00,VWS V15.00,2013-06-23 09:01:00,
2013-06-23 05:02:00,74.5,56.2,30.18,ESE,120,0.0,0.0,53,0.00,,---,0.00,VWS V15.00,2013-06-23 09:02:00,
2013-06-23 05:03:00,74.7,56.9,30.18,ESE,120,0.0,0.0,54,0.00,,---,0.00,VWS V15.00,2013-06-23 09:03:00,
2013-06-23 05:04:00,75.2,64.8,30.18,ESE,116,5.8,5.8,70,0.00,,---,0.00,VWS V14.01,2013-06-23 09:04:00,
2013-06-23 05:05:00,74.7,57.4,30.18,ESE,120,0.0,0.0,55,0.00,,---,0.00,VWS V15.00,2013-06-23 09:05:00,
2013-06-23 05:06:00,74.7,57.4,30.18,ESE,120,0.0,0.0,55,0.00,,---,0.00,VWS V15.00,2013-06-23 09:06:00,
2013-06-23 05:07:00,74.7,57.4,30.18,ESE,120,0.0,0.0,55,0.00,,---,0.00,VWS V15.00,2013-06-23 09:07:00,
2013-06-23 05:08:00,74.7,57.4,30.18,ESE,120,0.0,0.0,55,0.00,,---,0.00,VWS V15.00,2013-06-23 09:08:00,
2013-06-23 05:09:00,75.6,63.4,30.18,ESE,119,3.1,3.1,66,0.00,,---,0.00,VWS V14.01,2013-06-23 09:09:00,
2013-06-23 05:10:00,75.0,58.3,30.18,ESE,120,0.0,0.0,56,0.00,,---,0.00,VWS V15.00,2013-06-23 09:10:00,
2013-06-23 05:11:00,75.0,58.3,30.18,ESE,120,0.0,0.0,56,0.00,,---,0.00,VWS V15.00,2013-06-23 09:11:00,
2013-06-23 05:12:00,75.0,58.3,30.18,ESE,120,0.0,0.0,56,0.00,,---,0.00,VWS V15.00,2013-06-23 09:12:00,
2013-06-23 05:13:00,74.5,59.7,30.18,ESE,120,0.0,0.0,60,0.00,,---,0.00,VWS V15.00,2013-06-23 09:13:00,
2013-06-23 05:14:00,75.7,61.3,30.18,SSE,165,2.2,2.2,61,0.00,,---,0.00,VWS V14.01,2013-06-23 09:14:00,
2013-06-23 05:15:00,74.3,60.0,30.18,ESE,120,0.0,0.0,61,0.00,,---,0.00,VWS V15.00,2013-06-23 09:15:00,
2013-06-23 05:16:00,74.3,60.0,30.18,ESE,120,0.0,0.0,61,0.00,,---,0.00,VWS V15.00,2013-06-23 09:16:00,
2013-06-23 05:17:00,74.1,60.7,30.18,ESE,120,0.0,0.0,63,0.00,,---,0.00,VWS V15.00,2013-06-23 09:17:00,
2013-06-23 05:18:00,74.1,60.7,30.18,South,181,0.0,0.0,63,0.00,,---,0.00,VWS V15.00,2013-06-23 09:18:00,
2013-06-23 05:19:00,75.7,61.3,30.18,SE,127,3.6,3.6,61,0.00,,---,0.00,VWS V14.01,2013-06-23 09:19:00,
2013-06-23 05:20:00,74.1,63.7,30.18,ESE,103,2.2,2.2,70,0.00,,---,0.00,VWS V15.00,2013-06-23 09:20:00,
2013-06-23 05:21:00,74.1,63.7,30.18,East,84,3.1,3.1,70,0.00,,---,0.00,VWS V15.00,2013-06-23 09:21:00,
2013-06-23 05:22:00,74.5,66.0,30.18,SE,124,4.0,4.0,75,0.00,,---,0.00,VWS V15.00,2013-06-23 09:22:00,
2013-06-23 05:23:00,74.5,66.0,30.18,SSE,161,0.0,4.0,75,0.00,,---,0.00,VWS V15.00,2013-06-23 09:23:00,
2013-06-23 05:24:00,75.6,60.7,30.18,ESE,122,0.0,0.0,60,0.00,,---,0.00,VWS V14.01,2013-06-23 09:24:00,
2013-06-23 05:25:00,74.5,66.4,30.18,SSE,156,4.0,4.0,76,0.00,,---,0.00,VWS V15.00,2013-06-23 09:25:00,
2013-06-23 05:26:00,74.5,66.4,30.18,SSE,156,4.0,4.0,76,0.00,,---,0.00,VWS V15.00,2013-06-23 09:26:00,
2013-06-23 05:27:00,74.5,66.4,30.18,SE,136,2.7,4.0,76,0.00,,---,0.00,VWS V15.00,2013-06-23 09:27:00,
2013-06-23 05:28:00,74.5,66.4,30.18,SE,136,0.0,2.7,76,0.00,,---,0.00,VWS V15.00,2013-06-23 09:28:00,
2013-06-23 05:29:00,74.5,66.8,30.18,South,185,3.1,3.1,77,0.00,,---,0.00,VWS V15.00,2013-06-23 09:29:00,
2013-06-23 05:30:00,75.2,60.8,30.18,ESE,119,0.0,0.0,61,0.00,,---,0.00,VWS V14.01,2013-06-23 09:30:00,
2013-06-23 05:31:00,74.5,66.8,30.18,SE,141,0.0,0.0,77,0.00,,---,0.00,VWS V15.00,2013-06-23 09:31:00,
2013-06-23 05:32:00,74.5,67.2,30.18,SE,141,0.0,0.0,78,0.00,,---,0.00,VWS V15.00,2013-06-23 09:32:00,
2013-06-23 05:33:00,74.5,67.2,30.18,SE,141,0.0,0.0,78,0.00,,---,0.00,VWS V15.00,2013-06-23 09:33:00,
2013-06-23 05:34:00,74.7,67.7,30.18,SE,141,0.0,0.0,79,0.00,,---,0.00,VWS V15.00,2013-06-23 09:34:00,
2013-06-23 05:35:00,75.0,61.1,30.18,ESE,120,0.0,0.0,62,0.00,,---,0.00,VWS V14.01,2013-06-23 09:35:00,
2013-06-23 05:36:00,74.7,67.7,30.18,SE,141,0.0,0.0,79,0.00,,---,0.00,VWS V15.00,2013-06-23 09:36:00,
2013-06-23 05:37:00,74.7,67.7,30.18,SE,141,0.0,0.0,79,0.00,,---,0.00,VWS V15.00,2013-06-23 09:37:00,
2013-06-23 05:38:00,74.7,67.7,30.18,SE,141,0.0,0.0,79,0.00,,---,0.00,VWS V15.00,2013-06-23 09:38:00,
2013-06-23 05:39:00,74.7,67.7,30.18,SE,141,0.0,0.0,79,0.00,,---,0.00,VWS V15.00,2013-06-23 09:39:00,
2013-06-23 05:40:00,74.7,61.2,30.18,ESE,119,0.0,0.0,63,0.00,,---,0.00,VWS V14.01,2013-06-23 09:40:00,
2013-06-23 05:41:00,74.7,68.1,30.18,SE,141,0.0,0.0,80,0.00,,---,0.00,VWS V15.00,2013-06-23 09:41:00,
2013-06-23 05:42:00,74.7,68.1,30.18,SE,141,0.0,0.0,80,0.00,,---,0.00,VWS V15.00,2013-06-23 09:42:00,
2013-06-23 05:43:00,74.7,68.1,30.18,SE,141,0.0,0.0,80,0.00,,---,0.00,VWS V15.00,2013-06-23 09:43:00,
2013-06-23 05:44:00,74.7,68.1,30.18,East,85,0.0,0.0,80,0.00,,---,0.00,VWS V15.00,2013-06-23 09:44:00,
2013-06-23 05:45:00,74.5,61.1,30.18,ESE,119,0.0,0.0,63,0.00,,---,0.00,VWS V14.01,2013-06-23 09:45:00,
2013-06-23 05:46:00,74.8,69.3,30.18,East,85,0.0,0.0,83,0.00,,---,0.00,VWS V15.00,2013-06-23 09:46:00,
2013-06-23 05:47:00,74.8,69.3,30.18,East,85,0.0,0.0,83,0.00,,---,0.00,VWS V15.00,2013-06-23 09:47:00,
2013-06-23 05:48:00,74.8,70.0,30.18,East,85,0.0,0.0,85,0.00,,---,0.00,VWS V15.00,2013-06-23 09:48:00,
2013-06-23 05:49:00,74.8,70.0,30.18,ENE,59,0.0,0.0,85,0.00,,---,0.00,VWS V15.00,2013-06-23 09:49:00,
2013-06-23 05:50:00,74.3,61.8,30.18,ESE,119,0.0,0.0,65,0.00,,---,0.00,VWS V14.01,2013-06-23 09:50:00,
2013-06-23 05:51:00,74.8,70.0,30.18,East,91,5.8,5.8,85,0.00,,---,0.00,VWS V15.00,2013-06-23 09:51:00,
2013-06-23 05:52:00,74.8,70.0,30.18,ESE,106,3.6,5.8,85,0.00,,---,0.00,VWS V15.00,2013-06-23 09:52:00,
2013-06-23 05:53:00,74.8,70.0,30.18,ENE,73,3.6,3.6,85,0.00,,---,0.00,VWS V15.00,2013-06-23 09:53:00,
2013-06-23 05:54:00,74.8,70.0,30.18,East,90,2.2,5.4,85,0.00,,---,0.00,VWS V15.00,2013-06-23 09:54:00,
2013-06-23 05:55:00,73.8,62.1,30.18,ESE,119,0.0,0.0,67,0.00,,---,0.00,VWS V14.01,2013-06-23 09:55:00,
2013-06-23 05:56:00,74.8,70.0,30.18,ESE,114,0.0,2.2,85,0.00,,---,0.00,VWS V15.00,2013-06-23 09:56:00,
2013-06-23 05:57:00,75.0,68.4,30.18,ESE,115,3.1,3.1,80,0.00,,---,0.00,VWS V15.00,2013-06-23 09:57:00,
2013-06-23 05:58:00,75.0,68.4,30.18,SE,138,3.1,3.1,80,0.00,,---,0.00,VWS V15.00,2013-06-23 09:58:00,
2013-06-23 05:59:00,75.0,68.4,30.18,ESE,108,2.2,3.1,80,0.00,,---,0.00,VWS V15.00,2013-06-23 09:59:00,
2013-06-23 06:00:00,73.8,62.5,30.18,ESE,120,0.0,0.0,68,0.00,,---,0.00,VWS V14.01,2013-06-23 10:00:00,
2013-06-23 06:01:00,75.0,68.4,30.18,SE,137,3.1,3.1,80,0.00,,---,0.00,VWS V15.00,2013-06-23 10:01:00,
2013-06-23 06:02:00,75.0,68.4,30.18,ESE,109,5.8,7.6,80,0.00,,---,0.00,VWS V15.00,2013-06-23 10:02:00,
2013-06-23 06:03:00,75.2,64.8,30.18,ESE,116,5.8,5.8,70,0.00,,---,0.00,VWS V15.00,2013-06-23 10:03:00,
2013-06-23 06:04:00,75.2,64.8,30.18,ESE,116,5.8,5.8,70,0.00,,---,0.00,VWS V15.00,2013-06-23 10:04:00,
2013-06-23 06:05:00,73.6,63.2,30.18,ESE,119,0.0,0.0,70,0.00,,---,0.00,VWS V14.01,2013-06-23 10:05:00,
2013-06-23 06:06:00,75.2,64.8,30.18,SE,129,5.8,5.8,70,0.00,,---,0.00,VWS V15.00,2013-06-23 10:06:00,
2013-06-23 06:07:00,75.2,64.8,30.18,ESE,111,3.1,5.8,70,0.00,,---,0.00,VWS V15.00,2013-06-23 10:07:00,
2013-06-23 06:08:00,75.2,64.8,30.18,ESE,119,3.1,4.0,70,0.00,,---,0.00,VWS V15.00,2013-06-23 10:08:00,
2013-06-23 06:09:00,75.6,63.4,30.18,ESE,119,3.1,3.1,66,0.00,,---,0.00,VWS V15.00,2013-06-23 10:09:00,
2013-06-23 06:10:00,73.6,64.8,30.18,ESE,119,0.0,0.0,74,0.00,,---,0.00,VWS V14.01,2013-06-23 10:10:00,
2013-06-23 06:11:00,75.6,62.1,30.18,SSE,158,3.1,5.8,63,0.00,,---,0.00,VWS V15.00,2013-06-23 10:11:00,
2013-06-23 06:12:00,75.6,61.6,30.18,SE,126,3.1,3.1,62,0.00,,---,0.00,VWS V15.00,2013-06-23 10:12:00,
2013-06-23 06:13:00,75.6,61.6,30.18,SE,140,0.0,3.1,62,0.00,,---,0.00,VWS V15.00,2013-06-23 10:13:00,
2013-06-23 06:14:00,75.7,61.3,30.18,SE,140,0.0,0.0,61,0.00,,---,0.00,VWS V15.00,2013-06-23 10:14:00,
2013-06-23 06:15:00,73.4,65.0,30.18,ESE,119,0.0,0.0,75,0.00,,---,0.00,VWS V14.01,2013-06-23 10:15:00,
2013-06-23 06:16:00,75.7,61.3,30.18,SSE,166,0.0,0.0,61,0.00,,---,0.00,VWS V15.00,2013-06-23 10:16:00,
2013-06-23 06:17:00,75.7,61.3,30.18,SSE,154,0.0,0.0,61,0.00,,---,0.00,VWS V15.00,2013-06-23 10:17:00,
2013-06-23 06:18:00,75.7,61.3,30.18,SSE,154,0.0,0.0,61,0.00,,---,0.00,VWS V15.00,2013-06-23 10:18:00,
2013-06-23 06:19:00,75.7,61.3,30.18,SE,127,3.6,4.0,61,0.00,,---,0.00,VWS V15.00,2013-06-23 10:19:00,
2013-06-23 06:20:00,73.4,65.0,30.18,ESE,119,0.0,0.0,75,0.00,,---,0.00,VWS V14.01,2013-06-23 10:20:00,
2013-06-23 06:21:00,75.7,60.9,30.18,SE,135,2.2,2.2,60,0.00,,---,0.00,VWS V15.00,2013-06-23 10:21:00,
2013-06-23 06:22:00,75.7,60.9,30.18,SE,135,0.0,2.2,60,0.00,,---,0.00,VWS V15.00,2013-06-23 10:22:00,
2013-06-23 06:23:00,75.6,60.7,30.18,ESE,122,0.0,0.0,60,0.00,,---,0.00,VWS V15.00,2013-06-23 10:23:00,
2013-06-23 06:24:00,75.6,60.7,30.18,ESE,122,0.0,0.0,60,0.00,,---,0.00,VWS V15.00,2013-06-23 10:24:00,
2013-06-23 06:25:00,73.6,67.0,30.18,ESE,119,0.0,0.0,80,0.00,,---,0.00,VWS V14.01,2013-06-23 10:25:00,
2013-06-23 06:26:00,75.6,60.7,30.18,ESE,122,0.0,0.0,60,0.00,,---,0.00,VWS V15.00,2013-06-23 10:26:00,
2013-06-23 06:27:00,75.6,60.7,30.18,ESE,119,0.0,0.0,60,0.00,,---,0.00,VWS V15.00,2013-06-23 10:27:00,
2013-06-23 06:28:00,75.6,60.7,30.18,ESE,119,0.0,0.0,60,0.00,,---,0.00,VWS V15.00,2013-06-23 10:28:00,
2013-06-23 06:29:00,75.2,60.8,30.18,ESE,119,0.0,0.0,61,0.00,,---,0.00,VWS V15.00,2013-06-23 10:29:00,
2013-06-23 06:30:00,73.6,67.4,30.18,ESE,119,0.0,0.0,81,0.00,,---,0.00,VWS V14.01,2013-06-23 10:30:00,
2013-06-23 06:31:00,75.2,60.8,30.18,ESE,119,0.0,0.0,61,0.00,,---,0.00,VWS V15.00,2013-06-23 10:31:00,
2013-06-23 06:32:00,75.2,60.8,30.18,ESE,119,0.0,0.0,61,0.00,,---,0.00,VWS V15.00,2013-06-23 10:32:00,
2013-06-23 06:33:00,75.2,60.8,30.18,ESE,119,0.0,0.0,61,0.00,,---,0.00,VWS V15.00,2013-06-23 10:33:00,
2013-06-23 06:34:00,75.0,61.1,30.18,ESE,119,0.0,0.0,62,0.00,,---,0.00,VWS V15.00,2013-06-23 10:34:00,
2013-06-23 06:35:00,73.6,67.4,30.18,ESE,119,0.0,0.0,81,0.00,,---,0.00,VWS V14.01,2013-06-23 10:35:00,
2013-06-23 06:36:00,75.0,61.6,30.18,ESE,119,0.0,0.0,63,0.00,,---,0.00,VWS V15.00,2013-06-23 10:36:00,
2013-06-23 06:37:00,75.0,61.6,30.18,ESE,119,0.0,0.0,63,0.00,,---,0.00,VWS V15.00,2013-06-23 10:37:00,
2013-06-23 06:38:00,75.0,61.6,30.18,ESE,119,0.0,0.0,63,0.00,,---,0.00,VWS V15.00,2013-06-23 10:38:00,
2013-06-23 06:39:00,75.0,61.6,30.18,ESE,119,0.0,0.0,63,0.00,,---,0.00,VWS V15.00,2013-06-23 10:39:00,
2013-06-23 06:40:00,73.6,67.4,30.18,ESE,119,0.0,0.0,81,0.00,,---,0.00,VWS V14.01,2013-06-23 10:40:00,
2013-06-23 06:41:00,74.7,61.2,30.18,ESE,119,0.0,0.0,63,0.00,,---,0.00,VWS V15.00,2013-06-23 10:41:00,
2013-06-23 06:42:00,74.5,61.1,30.18,ESE,119,0.0,0.0,63,0.00,,---,0.00,VWS V15.00,2013-06-23 10:42:00,
2013-06-23 06:43:00,74.5,61.1,30.18,ESE,119,0.0,0.0,63,0.00,,---,0.00,VWS V15.00,2013-06-23 10:43:00,
2013-06-23 06:44:00,74.5,61.1,30.18,ESE,119,0.0,0.0,63,0.00,,---,0.00,VWS V15.00,2013-06-23 10:44:00,
2013-06-23 06:45:00,74.3,61.3,30.18,ESE,119,0.0,0.0,64,0.00,,---,0.00,VWS V15.00,2013-06-23 10:45:00,
2013-06-23 06:46:00,73.9,68.5,30.18,ESE,119,0.0,0.0,83,0.00,,---,0.00,VWS V14.01,2013-06-23 10:46:00,
2013-06-23 06:47:00,74.3,61.8,30.18,ESE,119,0.0,0.0,65,0.00,,---,0.00,VWS V15.00,2013-06-23 10:47:00,
2013-06-23 06:48:00,74.3,61.8,30.18,ESE,119,0.0,0.0,65,0.00,,---,0.00,VWS V15.00,2013-06-23 10:48:00,
2013-06-23 06:49:00,74.3,61.8,30.18,ESE,119,0.0,0.0,65,0.00,,---,0.00,VWS V15.00,2013-06-23 10:49:00,
2013-06-23 06:50:00,74.3,61.8,30.18,ESE,119,0.0,0.0,65,0.00,,---,0.00,VWS V15.00,2013-06-23 10:50:00,
2013-06-23 06:51:00,74.3,69.2,30.21,ESE,119,0.0,0.0,84,0.00,,---,0.00,VWS V14.01,2013-06-23 10:51:00,
2013-06-23 06:52:00,73.9,61.9,30.18,ESE,119,0.0,0.0,66,0.00,,---,0.00,VWS V15.00,2013-06-23 10:52:00,
2013-06-23 06:53:00,73.9,61.9,30.18,ESE,119,0.0,0.0,66,0.00,,---,0.00,VWS V15.00,2013-06-23 10:53:00,
2013-06-23 06:54:00,73.8,62.1,30.18,ESE,119,0.0,0.0,67,0.00,,---,0.00,VWS V15.00,2013-06-23 10:54:00,
2013-06-23 06:55:00,73.8,62.1,30.18,ESE,119,0.0,0.0,67,0.00,,---,0.00,VWS V15.00,2013-06-23 10:55:00,
2013-06-23 06:56:00,74.7,69.5,30.21,ESE,119,0.0,0.0,84,0.00,,---,0.00,VWS V14.01,2013-06-23 10:56:00,
2013-06-23 06:57:00,73.8,62.5,30.18,ESE,119,0.0,0.0,68,0.00,,---,0.00,VWS V15.00,2013-06-23 10:57:00,
2013-06-23 06:58:00,73.8,62.5,30.18,ESE,119,0.0,0.0,68,0.00,,---,0.00,VWS V15.00,2013-06-23 10:58:00,
2013-06-23 06:59:00,73.8,62.5,30.18,ESE,119,0.0,0.0,68,0.00,,---,0.00,VWS V15.00,2013-06-23 10:59:00,
2013-06-23 07:00:00,73.8,62.5,30.18,ESE,120,0.0,0.0,68,0.00,,---,0.00,VWS V15.00,2013-06-23 11:00:00,
2013-06-23 07:01:00,75.0,70.6,30.21,ESE,119,0.0,0.0,86,0.00,,---,0.00,VWS V14.01,2013-06-23 11:01:00,
2013-06-23 07:02:00,73.8,62.5,30.18,ESE,120,0.0,0.0,68,0.00,,---,0.00,VWS V15.00,2013-06-23 11:02:00,
2013-06-23 07:03:00,73.8,62.5,30.18,ESE,120,0.0,0.0,68,0.00,,---,0.00,VWS V15.00,2013-06-23 11:03:00,
2013-06-23 07:04:00,73.6,63.2,30.18,ESE,120,0.0,0.0,70,0.00,,---,0.00,VWS V15.00,2013-06-23 11:04:00,
2013-06-23 07:05:00,73.6,63.2,30.18,ESE,119,0.0,0.0,70,0.00,,---,0.00,VWS V15.00,2013-06-23 11:05:00,
2013-06-23 07:06:00,75.7,69.1,30.21,WSW,239,3.1,3.1,80,0.00,,---,0.00,VWS V14.01,2013-06-23 11:06:00,
2013-06-23 07:07:00,73.6,63.2,30.18,ESE,119,0.0,0.0,70,0.00,,---,0.00,VWS V15.00,2013-06-23 11:07:00,
2013-06-23 07:08:00,73.6,64.4,30.18,ESE,119,0.0,0.0,73,0.00,,---,0.00,VWS V15.00,2013-06-23 11:08:00,
2013-06-23 07:09:00,73.6,64.8,30.18,ESE,119,0.0,0.0,74,0.00,,---,0.00,VWS V15.00,2013-06-23 11:09:00,
2013-06-23 07:10:00,73.6,64.8,30.18,ESE,119,0.0,0.0,74,0.00,,---,0.00,VWS V15.00,2013-06-23 11:10:00,
2013-06-23 07:11:00,76.8,67.9,30.21,SW,235,0.0,0.0,74,0.00,,---,0.00,VWS V14.01,2013-06-23 11:11:00,
2013-06-23 07:12:00,73.6,65.2,30.18,ESE,120,0.0,0.0,75,0.00,,---,0.00,VWS V15.00,2013-06-23 11:12:00,
2013-06-23 07:13:00,73.6,65.2,30.18,ESE,119,0.0,0.0,75,0.00,,---,0.00,VWS V15.00,2013-06-23 11:13:00,
2013-06-23 07:14:00,73.4,65.0,30.18,ESE,120,0.0,0.0,75,0.00,,---,0.00,VWS V15.00,2013-06-23 11:14:00,
2013-06-23 07:15:00,73.4,65.0,30.18,ESE,119,0.0,0.0,75,0.00,,---,0.00,VWS V15.00,2013-06-23 11:15:00,
2013-06-23 07:16:00,78.1,65.8,30.21,SW,235,0.0,0.0,66,0.00,,---,0.00,VWS V14.01,2013-06-23 11:16:00,
2013-06-23 07:17:00,73.4,65.0,30.18,ESE,119,0.0,0.0,75,0.00,,---,0.00,VWS V15.00,2013-06-23 11:17:00,
2013-06-23 07:18:00,73.4,65.0,30.18,ESE,119,0.0,0.0,75,0.00,,---,0.00,VWS V15.00,2013-06-23 11:18:00,
2013-06-23 07:19:00,73.4,65.0,30.18,ESE,119,0.0,0.0,75,0.00,,---,0.00,VWS V15.00,2013-06-23 11:19:00,
2013-06-23 07:20:00,73.4,65.0,30.18,ESE,119,0.0,0.0,75,0.00,,---,0.00,VWS V15.00,2013-06-23 11:20:00,
2013-06-23 07:21:00,78.1,62.6,30.21,SW,235,2.7,2.7,59,0.00,,---,0.00,VWS V14.01,2013-06-23 11:21:00,
2013-06-23 07:22:00,73.6,67.0,30.18,ESE,119,0.0,0.0,80,0.00,,---,0.00,VWS V15.00,2013-06-23 11:22:00,
2013-06-23 07:23:00,73.8,67.6,30.18,ESE,119,0.0,0.0,81,0.00,,---,0.00,VWS V15.00,2013-06-23 11:23:00,
2013-06-23 07:24:00,73.8,67.6,30.18,ESE,119,0.0,0.0,81,0.00,,---,0.00,VWS V15.00,2013-06-23 11:24:00,
2013-06-23 07:25:00,73.6,67.0,30.18,ESE,119,0.0,0.0,80,0.00,,---,0.00,VWS V15.00,2013-06-23 11:25:00,
2013-06-23 07:26:00,77.7,57.6,30.21,SW,233,3.1,3.1,50,0.00,,---,0.00,VWS V14.01,2013-06-23 11:26:00,
2013-06-23 07:27:00,73.6,67.0,30.18,ESE,119,0.0,0.0,80,0.00,,---,0.00,VWS V15.00,2013-06-23 11:27:00,
2013-06-23 07:28:00,73.6,67.0,30.18,ESE,119,0.0,0.0,80,0.00,,---,0.00,VWS V15.00,2013-06-23 11:28:00,
2013-06-23 07:29:00,73.6,67.0,30.18,ESE,119,0.0,0.0,80,0.00,,---,0.00,VWS V15.00,2013-06-23 11:29:00,
2013-06-23 07:30:00,73.6,67.4,30.18,ESE,119,0.0,0.0,81,0.00,,---,0.00,VWS V15.00,2013-06-23 11:30:00,
2013-06-23 07:31:00,78.1,59.6,30.21,SW,232,0.0,0.0,53,0.00,,---,0.00,VWS V14.01,2013-06-23 11:31:00,
2013-06-23 07:32:00,73.6,67.0,30.18,ESE,119,0.0,0.0,80,0.00,,---,0.00,VWS V15.00,2013-06-23 11:32:00,
2013-06-23 07:33:00,73.6,67.0,30.18,ESE,119,0.0,0.0,80,0.00,,---,0.00,VWS V15.00,2013-06-23 11:33:00,
2013-06-23 07:34:00,73.6,67.4,30.18,ESE,120,0.0,0.0,81,0.00,,---,0.00,VWS V15.00,2013-06-23 11:34:00,
2013-06-23 07:35:00,73.6,67.4,30.18,ESE,119,0.0,0.0,81,0.00,,---,0.00,VWS V15.00,2013-06-23 11:35:00,
2013-06-23 07:36:00,73.6,67.4,30.18,ESE,119,0.0,0.0,81,0.00,,---,0.00,VWS V15.00,2013-06-23 11:36:00,
2013-06-23 07:37:00,78.1,57.4,30.21,SW,233,0.0,0.0,49,0.00,,---,0.00,VWS V14.01,2013-06-23 11:37:00,
2013-06-23 07:38:00,73.6,67.4,30.18,ESE,119,0.0,0.0,81,0.00,,---,0.00,VWS V15.00,2013-06-23 11:38:00,
2013-06-23 07:39:00,73.6,67.4,30.18,ESE,119,0.0,0.0,81,0.00,,---,0.00,VWS V15.00,2013-06-23 11:39:00,
2013-06-23 07:40:00,73.6,67.4,30.18,ESE,119,0.0,0.0,81,0.00,,---,0.00,VWS V15.00,2013-06-23 11:40:00,
2013-06-23 07:41:00,73.6,67.4,30.18,ESE,120,0.0,0.0,81,0.00,,---,0.00,VWS V15.00,2013-06-23 11:41:00,
2013-06-23 07:42:00,78.1,56.8,30.21,SW,233,0.0,0.0,48,0.00,,---,0.00,VWS V14.01,2013-06-23 11:42:00,
2013-06-23 07:43:00,73.8,67.9,30.18,ESE,120,0.0,0.0,82,0.00,,---,0.00,VWS V15.00,2013-06-23 11:43:00,
2013-06-23 07:44:00,73.8,67.9,30.18,ESE,119,0.0,0.0,82,0.00,,---,0.00,VWS V15.00,2013-06-23 11:44:00,
2013-06-23 07:45:00,73.9,68.5,30.18,ESE,119,0.0,0.0,83,0.00,,---,0.00,VWS V15.00,2013-06-23 11:45:00,
2013-06-23 07:46:00,73.9,68.5,30.18,ESE,119,0.0,0.0,83,0.00,,---,0.00,VWS V15.00,2013-06-23 11:46:00,
2013-06-23 07:47:00,77.9,58.3,30.21,SW,233,0.0,0.0,51,0.00,,---,0.00,VWS V14.01,2013-06-23 11:47:00,
2013-06-23 07:48:00,73.9,68.5,30.21,ESE,119,0.0,0.0,83,0.00,,---,0.00,VWS V15.00,2013-06-23 11:48:00,
2013-06-23 07:49:00,73.9,68.5,30.21,ESE,119,0.0,0.0,83,0.00,,---,0.00,VWS V15.00,2013-06-23 11:49:00,
2013-06-23 07:50:00,73.9,68.5,30.21,ESE,119,0.0,0.0,83,0.00,,---,0.00,VWS V15.00,2013-06-23 11:50:00,
2013-06-23 07:51:00,74.3,69.2,30.21,ESE,119,0.0,0.0,84,0.00,,---,0.00,VWS V15.00,2013-06-23 11:51:00,
2013-06-23 07:52:00,77.5,59.6,30.21,SW,215,0.0,0.0,54,0.00,,---,0.00,VWS V14.01,2013-06-23 11:52:00,
2013-06-23 07:53:00,74.3,69.2,30.21,ESE,119,0.0,0.0,84,0.00,,---,0.00,VWS V15.00,2013-06-23 11:53:00,
2013-06-23 07:54:00,74.3,69.2,30.21,ESE,120,0.0,0.0,84,0.00,,---,0.00,VWS V15.00,2013-06-23 11:54:00,
2013-06-23 07:55:00,74.3,69.2,30.21,ESE,119,0.0,0.0,84,0.00,,---,0.00,VWS V15.00,2013-06-23 11:55:00,
2013-06-23 07:56:00,74.7,69.5,30.21,ESE,119,0.0,0.0,84,0.00,,---,0.00,VWS V15.00,2013-06-23 11:56:00,
2013-06-23 07:57:00,76.3,61.4,30.21,ESE,123,5.8,5.8,60,0.08,,---,0.08,VWS V14.01,2013-06-23 11:57:00,
2013-06-23 07:58:00,74.8,70.0,30.21,ESE,120,0.0,0.0,85,0.00,,---,0.00,VWS V15.00,2013-06-23 11:58:00,
2013-06-23 07:59:00,75.0,70.2,30.21,ESE,120,0.0,0.0,85,0.00,,---,0.00,VWS V15.00,2013-06-23 11:59:00,
2013-06-23 08:00:00,75.0,70.6,30.21,ESE,120,0.0,0.0,86,0.00,,---,0.00,VWS V15.00,2013-06-23 12:00:00,
2013-06-23 08:01:00,75.0,70.6,30.21,ESE,119,0.0,0.0,86,0.00,,---,0.00,VWS V15.00,2013-06-23 12:01:00,
2013-06-23 08:02:00,75.4,63.2,30.21,ESE,116,0.0,0.0,66,0.24,,---,0.24,VWS V14.01,2013-06-23 12:02:00,
2013-06-23 08:03:00,75.0,70.6,30.21,ESE,120,0.0,0.0,86,0.00,,---,0.00,VWS V15.00,2013-06-23 12:03:00,
2013-06-23 08:04:00,75.0,70.6,30.21,ESE,120,0.0,0.0,86,0.00,,---,0.00,VWS V15.00,2013-06-23 12:04:00,
2013-06-23 08:05:00,75.0,70.6,30.21,WSW,251,0.0,0.0,86,0.00,,---,0.00,VWS V15.00,2013-06-23 12:05:00,
2013-06-23 08:06:00,75.7,69.1,30.21,WSW,239,3.1,3.1,80,0.00,,---,0.00,VWS V15.00,2013-06-23 12:06:00,
2013-06-23 08:07:00,76.6,65.7,30.21,SW,225,0.0,0.0,69,0.24,,---,0.24,VWS V14.01,2013-06-23 12:07:00,
2013-06-23 08:08:00,76.3,68.9,30.21,WSW,239,3.1,3.1,78,0.00,,---,0.00,VWS V15.00,2013-06-23 12:08:00,
2013-06-23 08:09:00,76.6,68.1,30.21,SW,235,0.0,3.1,75,0.00,,---,0.00,VWS V15.00,2013-06-23 12:09:00,
2013-06-23 08:10:00,76.8,67.9,30.21,SW,235,0.0,0.0,74,0.00,,---,0.00,VWS V15.00,2013-06-23 12:10:00,
2013-06-23 08:11:00,76.8,67.9,30.21,SW,235,0.0,0.0,74,0.00,,---,0.00,VWS V15.00,2013-06-23 12:11:00,
2013-06-23 08:12:00,76.6,64.4,30.21,WSW,245,0.0,0.0,66,0.24,,---,0.24,VWS V14.01,2013-06-23 12:12:00,
2013-06-23 08:13:00,77.5,67.4,30.21,SW,235,0.0,0.0,71,0.00,,---,0.00,VWS V15.00,2013-06-23 12:13:00,
2013-06-23 08:14:00,77.5,67.4,30.21,SW,235,0.0,0.0,71,0.00,,---,0.00,VWS V15.00,2013-06-23 12:14:00,
2013-06-23 08:15:00,77.5,67.4,30.21,SW,235,0.0,0.0,71,0.00,,---,0.00,VWS V15.00,2013-06-23 12:15:00,
2013-06-23 08:16:00,78.1,65.8,30.21,SW,235,0.0,0.0,66,0.00,,---,0.00,VWS V15.00,2013-06-23 12:16:00,
2013-06-23 08:17:00,80.4,58.4,30.21,WSW,252,0.0,0.0,47,0.24,,---,0.24,VWS V14.01,2013-06-23 12:17:00,
2013-06-23 08:18:00,78.1,65.8,30.21,SW,235,0.0,0.0,66,0.00,,---,0.00,VWS V15.00,2013-06-23 12:18:00,
2013-06-23 08:19:00,78.1,62.6,30.21,SW,235,0.0,0.0,59,0.00,,---,0.00,VWS V15.00,2013-06-23 12:19:00,
2013-06-23 08:20:00,78.1,62.6,30.21,SW,235,0.0,0.0,59,0.00,,---,0.00,VWS V15.00,2013-06-23 12:20:00,
2013-06-23 08:21:00,78.1,62.6,30.21,SW,235,2.7,2.7,59,0.00,,---,0.00,VWS V15.00,2013-06-23 12:21:00,
2013-06-23 08:22:00,80.8,56.2,30.21,NW,307,0.0,0.0,43,0.24,,---,0.24,VWS V14.01,2013-06-23 12:22:00,
2013-06-23 08:23:00,77.7,57.6,30.21,WSW,239,0.0,0.0,50,0.00,,---,0.00,VWS V15.00,2013-06-23 12:23:00,
2013-06-23 08:24:00,77.7,57.6,30.21,WSW,239,0.0,0.0,50,0.00,,---,0.00,VWS V15.00,2013-06-23 12:24:00,
2013-06-23 08:25:00,77.7,57.6,30.21,WSW,239,0.0,0.0,50,0.00,,---,0.00,VWS V15.00,2013-06-23 12:25:00,
2013-06-23 08:26:00,77.7,57.6,30.21,SW,233,2.7,2.7,50,0.00,,---,0.00,VWS V15.00,2013-06-23 12:26:00,
2013-06-23 08:27:00,81.5,58.8,30.21,North,353,0.0,0.0,46,0.24,,---,0.24,VWS V14.01,2013-06-23 12:27:00,
2013-06-23 08:28:00,77.9,59.4,30.21,SW,233,0.0,0.0,53,0.00,,---,0.00,VWS V15.00,2013-06-23 12:28:00,
2013-06-23 08:29:00,77.9,59.4,30.21,SW,233,0.0,0.0,53,0.00,,---,0.00,VWS V15.00,2013-06-23 12:29:00,
2013-06-23 08:30:00,77.9,59.4,30.21,SW,232,0.0,0.0,53,0.00,,---,0.00,VWS V15.00,2013-06-23 12:30:00,
2013-06-23 08:31:00,77.9,59.4,30.21,SW,232,0.0,0.0,53,0.00,,---,0.00,VWS V15.00,2013-06-23 12:31:00,
2013-06-23 08:32:00,78.1,59.6,30.21,SW,232,0.0,0.0,53,0.00,,---,0.00,VWS V15.00,2013-06-23 12:32:00,
2013-06-23 08:33:00,83.1,55.6,30.21,NE,44,0.0,0.0,39,0.24,,---,0.24,VWS V14.01,2013-06-23 12:33:00,
2013-06-23 08:34:00,77.9,57.8,30.21,SW,233,0.0,0.0,50,0.00,,---,0.00,VWS V15.00,2013-06-23 12:34:00,
2013-06-23 08:35:00,77.9,57.8,30.21,SW,233,0.0,0.0,50,0.00,,---,0.00,VWS V15.00,2013-06-23 12:35:00,
2013-06-23 08:36:00,78.1,57.4,30.21,SW,233,0.0,0.0,49,0.00,,---,0.00,VWS V15.00,2013-06-23 12:36:00,
2013-06-23 08:37:00,78.1,57.4,30.21,SW,233,0.0,0.0,49,0.00,,---,0.00,VWS V15.00,2013-06-23 12:37:00,
2013-06-23 08:38:00,84.2,60.6,30.21,NE,44,0.0,0.0,45,0.24,,---,0.24,VWS V14.01,2013-06-23 12:38:00,
2013-06-23 08:39:00,78.1,57.4,30.21,SW,233,0.0,0.0,49,0.00,,---,0.00,VWS V15.00,2013-06-23 12:39:00,
2013-06-23 08:40:00,78.1,57.4,30.21,SW,233,0.0,0.0,49,0.00,,---,0.00,VWS V15.00,2013-06-23 12:40:00,
2013-06-23 08:41:00,78.1,56.8,30.21,SW,233,0.0,0.0,48,0.00,,---,0.00,VWS V15.00,2013-06-23 12:41:00,
2013-06-23 08:42:00,78.1,56.8,30.21,SW,233,0.0,0.0,48,0.00,,---,0.00,VWS V15.00,2013-06-23 12:42:00,
2013-06-23 08:43:00,84.7,52.5,30.21,ENE,72,2.7,2.7,33,0.24,,---,0.24,VWS V14.01,2013-06-23 12:43:00,
2013-06-23 08:44:00,78.1,56.8,30.21,SW,233,0.0,0.0,48,0.00,,---,0.00,VWS V15.00,2013-06-23 12:44:00,
2013-06-23 08:45:00,77.9,58.9,30.21,SW,233,0.0,0.0,52,0.00,,---,0.00,VWS V15.00,2013-06-23 12:45:00,
2013-06-23 08:46:00,77.9,58.3,30.21,SW,233,0.0,0.0,51,0.00,,---,0.00,VWS V15.00,2013-06-23 12:46:00,
2013-06-23 08:47:00,77.9,58.3,30.21,SW,232,0.0,0.0,51,0.00,,---,0.00,VWS V15.00,2013-06-23 12:47:00,
2013-06-23 08:48:00,87.6,53.3,30.21,ENE,71,2.2,2.2,31,0.24,,---,0.24,VWS V14.01,2013-06-23 12:48:00,
2013-06-23 08:49:00,77.7,59.2,30.21,SW,233,0.0,0.0,53,0.00,,---,0.00,VWS V15.00,2013-06-23 12:49:00,
2013-06-23 08:50:00,77.7,59.2,30.21,SW,233,0.0,0.0,53,0.00,,---,0.00,VWS V15.00,2013-06-23 12:50:00,
2013-06-23 08:51:00,77.5,59.6,30.21,SW,233,0.0,0.0,54,0.00,,---,0.00,VWS V15.00,2013-06-23 12:51:00,
2013-06-23 08:52:00,77.5,59.6,30.21,SW,215,0.0,0.0,54,0.00,,---,0.00,VWS V15.00,2013-06-23 12:52:00,
2013-06-23 08:53:00,88.7,54.2,30.21,ENE,78,2.2,2.7,31,0.24,,---,0.24,VWS V14.01,2013-06-23 12:53:00,
2013-06-23 08:54:00,77.5,59.6,30.21,NE,50,3.1,3.1,54,0.00,,---,0.00,VWS V15.00,2013-06-23 12:54:00,
2013-06-23 08:55:00,76.8,60.5,30.21,ESE,123,5.8,5.8,57,0.00,,---,0.00,VWS V15.00,2013-06-23 12:55:00,
2013-06-23 08:56:00,76.3,61.4,30.21,ESE,123,5.8,5.8,60,0.00,,---,0.00,VWS V15.00,2013-06-23 12:56:00,
2013-06-23 08:57:00,76.3,61.4,30.21,ESE,123,5.8,5.8,60,0.08,,---,0.08,VWS V15.00,2013-06-23 12:57:00,
2013-06-23 08:58:00,89.1,52.7,30.21,East,86,0.0,0.0,29,0.16,,---,0.24,VWS V14.01,2013-06-23 12:58:00,
2013-06-23 08:59:00,75.4,62.8,30.21,SE,127,3.6,3.6,65,0.08,,---,0.08,VWS V15.00,2013-06-23 12:59:00,
2013-06-23 09:00:00,75.4,62.8,30.21,ESE,116,0.0,3.6,65,0.08,,---,0.08,VWS V15.00,2013-06-23 13:00:00,
2013-06-23 09:01:00,75.4,62.8,30.21,ESE,116,0.0,0.0,65,0.08,,---,0.08,VWS V15.00,2013-06-23 13:01:00,
2013-06-23 09:02:00,75.4,63.2,30.21,ESE,116,0.0,0.0,66,0.24,,---,0.24,VWS V15.00,2013-06-23 13:02:00,
2013-06-23 09:03:00,90.7,54.1,30.24,ENE,69,0.0,0.0,29,0.00,,---,0.24,VWS V14.01,2013-06-23 13:03:00,
2013-06-23 09:04:00,75.4,63.2,30.21,SW,223,0.0,0.0,66,0.24,,---,0.24,VWS V15.00,2013-06-23 13:04:00,
2013-06-23 09:05:00,76.5,65.1,30.21,SW,224,0.0,0.0,68,0.24,,---,0.24,VWS V15.00,2013-06-23 13:05:00,
2013-06-23 09:06:00,76.5,65.1,30.21,SW,225,0.0,0.0,68,0.24,,---,0.24,VWS V15.00,2013-06-23 13:06:00,
2013-06-23 09:07:00,76.6,65.7,30.21,SW,225,0.0,0.0,69,0.24,,---,0.24,VWS V15.00,2013-06-23 13:07:00,
2013-06-23 09:08:00,90.5,52.0,30.24,ENE,70,0.0,0.0,27,0.00,,---,0.24,VWS V14.01,2013-06-23 13:08:00,
2013-06-23 09:09:00,76.6,65.7,30.21,WSW,244,2.7,2.7,69,0.24,,---,0.24,VWS V15.00,2013-06-23 13:09:00,
2013-06-23 09:10:00,76.6,64.4,30.21,WSW,244,0.0,2.7,66,0.24,,---,0.24,VWS V15.00,2013-06-23 13:10:00,
2013-06-23 09:11:00,76.6,64.4,30.21,WSW,244,0.0,0.0,66,0.24,,---,0.24,VWS V15.00,2013-06-23 13:11:00,
2013-06-23 09:12:00,76.6,64.4,30.21,WSW,245,0.0,0.0,66,0.24,,---,0.24,VWS V15.00,2013-06-23 13:12:00,
2013-06-23 09:13:00,89.8,52.4,30.24,ESE,106,2.7,2.7,28,0.00,,---,0.24,VWS V14.01,2013-06-23 13:13:00,
2013-06-23 09:14:00,79.0,63.4,30.21,WSW,244,0.0,0.0,59,0.24,,---,0.24,VWS V15.00,2013-06-23 13:14:00,
2013-06-23 09:15:00,79.0,63.4,30.21,WSW,244,0.0,0.0,59,0.24,,---,0.24,VWS V15.00,2013-06-23 13:15:00,
2013-06-23 09:16:00,79.0,63.4,30.21,WSW,244,0.0,0.0,59,0.24,,---,0.24,VWS V15.00,2013-06-23 13:16:00,
2013-06-23 09:17:00,80.4,58.4,30.21,WSW,252,0.0,0.0,47,0.24,,---,0.24,VWS V15.00,2013-06-23 13:17:00,
2013-06-23 09:18:00,91.0,53.4,30.21,SE,129,0.0,0.0,28,0.00,,---,0.24,VWS V14.01,2013-06-23 13:18:00,
2013-06-23 09:19:00,79.5,59.8,30.21,West,270,0.0,0.0,51,0.24,,---,0.24,VWS V15.00,2013-06-23 13:19:00,
2013-06-23 09:20:00,80.2,61.6,30.21,West,270,0.0,0.0,53,0.24,,---,0.24,VWS V15.00,2013-06-23 13:20:00,
2013-06-23 09:21:00,80.2,61.6,30.21,NW,307,0.0,0.0,53,0.24,,---,0.24,VWS V15.00,2013-06-23 13:21:00,
2013-06-23 09:22:00,80.8,56.2,30.21,NW,307,0.0,0.0,43,0.24,,---,0.24,VWS V15.00,2013-06-23 13:22:00,
2013-06-23 09:23:00,80.8,56.2,30.21,NW,307,0.0,0.0,43,0.24,,---,0.24,VWS V15.00,2013-06-23 13:23:00,
2013-06-23 09:24:00,92.8,53.0,30.21,ESE,119,4.0,4.0,26,0.00,,---,0.24,VWS V14.01,2013-06-23 13:24:00,
2013-06-23 09:25:00,81.5,58.8,30.21,NW,307,0.0,0.0,46,0.24,,---,0.24,VWS V15.00,2013-06-23 13:25:00,
2013-06-23 09:26:00,81.5,58.8,30.21,NW,307,0.0,0.0,46,0.24,,---,0.24,VWS V15.00,2013-06-23 13:26:00,
2013-06-23 09:27:00,81.5,58.8,30.21,NW,307,0.0,0.0,46,0.24,,---,0.24,VWS V15.00,2013-06-23 13:27:00,
2013-06-23 09:28:00,81.5,58.8,30.21,NNE,29,0.0,0.0,46,0.24,,---,0.24,VWS V15.00,2013-06-23 13:28:00,
2013-06-23 09:29:00,92.7,49.5,30.21,SE,129,0.0,4.9,23,0.00,,---,0.24,VWS V14.01,2013-06-23 13:29:00,
2013-06-23 09:30:00,81.5,58.8,30.21,NE,55,0.0,0.0,46,0.24,,---,0.24,VWS V15.00,2013-06-23 13:30:00,
2013-06-23 09:31:00,81.5,58.8,30.21,NE,56,0.0,0.0,46,0.24,,---,0.24,VWS V15.00,2013-06-23 13:31:00,
2013-06-23 09:32:00,81.5,58.8,30.21,NE,56,0.0,0.0,46,0.24,,---,0.24,VWS V15.00,2013-06-23 13:32:00,
2013-06-23 09:33:00,83.1,55.6,30.21,NE,44,0.0,0.0,39,0.24,,---,0.24,VWS V15.00,2013-06-23 13:33:00,
2013-06-23 09:34:00,94.3,52.0,30.21,SE,140,3.1,5.8,24,0.00,,---,0.24,VWS V14.01,2013-06-23 13:34:00,
2013-06-23 09:35:00,84.2,60.6,30.21,NE,44,0.0,0.0,45,0.24,,---,0.24,VWS V15.00,2013-06-23 13:35:00,
2013-06-23 09:36:00,84.2,60.6,30.21,NE,44,0.0,0.0,45,0.24,,---,0.24,VWS V15.00,2013-06-23 13:36:00,
2013-06-23 09:37:00,84.2,60.6,30.21,NE,44,0.0,0.0,45,0.24,,---,0.24,VWS V15.00,2013-06-23 13:37:00,
2013-06-23 09:38:00,84.2,60.6,30.21,NE,44,0.0,0.0,45,0.24,,---,0.24,VWS V15.00,2013-06-23 13:38:00,
2013-06-23 09:39:00,94.3,48.4,30.21,SE,129,8.1,8.1,21,0.00,,---,0.24,VWS V14.01,2013-06-23 13:39:00,
2013-06-23 09:40:00,85.3,55.3,30.21,ENE,65,0.0,0.0,36,0.24,,---,0.24,VWS V15.00,2013-06-23 13:40:00,
2013-06-23 09:41:00,85.3,55.3,30.21,ENE,65,0.0,0.0,36,0.24,,---,0.24,VWS V15.00,2013-06-23 13:41:00,
2013-06-23 09:42:00,84.6,53.9,30.21,ENE,77,2.7,2.7,35,0.24,,---,0.24,VWS V15.00,2013-06-23 13:42:00,
2013-06-23 09:43:00,84.7,52.5,30.21,ENE,72,2.7,2.7,33,0.24,,---,0.24,VWS V15.00,2013-06-23 13:43:00,
2013-06-23 09:44:00,94.3,48.4,30.21,East,101,7.6,7.6,21,0.00,,---,0.24,VWS V14.01,2013-06-23 13:44:00,
2013-06-23 09:45:00,86.0,56.0,30.21,ENE,71,0.0,0.0,36,0.24,,---,0.24,VWS V15.00,2013-06-23 13:45:00,
2013-06-23 09:46:00,86.0,56.0,30.21,ENE,72,2.7,2.7,36,0.24,,---,0.24,VWS V15.00,2013-06-23 13:46:00,
2013-06-23 09:47:00,87.3,53.8,30.21,ENE,71,0.0,2.7,32,0.24,,---,0.24,VWS V15.00,2013-06-23 13:47:00,
2013-06-23 09:48:00,87.6,53.3,30.21,ENE,71,2.2,2.2,31,0.24,,---,0.24,VWS V15.00,2013-06-23 13:48:00,
2013-06-23 09:49:00,90.3,49.8,30.24,SE,128,8.7,8.7,25,0.00,,---,0.24,VWS V14.01,2013-06-23 13:49:00,
2013-06-23 09:50:00,88.2,55.5,30.21,ENE,71,0.0,0.0,33,0.24,,---,0.24,VWS V15.00,2013-06-23 13:50:00,
2013-06-23 09:51:00,88.5,54.1,30.21,ENE,71,0.0,0.0,31,0.24,,---,0.24,VWS V15.00,2013-06-23 13:51:00,
2013-06-23 09:52:00,88.7,54.2,30.21,ENE,78,2.7,2.7,31,0.24,,---,0.24,VWS V15.00,2013-06-23 13:52:00,
2013-06-23 09:53:00,88.7,54.2,30.21,ENE,78,2.2,2.7,31,0.24,,---,0.24,VWS V15.00,2013-06-23 13:53:00,
2013-06-23 09:54:00,88.0,50.8,30.24,SE,137,8.7,8.7,28,0.00,,---,0.24,VWS V14.01,2013-06-23 13:54:00,
2013-06-23 09:55:00,89.4,53.0,30.21,ENE,78,0.0,0.0,29,0.24,,---,0.24,VWS V15.00,2013-06-23 13:55:00,
2013-06-23 09:56:00,89.4,53.0,30.21,ENE,78,0.0,0.0,29,0.24,,---,0.24,VWS V15.00,2013-06-23 13:56:00,
2013-06-23 09:57:00,89.1,52.7,30.21,ENE,78,0.0,0.0,29,0.24,,---,0.24,VWS V15.00,2013-06-23 13:57:00,
2013-06-23 09:58:00,89.1,52.7,30.21,East,86,0.0,0.0,29,0.16,,---,0.24,VWS V15.00,2013-06-23 13:58:00,
2013-06-23 09:59:00,90.9,46.8,30.24,SE,144,10.1,10.1,22,0.00,,---,0.24,VWS V14.01,2013-06-23 13:59:00,
2013-06-23 10:00:00,89.6,53.2,30.21,East,86,0.0,0.0,29,0.16,,---,0.24,VWS V15.00,2013-06-23 14:00:00,
2013-06-23 10:01:00,89.6,53.2,30.21,East,86,0.0,0.0,29,0.16,,---,0.24,VWS V15.00,2013-06-23 14:01:00,
2013-06-23 10:02:00,90.5,53.9,30.21,ENE,69,0.0,0.0,29,0.16,,---,0.24,VWS V15.00,2013-06-23 14:02:00,
2013-06-23 10:03:00,90.7,54.1,30.24,ENE,69,0.0,0.0,29,0.00,,---,0.24,VWS V15.00,2013-06-23 14:03:00,
2013-06-23 10:04:00,87.6,52.4,30.24,NE,50,3.6,3.6,30,0.04,,---,0.28,VWS V14.01,2013-06-23 14:04:00,
2013-06-23 10:05:00,90.9,57.0,30.24,East,82,2.2,2.2,32,0.00,,---,0.24,VWS V15.00,2013-06-23 14:05:00,
2013-06-23 10:06:00,90.9,57.0,30.24,SE,135,0.0,2.2,32,0.00,,---,0.24,VWS V15.00,2013-06-23 14:06:00,
2013-06-23 10:07:00,90.5,52.0,30.24,ENE,70,0.0,0.0,27,0.00,,---,0.24,VWS V15.00,2013-06-23 14:07:00,
2013-06-23 10:08:00,90.5,52.0,30.24,ENE,70,0.0,0.0,27,0.00,,---,0.24,VWS V15.00,2013-06-23 14:08:00,
2013-06-23 10:09:00,79.3,48.6,30.24,ESE,108,2.7,3.6,34,0.04,,---,0.28,VWS V14.01,2013-06-23 14:09:00,
2013-06-23 10:10:00,90.5,53.0,30.24,NE,49,2.7,2.7,28,0.00,,---,0.24,VWS V15.00,2013-06-23 14:10:00,
2013-06-23 10:11:00,90.5,53.0,30.24,ENE,65,2.7,2.7,28,0.00,,---,0.24,VWS V15.00,2013-06-23 14:11:00,
2013-06-23 10:12:00,90.5,53.0,30.24,East,84,0.0,2.7,28,0.00,,---,0.24,VWS V15.00,2013-06-23 14:12:00,
2013-06-23 10:13:00,89.8,52.4,30.24,ESE,106,2.7,2.7,28,0.00,,---,0.24,VWS V15.00,2013-06-23 14:13:00,
2013-06-23 10:14:00,83.1,58.3,30.24,South,177,2.7,2.7,43,0.04,,---,0.28,VWS V14.01,2013-06-23 14:14:00,
2013-06-23 10:15:00,89.8,52.4,30.24,ENE,62,2.2,2.2,28,0.00,,---,0.24,VWS V15.00,2013-06-23 14:15:00,
2013-06-23 10:16:00,90.1,53.6,30.24,ENE,69,0.0,2.2,29,0.00,,---,0.24,VWS V15.00,2013-06-23 14:16:00,
2013-06-23 10:17:00,90.1,53.6,30.21,ENE,69,3.1,3.6,29,0.00,,---,0.24,VWS V15.00,2013-06-23 14:17:00,
2013-06-23 10:18:00,91.0,53.4,30.21,SE,129,0.0,3.1,28,0.00,,---,0.24,VWS V15.00,2013-06-23 14:18:00,
2013-06-23 10:19:00,86.5,53.2,30.24,SE,124,6.3,6.3,32,0.04,,---,0.28,VWS V14.01,2013-06-23 14:19:00,
2013-06-23 10:20:00,91.0,53.4,30.21,NE,39,4.9,4.9,28,0.00,,---,0.24,VWS V15.00,2013-06-23 14:20:00,
2013-06-23 10:21:00,91.0,53.4,30.21,NE,55,4.0,4.9,28,0.00,,---,0.24,VWS V15.00,2013-06-23 14:21:00,
2013-06-23 10:22:00,93.0,54.1,30.21,ESE,117,5.4,5.4,27,0.00,,---,0.24,VWS V15.00,2013-06-23 14:22:00,
2013-06-23 10:23:00,93.0,54.1,30.21,ESE,119,4.0,5.4,27,0.00,,---,0.24,VWS V15.00,2013-06-23 14:23:00,
2013-06-23 10:24:00,90.5,52.0,30.24,East,93,4.9,8.1,27,0.04,,---,0.28,VWS V14.01,2013-06-23 14:24:00,
2013-06-23 10:25:00,92.3,52.5,30.21,East,95,4.0,4.0,26,0.00,,---,0.24,VWS V15.00,2013-06-23 14:25:00,
2013-06-23 10:26:00,92.3,52.5,30.21,East,95,4.0,4.0,26,0.00,,---,0.24,VWS V15.00,2013-06-23 14:26:00,
2013-06-23 10:27:00,92.3,52.5,30.21,ESE,107,3.1,4.0,26,0.00,,---,0.24,VWS V15.00,2013-06-23 14:27:00,
2013-06-23 10:28:00,92.3,49.2,30.21,SE,129,4.9,4.9,23,0.00,,---,0.24,VWS V15.00,2013-06-23 14:28:00,
2013-06-23 10:29:00,92.7,49.5,30.21,SE,130,0.0,4.9,23,0.00,,---,0.24,VWS V15.00,2013-06-23 14:29:00,
2013-06-23 10:30:00,89.8,50.4,30.24,SSE,149,5.4,5.4,26,0.04,,---,0.28,VWS V14.01,2013-06-23 14:30:00,
2013-06-23 10:31:00,93.7,48.0,30.21,East,91,3.6,3.6,21,0.00,,---,0.24,VWS V15.00,2013-06-23 14:31:00,
2013-06-23 10:32:00,93.7,48.0,30.21,East,100,5.8,5.8,21,0.00,,---,0.24,VWS V15.00,2013-06-23 14:32:00,
2013-06-23 10:33:00,93.6,47.8,30.21,East,100,5.8,5.8,21,0.00,,---,0.24,VWS V15.00,2013-06-23 14:33:00,
2013-06-23 10:34:00,94.3,52.0,30.21,SE,140,3.1,5.8,24,0.00,,---,0.24,VWS V15.00,2013-06-23 14:34:00,
2013-06-23 10:35:00,88.2,51.0,30.21,SSE,149,5.4,5.4,28,0.04,,---,0.28,VWS V14.01,2013-06-23 14:35:00,
2013-06-23 10:36:00,94.3,48.4,30.21,ESE,113,4.5,4.5,21,0.00,,---,0.24,VWS V15.00,2013-06-23 14:36:00,
2013-06-23 10:37:00,94.3,48.4,30.21,ESE,113,4.5,4.5,21,0.00,,---,0.24,VWS V15.00,2013-06-23 14:37:00,
2013-06-23 10:38:00,94.3,48.4,30.21,SE,129,8.1,8.1,21,0.00,,---,0.24,VWS V15.00,2013-06-23 14:38:00,
2013-06-23 10:39:00,94.3,48.4,30.21,SE,129,8.1,8.1,21,0.00,,---,0.24,VWS V15.00,2013-06-23 14:39:00,
2013-06-23 10:40:00,92.7,48.3,30.21,South,177,5.8,5.8,22,0.04,,---,0.28,VWS V14.01,2013-06-23 14:40:00,
2013-06-23 10:41:00,93.9,48.1,30.21,SSE,152,5.8,8.1,21,0.00,,---,0.24,VWS V15.00,2013-06-23 14:41:00,
2013-06-23 10:42:00,93.9,48.1,30.21,ESE,104,4.9,5.8,21,0.00,,---,0.24,VWS V15.00,2013-06-23 14:42:00,
2013-06-23 10:43:00,94.3,48.4,30.21,SE,134,5.8,5.8,21,0.00,,---,0.24,VWS V15.00,2013-06-23 14:43:00,
2013-06-23 10:44:00,94.3,48.4,30.21,East,101,7.6,7.6,21,0.00,,---,0.24,VWS V15.00,2013-06-23 14:44:00,
2013-06-23 10:45:00,94.5,52.1,30.21,ESE,123,5.8,8.1,24,0.04,,---,0.28,VWS V14.01,2013-06-23 14:45:00,
2013-06-23 10:46:00,92.8,45.9,30.21,East,101,4.0,4.0,20,0.00,,---,0.24,VWS V15.00,2013-06-23 14:46:00,
2013-06-23 10:47:00,91.6,48.6,30.21,ESE,110,3.1,4.0,23,0.00,,---,0.24,VWS V15.00,2013-06-23 14:47:00,
2013-06-23 10:48:00,90.3,49.8,30.24,ESE,110,3.1,3.1,25,0.00,,---,0.24,VWS V15.00,2013-06-23 14:48:00,
2013-06-23 10:49:00,90.3,49.8,30.24,SE,128,8.7,8.7,25,0.00,,---,0.24,VWS V15.00,2013-06-23 14:49:00,
2013-06-23 10:50:00,94.6,46.0,30.24,East,89,8.1,8.1,19,0.04,,---,0.28,VWS V14.01,2013-06-23 14:50:00,
2013-06-23 10:51:00,89.2,49.9,30.24,SE,127,3.6,3.6,26,0.00,,---,0.24,VWS V15.00,2013-06-23 14:51:00,
2013-06-23 10:52:00,88.3,51.1,30.24,ESE,114,3.1,3.6,28,0.00,,---,0.24,VWS V15.00,2013-06-23 14:52:00,
2013-06-23 10:53:00,88.0,50.8,30.24,East,94,3.6,4.0,28,0.00,,---,0.24,VWS V15.00,2013-06-23 14:53:00,
2013-06-23 10:54:00,88.0,50.8,30.24,SE,137,8.7,8.7,28,0.00,,---,0.24,VWS V15.00,2013-06-23 14:54:00,
2013-06-23 10:55:00,91.0,47.0,30.24,South,185,6.7,6.7,22,0.04,,---,0.28,VWS V14.01,2013-06-23 14:55:00,
2013-06-23 10:56:00,88.3,51.1,30.24,ESE,123,4.9,8.3,28,0.00,,---,0.24,VWS V15.00,2013-06-23 14:56:00,
2013-06-23 10:57:00,89.6,52.2,30.24,ESE,123,4.9,4.9,28,0.00,,---,0.24,VWS V15.00,2013-06-23 14:57:00,
2013-06-23 10:58:00,89.6,52.2,30.24,SE,146,8.3,8.3,28,0.00,,---,0.24,VWS V15.00,2013-06-23 14:58:00,
2013-06-23 10:59:00,90.9,46.8,30.24,SE,144,10.1,10.1,22,0.00,,---,0.24,VWS V15.00,2013-06-23 14:59:00,
2013-06-23 11:00:00,91.0,50.4,30.24,ESE,116,5.8,5.8,25,0.04,,---,0.28,VWS V14.01,2013-06-23 15:00:00,
2013-06-23 11:01:00,87.6,52.4,30.24,SE,125,6.7,6.7,30,0.00,,---,0.24,VWS V15.00,2013-06-23 15:01:00,
2013-06-23 11:02:00,87.6,52.4,30.24,SE,142,5.4,6.7,30,0.04,,---,0.28,VWS V15.00,2013-06-23 15:02:00,
2013-06-23 11:03:00,87.6,52.4,30.24,SE,142,5.4,5.4,30,0.04,,---,0.28,VWS V15.00,2013-06-23 15:03:00,
2013-06-23 11:04:00,87.6,52.4,30.24,NE,50,3.6,5.4,30,0.04,,---,0.28,VWS V15.00,2013-06-23 15:04:00,
2013-06-23 11:05:00,93.4,48.9,30.24,ESE,114,8.1,8.1,22,0.00,,---,0.28,VWS V14.01,2013-06-23 15:05:00,
2013-06-23 11:06:00,79.3,48.6,30.24,NNE,25,0.0,0.0,34,0.04,,---,0.28,VWS V15.00,2013-06-23 15:06:00,
2013-06-23 11:07:00,79.3,48.6,30.24,East,86,3.6,3.6,34,0.04,,---,0.28,VWS V15.00,2013-06-23 15:07:00,
2013-06-23 11:08:00,79.3,48.6,30.24,East,86,3.6,3.6,34,0.04,,---,0.28,VWS V15.00,2013-06-23 15:08:00,
2013-06-23 11:09:00,79.3,48.6,30.24,ESE,108,2.7,3.6,34,0.04,,---,0.28,VWS V15.00,2013-06-23 15:09:00,
2013-06-23 11:10:00,94.1,45.6,30.24,East,93,8.1,8.1,19,0.00,,---,0.28,VWS V14.01,2013-06-23 15:10:00,
2013-06-23 11:11:00,80.8,59.3,30.24,South,181,2.7,2.7,48,0.04,,---,0.28,VWS V15.00,2013-06-23 15:11:00,
2013-06-23 11:12:00,80.8,59.3,30.24,South,177,2.7,2.7,48,0.04,,---,0.28,VWS V15.00,2013-06-23 15:12:00,
2013-06-23 11:13:00,82.4,59.0,30.24,South,177,2.7,2.7,45,0.04,,---,0.28,VWS V15.00,2013-06-23 15:13:00,
2013-06-23 11:14:00,83.1,58.3,30.24,South,177,2.7,2.7,43,0.04,,---,0.28,VWS V15.00,2013-06-23 15:14:00,
2013-06-23 11:15:00,94.5,45.9,30.24,SSE,165,4.9,4.9,19,0.00,,---,0.28,VWS V14.01,2013-06-23 15:15:00,
2013-06-23 11:16:00,83.7,56.1,30.24,South,178,3.1,4.0,39,0.04,,---,0.28,VWS V15.00,2013-06-23 15:16:00,
2013-06-23 11:17:00,86.2,54.5,30.24,South,178,3.1,3.1,34,0.04,,---,0.28,VWS V15.00,2013-06-23 15:17:00,
2013-06-23 11:18:00,86.5,53.2,30.24,SE,124,6.3,6.3,32,0.04,,---,0.28,VWS V15.00,2013-06-23 15:18:00,
2013-06-23 11:19:00,86.5,53.2,30.24,SE,124,6.3,6.3,32,0.04,,---,0.28,VWS V15.00,2013-06-23 15:19:00,
2013-06-23 11:20:00,86.5,53.2,30.24,SE,129,5.4,6.3,32,0.04,,---,0.28,VWS V15.00,2013-06-23 15:20:00,
2013-06-23 11:21:00,94.6,44.6,30.24,SE,138,5.8,11.9,18,0.00,,---,0.28,VWS V14.01,2013-06-23 15:21:00,
2013-06-23 11:22:00,89.8,51.4,30.24,SE,130,8.1,8.1,27,0.04,,---,0.28,VWS V15.00,2013-06-23 15:22:00,
2013-06-23 11:23:00,90.5,52.0,30.24,SE,130,8.1,8.1,27,0.04,,---,0.28,VWS V15.00,2013-06-23 15:23:00,
2013-06-23 11:24:00,90.5,52.0,30.24,SE,130,8.1,8.1,27,0.04,,---,0.28,VWS V15.00,2013-06-23 15:24:00,
2013-06-23 11:25:00,90.5,52.0,30.24,East,93,4.9,8.1,27,0.04,,---,0.28,VWS V15.00,2013-06-23 15:25:00,
2013-06-23 11:26:00,94.3,44.3,30.24,SE,142,8.1,8.1,18,0.00,,---,0.28,VWS V14.01,2013-06-23 15:26:00,
2013-06-23 11:27:00,90.7,52.1,30.24,South,171,6.3,6.3,27,0.04,,---,0.28,VWS V15.00,2013-06-23 15:27:00,
2013-06-23 11:28:00,89.8,50.4,30.24,ESE,119,6.3,6.3,26,0.04,,---,0.28,VWS V15.00,2013-06-23 15:28:00,
2013-06-23 11:29:00,89.8,50.4,30.24,SSE,149,5.4,6.3,26,0.04,,---,0.28,VWS V15.00,2013-06-23 15:29:00,
2013-06-23 11:30:00,88.9,48.5,30.24,SSE,149,5.4,5.4,25,0.04,,---,0.28,VWS V15.00,2013-06-23 15:30:00,
2013-06-23 11:31:00,94.6,44.6,30.24,South,189,4.0,4.0,18,0.00,,---,0.28,VWS V14.01,2013-06-23 15:31:00,
2013-06-23 11:32:00,88.3,51.1,30.21,SSE,149,5.4,5.4,28,0.04,,---,0.28,VWS V15.00,2013-06-23 15:32:00,
2013-06-23 11:33:00,87.8,50.7,30.21,SSE,149,5.4,5.4,28,0.04,,---,0.28,VWS V15.00,2013-06-23 15:33:00,
2013-06-23 11:34:00,87.8,50.7,30.21,SSE,149,5.4,5.4,28,0.04,,---,0.28,VWS V15.00,2013-06-23 15:34:00,
2013-06-23 11:35:00,88.2,51.0,30.21,ESE,107,5.4,5.4,28,0.04,,---,0.28,VWS V15.00,2013-06-23 15:35:00,
2013-06-23 11:36:00,96.6,46.2,30.24,NE,42,3.1,5.8,18,0.00,,---,0.28,VWS V14.01,2013-06-23 15:36:00,
2013-06-23 11:37:00,88.2,51.0,30.21,ESE,114,3.6,5.4,28,0.04,,---,0.28,VWS V15.00,2013-06-23 15:37:00,
2013-06-23 11:38:00,88.2,51.0,30.21,SE,146,5.8,5.8,28,0.04,,---,0.28,VWS V15.00,2013-06-23 15:38:00,
2013-06-23 11:39:00,91.9,48.9,30.21,SE,146,5.8,5.8,23,0.04,,---,0.28,VWS V15.00,2013-06-23 15:39:00,
2013-06-23 11:40:00,92.7,48.3,30.21,South,177,5.8,5.8,22,0.04,,---,0.28,VWS V15.00,2013-06-23 15:40:00,
2013-06-23 11:41:00,95.0,44.9,30.24,East,91,10.5,10.5,18,0.00,,---,0.28,VWS V14.01,2013-06-23 15:41:00,
2013-06-23 11:42:00,93.7,46.7,30.21,SE,144,6.3,6.3,20,0.04,,---,0.28,VWS V15.00,2013-06-23 15:42:00,
2013-06-23 11:43:00,93.7,46.7,30.21,SE,146,4.0,6.3,20,0.04,,---,0.28,VWS V15.00,2013-06-23 15:43:00,
2013-06-23 11:44:00,94.5,52.1,30.21,SE,126,8.1,8.1,24,0.04,,---,0.28,VWS V15.00,2013-06-23 15:44:00,
2013-06-23 11:45:00,94.5,52.1,30.21,ESE,123,5.8,8.1,24,0.04,,---,0.28,VWS V15.00,2013-06-23 15:45:00,
2013-06-23 11:46:00,94.6,44.6,30.24,SSE,163,6.3,6.3,18,0.00,,---,0.28,VWS V14.01,2013-06-23 15:46:00,
2013-06-23 11:47:00,94.5,52.1,30.21,ESE,108,5.8,5.8,24,0.04,,---,0.28,VWS V15.00,2013-06-23 15:47:00,
2013-06-23 11:48:00,94.5,52.1,30.21,SE,132,8.1,8.1,24,0.04,,---,0.28,VWS V15.00,2013-06-23 15:48:00,
2013-06-23 11:49:00,95.2,46.5,30.21,East,91,6.3,8.1,19,0.04,,---,0.28,VWS V15.00,2013-06-23 15:49:00,
2013-06-23 11:50:00,94.6,46.0,30.24,East,89,8.1,8.1,19,0.04,,---,0.28,VWS V15.00,2013-06-23 15:50:00,
2013-06-23 11:51:00,95.0,44.9,30.24,SSE,158,7.6,7.6,18,0.00,,---,0.28,VWS V14.01,2013-06-23 15:51:00,
2013-06-23 11:52:00,93.9,45.4,30.24,East,89,8.1,8.1,19,0.04,,---,0.28,VWS V15.00,2013-06-23 15:52:00,
2013-06-23 11:53:00,93.9,45.4,30.24,SSE,149,7.6,8.1,19,0.04,,---,0.28,VWS V15.00,2013-06-23 15:53:00,
2013-06-23 11:54:00,91.0,47.0,30.24,South,185,6.7,7.6,22,0.04,,---,0.28,VWS V15.00,2013-06-23 15:54:00,
2013-06-23 11:55:00,91.0,47.0,30.24,South,185,6.7,6.7,22,0.04,,---,0.28,VWS V15.00,2013-06-23 15:55:00,
2013-06-23 11:56:00,94.5,45.9,30.24,SE,136,6.3,6.3,19,0.00,,---,0.28,VWS V14.01,2013-06-23 15:56:00,
2013-06-23 11:57:00,91.0,47.0,30.24,South,174,5.4,5.4,22,0.04,,---,0.28,VWS V15.00,2013-06-23 15:57:00,
2013-06-23 11:58:00,90.0,49.5,30.24,South,174,5.4,5.4,25,0.04,,---,0.28,VWS V15.00,2013-06-23 15:58:00,
2013-06-23 11:59:00,91.0,50.4,30.24,SE,139,5.8,5.8,25,0.04,,---,0.28,VWS V15.00,2013-06-23 15:59:00,
2013-06-23 12:00:00,91.0,50.4,30.24,ESE,116,5.8,5.8,25,0.04,,---,0.28,VWS V15.00,2013-06-23 16:00:00,
2013-06-23 12:01:00,91.8,46.3,30.24,ESE,116,5.8,5.8,21,0.04,,---,0.28,VWS V15.00,2013-06-23 16:01:00,
2013-06-23 12:02:00,94.1,44.2,30.24,ESE,120,7.2,7.2,18,0.00,,---,0.28,VWS V14.01,2013-06-23 16:02:00,
2013-06-23 12:03:00,91.8,45.0,30.24,SSW,209,8.3,8.3,20,0.00,,---,0.28,VWS V15.00,2013-06-23 16:03:00,
2013-06-23 12:04:00,93.4,48.9,30.24,ESE,114,8.1,8.3,22,0.00,,---,0.28,VWS V15.00,2013-06-23 16:04:00,
2013-06-23 12:05:00,93.4,48.9,30.24,ESE,114,8.1,8.1,22,0.00,,---,0.28,VWS V15.00,2013-06-23 16:05:00,
2013-06-23 12:06:00,93.9,45.4,30.24,ESE,114,8.1,8.1,19,0.00,,---,0.28,VWS V15.00,2013-06-23 16:06:00,
2013-06-23 12:07:00,94.1,47.0,30.24,East,81,6.3,6.3,20,0.00,,---,0.28,VWS V14.01,2013-06-23 16:07:00,
2013-06-23 12:08:00,93.9,45.4,30.24,ESE,114,8.1,8.1,19,0.00,,---,0.28,VWS V15.00,2013-06-23 16:08:00,
2013-06-23 12:09:00,93.9,45.4,30.24,East,93,8.1,8.1,19,0.00,,---,0.28,VWS V15.00,2013-06-23 16:09:00,
2013-06-23 12:10:00,94.1,45.6,30.24,East,93,8.1,8.1,19,0.00,,---,0.28,VWS V15.00,2013-06-23 16:10:00,
2013-06-23 12:11:00,94.1,45.6,30.24,ESE,107,6.3,8.1,19,0.00,,---,0.28,VWS V15.00,2013-06-23 16:11:00,
2013-06-23 12:12:00,94.8,46.2,30.24,ENE,61,6.3,8.7,19,0.00,,---,0.28,VWS V14.01,2013-06-23 16:12:00,
2013-06-23 12:13:00,94.1,47.0,30.24,ESE,105,5.4,6.3,20,0.00,,---,0.28,VWS V15.00,2013-06-23 16:13:00,
2013-06-23 12:14:00,94.1,47.0,30.24,ESE,105,5.4,5.4,20,0.00,,---,0.28,VWS V15.00,2013-06-23 16:14:00,
2013-06-23 12:15:00,94.5,45.9,30.24,SSE,165,4.9,5.4,19,0.00,,---,0.28,VWS V15.00,2013-06-23 16:15:00,
2013-06-23 12:16:00,95.2,49.1,30.24,SSE,165,4.9,4.9,21,0.00,,---,0.28,VWS V15.00,2013-06-23 16:16:00,
2013-06-23 12:17:00,93.9,46.8,30.24,SE,143,8.1,8.1,20,0.00,,---,0.28,VWS V14.01,2013-06-23 16:17:00,
2013-06-23 12:18:00,95.2,49.1,30.24,ESE,115,6.3,6.3,21,0.00,,---,0.28,VWS V15.00,2013-06-23 16:18:00,
2013-06-23 12:19:00,94.6,44.6,30.24,ESE,115,6.3,6.3,18,0.00,,---,0.28,VWS V15.00,2013-06-23 16:19:00,
2013-06-23 12:20:00,94.6,44.6,30.24,ESE,120,11.9,11.9,18,0.00,,---,0.28,VWS V15.00,2013-06-23 16:20:00,
2013-06-23 12:21:00,94.6,44.6,30.24,SSE,159,5.4,11.9,18,0.00,,---,0.28,VWS V15.00,2013-06-23 16:21:00,
2013-06-23 12:22:00,93.0,44.7,30.24,South,181,4.0,4.0,19,0.00,,---,0.28,VWS V14.01,2013-06-23 16:22:00,
2013-06-23 12:23:00,94.6,44.6,30.24,SSE,159,5.4,5.4,18,0.00,,---,0.28,VWS V15.00,2013-06-23 16:23:00,
2013-06-23 12:24:00,94.6,44.6,30.24,SE,142,8.1,8.1,18,0.00,,---,0.28,VWS V15.00,2013-06-23 16:24:00,
2013-06-23 12:25:00,94.3,44.3,30.24,SE,142,8.1,8.1,18,0.00,,---,0.28,VWS V15.00,2013-06-23 16:25:00,
2013-06-23 12:26:00,94.3,44.3,30.24,ESE,105,6.3,8.1,18,0.00,,---,0.28,VWS V15.00,2013-06-23 16:26:00,
2013-06-23 12:27:00,94.8,44.8,30.24,East,79,5.4,5.4,18,0.00,,---,0.28,VWS V14.01,2013-06-23 16:27:00,
2013-06-23 12:28:00,94.6,44.6,30.24,SE,125,5.4,5.4,18,0.00,,---,0.28,VWS V15.00,2013-06-23 16:28:00,
2013-06-23 12:29:00,94.6,44.6,30.24,SE,125,5.4,5.4,18,0.00,,---,0.28,VWS V15.00,2013-06-23 16:29:00,
2013-06-23 12:30:00,94.6,44.6,30.24,South,189,4.0,5.4,18,0.00,,---,0.28,VWS V15.00,2013-06-23 16:30:00,
2013-06-23 12:31:00,95.9,45.6,30.24,South,189,4.0,4.0,18,0.00,,---,0.28,VWS V15.00,2013-06-23 16:31:00,
2013-06-23 12:32:00,94.5,44.5,30.24,ESE,122,3.1,3.1,18,0.00,,---,0.28,VWS V14.01,2013-06-23 16:32:00,
2013-06-23 12:33:00,96.1,45.8,30.24,SE,131,4.9,7.2,18,0.00,,---,0.28,VWS V15.00,2013-06-23 16:33:00,
2013-06-23 12:34:00,96.6,46.2,30.24,SE,131,4.9,4.9,18,0.00,,---,0.28,VWS V15.00,2013-06-23 16:34:00,
2013-06-23 12:35:00,96.6,46.2,30.24,SE,132,5.8,5.8,18,0.00,,---,0.28,VWS V15.00,2013-06-23 16:35:00,
2013-06-23 12:36:00,96.6,46.2,30.24,NE,42,3.1,5.8,18,0.00,,---,0.28,VWS V15.00,2013-06-23 16:36:00,
2013-06-23 12:37:00,95.0,43.4,30.24,SSW,212,3.6,3.6,17,0.00,,---,0.28,VWS V14.01,2013-06-23 16:37:00,
2013-06-23 12:38:00,96.4,44.6,30.24,SE,124,7.6,7.6,17,0.00,,---,0.28,VWS V15.00,2013-06-23 16:38:00,
2013-06-23 12:39:00,96.4,44.6,30.24,ESE,120,8.7,8.7,17,0.00,,---,0.28,VWS V15.00,2013-06-23 16:39:00,
2013-06-23 12:40:00,96.4,44.6,30.24,East,91,10.5,10.5,17,0.00,,---,0.28,VWS V15.00,2013-06-23 16:40:00,
2013-06-23 12:41:00,95.0,44.9,30.24,East,91,10.5,10.5,18,0.00,,---,0.28,VWS V15.00,2013-06-23 16:41:00,
2013-06-23 12:42:00,95.4,43.7,30.24,ESE,123,4.0,4.0,17,0.00,,---,0.28,VWS V14.01,2013-06-23 16:42:00,
2013-06-23 12:43:00,94.8,46.2,30.24,East,94,3.6,3.6,19,0.00,,---,0.28,VWS V15.00,2013-06-23 16:43:00,
2013-06-23 12:44:00,94.6,44.6,30.24,East,94,3.6,3.6,18,0.00,,---,0.28,VWS V15.00,2013-06-23 16:44:00,
2013-06-23 12:45:00,94.6,44.6,30.24,SSE,163,6.3,6.3,18,0.00,,---,0.28,VWS V15.00,2013-06-23 16:45:00,
2013-06-23 12:46:00,94.6,44.6,30.24,SSE,163,6.3,6.3,18,0.00,,---,0.28,VWS V15.00,2013-06-23 16:46:00,
2013-06-23 12:47:00,95.0,44.9,30.24,East,80,7.6,7.6,18,0.00,,---,0.28,VWS V14.01,2013-06-23 16:47:00,
2013-06-23 12:48:00,94.8,44.8,30.24,SSE,163,6.3,6.3,18,0.00,,---,0.28,VWS V15.00,2013-06-23 16:48:00,
2013-06-23 12:49:00,94.6,44.6,30.24,SSE,158,7.6,7.6,18,0.00,,---,0.28,VWS V15.00,2013-06-23 16:49:00,
2013-06-23 12:50:00,95.0,44.9,30.24,SSE,158,7.6,7.6,18,0.00,,---,0.28,VWS V15.00,2013-06-23 16:50:00,
2013-06-23 12:51:00,95.0,44.9,30.24,SSE,158,7.6,7.6,18,0.00,,---,0.28,VWS V15.00,2013-06-23 16:51:00,
2013-06-23 12:52:00,95.0,44.9,30.24,South,176,8.3,8.3,18,0.00,,---,0.28,VWS V15.00,2013-06-23 16:52:00,
2013-06-23 12:53:00,91.6,46.2,30.24,SE,131,6.3,6.3,21,0.00,,---,0.28,VWS V14.01,2013-06-23 16:53:00,
2013-06-23 12:54:00,95.4,45.2,30.24,East,82,6.3,8.3,18,0.00,,---,0.28,VWS V15.00,2013-06-23 16:54:00,
2013-06-23 12:55:00,93.7,46.7,30.24,East,82,6.3,6.3,20,0.00,,---,0.28,VWS V15.00,2013-06-23 16:55:00,
2013-06-23 12:56:00,94.5,45.9,30.24,SE,136,6.3,6.3,19,0.00,,---,0.28,VWS V15.00,2013-06-23 16:56:00,
2013-06-23 12:57:00,92.7,44.4,30.24,ENE,77,5.4,8.1,19,0.00,,---,0.28,VWS V14.01,2013-06-23 16:57:00,
2013-06-23 12:58:00,91.2,47.1,30.24,East,85,4.0,4.0,22,0.00,,---,0.28,VWS V14.01,2013-06-23 16:58:00,
2013-06-23 12:59:00,94.6,46.0,30.24,SE,132,7.6,7.6,19,0.00,,---,0.28,VWS V15.00,2013-06-23 16:59:00,
2013-06-23 13:00:00,94.1,44.2,30.24,SE,132,7.6,7.6,18,0.00,,---,0.28,VWS V15.00,2013-06-23 17:00:00,
2013-06-23 13:01:00,94.1,44.2,30.24,ESE,120,7.2,7.6,18,0.00,,---,0.28,VWS V15.00,2013-06-23 17:01:00,
2013-06-23 13:02:00,94.1,44.2,30.24,ESE,120,7.2,7.2,18,0.00,,---,0.28,VWS V15.00,2013-06-23 17:02:00,
2013-06-23 13:03:00,93.0,46.1,30.24,ENE,64,8.3,8.3,20,0.00,,---,0.28,VWS V14.01,2013-06-23 17:03:00,
2013-06-23 13:04:00,93.7,48.0,30.24,East,95,5.4,5.4,21,0.00,,---,0.28,VWS V15.00,2013-06-23 17:04:00,
2013-06-23 13:05:00,93.9,48.1,30.24,East,95,5.4,5.4,21,0.00,,---,0.28,VWS V15.00,2013-06-23 17:05:00,
2013-06-23 13:06:00,94.3,45.7,30.24,ENE,63,2.7,5.4,19,0.00,,---,0.28,VWS V15.00,2013-06-23 17:06:00,
2013-06-23 13:07:00,94.1,47.0,30.24,ESE,119,4.9,6.3,20,0.00,,---,0.28,VWS V15.00,2013-06-23 17:07:00,
2013-06-23 13:08:00,92.1,45.3,30.24,ESE,113,8.3,8.3,20,0.00,,---,0.28,VWS V14.01,2013-06-23 17:08:00,
2013-06-23 13:09:00,93.4,45.0,30.24,ESE,107,5.8,5.8,19,0.00,,---,0.28,VWS V15.00,2013-06-23 17:09:00,
2013-06-23 13:10:00,94.6,47.4,30.24,SE,132,5.8,5.8,20,0.00,,---,0.28,VWS V15.00,2013-06-23 17:10:00,
2013-06-23 13:11:00,94.6,47.4,30.24,SE,127,8.7,8.7,20,0.00,,---,0.28,VWS V15.00,2013-06-23 17:11:00,
2013-06-23 13:12:00,94.8,46.2,30.24,ENE,61,6.3,8.7,19,0.00,,---,0.28,VWS V15.00,2013-06-23 17:12:00,
2013-06-23 13:13:00,95.4,45.2,30.24,ENE,61,6.3,6.3,18,0.00,,---,0.28,VWS V15.00,2013-06-23 17:13:00,
2013-06-23 13:14:00,91.6,47.4,30.24,ESE,105,2.7,2.7,22,0.00,,---,0.28,VWS V14.01,2013-06-23 17:14:00,
2013-06-23 13:15:00,93.6,46.5,30.24,SE,143,8.1,8.1,20,0.00,,---,0.28,VWS V15.00,2013-06-23 17:15:00,
2013-06-23 13:16:00,93.6,46.5,30.24,SE,143,8.1,8.1,20,0.00,,---,0.28,VWS V15.00,2013-06-23 17:16:00,
2013-06-23 13:17:00,93.9,46.8,30.24,SE,143,8.1,8.1,20,0.00,,---,0.28,VWS V15.00,2013-06-23 17:17:00,
2013-06-23 13:18:00,93.7,48.0,30.24,SE,140,8.3,8.3,21,0.00,,---,0.28,VWS V15.00,2013-06-23 17:18:00,
2013-06-23 13:19:00,94.3,44.3,30.24,SE,126,5.4,5.4,18,0.00,,---,0.28,VWS V14.01,2013-06-23 17:19:00,
2013-06-23 13:20:00,93.7,48.0,30.24,ENE,75,6.3,8.1,21,0.00,,---,0.28,VWS V15.00,2013-06-23 17:20:00,
2013-06-23 13:21:00,93.0,44.7,30.24,South,181,4.0,6.3,19,0.00,,---,0.28,VWS V15.00,2013-06-23 17:21:00,
2013-06-23 13:22:00,93.0,44.7,30.24,South,181,4.0,4.0,19,0.00,,---,0.28,VWS V15.00,2013-06-23 17:22:00,
2013-06-23 13:23:00,93.4,47.7,30.24,South,181,4.0,4.0,21,0.00,,---,0.28,VWS V15.00,2013-06-23 17:23:00,
2013-06-23 13:24:00,96.1,44.3,30.24,South,185,5.4,5.4,17,0.00,,---,0.28,VWS V14.01,2013-06-23 17:24:00,
2013-06-23 13:25:00,93.9,46.8,30.24,East,79,5.4,7.6,20,0.00,,---,0.28,VWS V15.00,2013-06-23 17:25:00,
2013-06-23 13:26:00,93.9,46.8,30.24,East,79,5.4,5.4,20,0.00,,---,0.28,VWS V15.00,2013-06-23 17:26:00,
2013-06-23 13:27:00,94.8,44.8,30.24,East,79,5.4,5.4,18,0.00,,---,0.28,VWS V15.00,2013-06-23 17:27:00,
2013-06-23 13:28:00,94.8,44.8,30.24,East,79,5.4,5.4,18,0.00,,---,0.28,VWS V15.00,2013-06-23 17:28:00,
2013-06-23 13:29:00,93.6,45.2,30.24,South,180,8.3,11.0,19,0.00,,---,0.28,VWS V14.01,2013-06-23 17:29:00,
2013-06-23 13:30:00,94.8,44.8,30.24,SE,138,5.4,5.4,18,0.00,,---,0.28,VWS V15.00,2013-06-23 17:30:00,
2013-06-23 13:31:00,94.8,44.8,30.24,SE,138,5.4,5.4,18,0.00,,---,0.28,VWS V15.00,2013-06-23 17:31:00,
2013-06-23 13:32:00,94.5,44.5,30.24,ESE,122,3.1,5.4,18,0.00,,---,0.28,VWS V15.00,2013-06-23 17:32:00,
2013-06-23 13:33:00,93.4,43.6,30.24,ESE,119,7.6,7.6,18,0.00,,---,0.28,VWS V15.00,2013-06-23 17:33:00,
2013-06-23 13:34:00,96.3,44.4,30.24,ESE,120,6.7,6.7,17,0.00,,---,0.28,VWS V14.01,2013-06-23 17:34:00,
2013-06-23 13:35:00,94.6,47.4,30.24,East,93,5.4,5.4,20,0.00,,---,0.28,VWS V15.00,2013-06-23 17:35:00,
2013-06-23 13:36:00,95.0,44.9,30.24,East,93,5.4,5.4,18,0.00,,---,0.28,VWS V15.00,2013-06-23 17:36:00,
2013-06-23 13:37:00,95.0,43.4,30.24,SSW,212,3.6,5.4,17,0.00,,---,0.28,VWS V15.00,2013-06-23 17:37:00,
2013-06-23 13:38:00,95.5,43.8,30.24,SSW,212,3.6,3.6,17,0.00,,---,0.28,VWS V15.00,2013-06-23 17:38:00,
2013-06-23 13:39:00,94.3,44.3,30.24,SE,133,5.4,5.4,18,0.00,,---,0.28,VWS V14.01,2013-06-23 17:39:00,
2013-06-23 13:40:00,95.5,43.8,30.24,East,95,5.4,5.4,17,0.00,,---,0.28,VWS V15.00,2013-06-23 17:40:00,
2013-06-23 13:41:00,95.4,43.7,30.24,East,95,5.4,5.4,17,0.00,,---,0.28,VWS V15.00,2013-06-23 17:41:00,
2013-06-23 13:42:00,95.4,43.7,30.24,ESE,123,4.0,5.4,17,0.00,,---,0.28,VWS V15.00,2013-06-23 17:42:00,
2013-06-23 13:43:00,95.9,44.1,30.24,ESE,123,4.0,4.0,17,0.00,,---,0.28,VWS V15.00,2013-06-23 17:43:00,
2013-06-23 13:44:00,94.5,44.5,30.24,East,101,3.6,3.6,18,0.00,,---,0.28,VWS V14.01,2013-06-23 17:44:00,
2013-06-23 13:45:00,95.9,44.1,30.24,ESE,123,4.0,4.0,17,0.00,,---,0.28,VWS V15.00,2013-06-23 17:45:00,
2013-06-23 13:46:00,95.9,44.1,30.24,East,94,3.1,4.0,17,0.00,,---,0.28,VWS V15.00,2013-06-23 17:46:00,
2013-06-23 13:47:00,95.0,44.9,30.24,ESE,102,2.7,3.1,18,0.00,,---,0.28,VWS V15.00,2013-06-23 17:47:00,
2013-06-23 13:48:00,91.9,43.8,30.24,East,80,7.6,7.6,19,0.00,,---,0.28,VWS V15.00,2013-06-23 17:48:00,
2013-06-23 13:49:00,94.8,43.3,30.24,SW,231,7.6,9.6,17,0.00,,---,0.28,VWS V14.01,2013-06-23 17:49:00,
2013-06-23 13:50:00,91.8,45.0,30.24,East,80,7.6,7.6,20,0.00,,---,0.28,VWS V15.00,2013-06-23 17:50:00,
2013-06-23 13:51:00,91.6,46.2,30.24,East,86,7.6,7.6,21,0.00,,---,0.28,VWS V15.00,2013-06-23 17:51:00,
2013-06-23 13:52:00,91.6,46.2,30.24,ENE,63,6.3,7.6,21,0.00,,---,0.28,VWS V15.00,2013-06-23 17:52:00,
2013-06-23 13:53:00,91.6,46.2,30.24,SE,131,6.3,6.3,21,0.00,,---,0.28,VWS V15.00,2013-06-23 17:53:00,
2013-06-23 13:54:00,95.4,43.7,30.24,ENE,68,8.3,8.3,17,0.00,,---,0.28,VWS V14.01,2013-06-23 17:54:00,
2013-06-23 13:55:00,92.7,44.4,30.24,ENE,67,3.6,3.6,19,0.00,,---,0.28,VWS V15.00,2013-06-23 17:55:00,
2013-06-23 13:56:00,92.7,44.4,30.24,ESE,112,8.1,8.1,19,0.00,,---,0.28,VWS V15.00,2013-06-23 17:56:00,
2013-06-23 13:57:00,92.7,44.4,30.24,ENE,77,5.4,8.1,19,0.00,,---,0.28,VWS V15.00,2013-06-23 17:57:00,
2013-06-23 13:58:00,91.2,47.1,30.24,East,85,4.0,5.4,22,0.00,,---,0.28,VWS V15.00,2013-06-23 17:58:00,
2013-06-23 13:59:00,96.8,44.8,30.24,East,88,6.3,8.7,17,0.00,,---,0.28,VWS V14.01,2013-06-23 17:59:00,
2013-06-23 14:00:00,92.8,47.2,30.24,East,85,4.0,4.0,21,0.00,,---,0.28,VWS V15.00,2013-06-23 18:00:00,
2013-06-23 14:01:00,93.0,46.1,30.24,ESE,103,5.8,5.8,20,0.00,,---,0.28,VWS V15.00,2013-06-23 18:01:00,
2013-06-23 14:02:00,93.0,46.1,30.24,East,84,5.4,8.1,20,0.00,,---,0.28,VWS V15.00,2013-06-23 18:02:00,
2013-06-23 14:03:00,93.0,46.1,30.24,ENE,64,8.3,8.3,20,0.00,,---,0.28,VWS V15.00,2013-06-23 18:03:00,
2013-06-23 14:04:00,96.8,44.8,30.24,ESE,121,2.7,3.6,17,0.00,,---,0.28,VWS V14.01,2013-06-23 18:04:00,
2013-06-23 14:05:00,90.7,46.7,30.24,SE,130,3.6,5.4,22,0.00,,---,0.28,VWS V15.00,2013-06-23 18:05:00,
2013-06-23 14:06:00,90.7,46.7,30.24,SE,130,3.6,3.6,22,0.00,,---,0.28,VWS V15.00,2013-06-23 18:06:00,
2013-06-23 14:07:00,92.3,48.0,30.24,East,79,5.8,7.6,22,0.00,,---,0.28,VWS V15.00,2013-06-23 18:07:00,
2013-06-23 14:08:00,92.3,48.0,30.24,ESE,113,8.3,8.3,22,0.00,,---,0.28,VWS V15.00,2013-06-23 18:08:00,
2013-06-23 14:09:00,95.0,44.9,30.24,ENE,60,3.1,5.4,18,0.00,,---,0.28,VWS V14.01,2013-06-23 18:09:00,
2013-06-23 14:10:00,91.9,45.2,30.24,ENE,63,8.1,8.1,20,0.00,,---,0.28,VWS V15.00,2013-06-23 18:10:00,
2013-06-23 14:11:00,91.6,47.4,30.24,ENE,63,8.1,8.1,22,0.00,,---,0.28,VWS V15.00,2013-06-23 18:11:00,
2013-06-23 14:12:00,91.6,47.4,30.24,ENE,63,8.1,8.1,22,0.00,,---,0.28,VWS V15.00,2013-06-23 18:12:00,
2013-06-23 14:13:00,91.6,47.4,30.24,ESE,105,2.7,8.1,22,0.00,,---,0.28,VWS V15.00,2013-06-23 18:13:00,
2013-06-23 14:14:00,95.4,43.7,30.24,East,101,4.0,4.0,17,0.00,,---,0.28,VWS V14.01,2013-06-23 18:14:00,
2013-06-23 14:15:00,91.6,47.4,30.24,ESE,105,2.7,2.7,22,0.00,,---,0.28,VWS V15.00,2013-06-23 18:15:00,
2013-06-23 14:16:00,95.0,43.4,30.24,ESE,105,2.7,2.7,17,0.00,,---,0.28,VWS V15.00,2013-06-23 18:16:00,
2013-06-23 14:17:00,95.0,43.4,30.24,ESE,105,2.7,2.7,17,0.00,,---,0.28,VWS V15.00,2013-06-23 18:17:00,
2013-06-23 14:18:00,94.3,44.3,30.24,SE,141,4.0,4.0,18,0.00,,---,0.28,VWS V15.00,2013-06-23 18:18:00,
2013-06-23 14:19:00,95.4,46.6,30.24,SE,135,7.6,7.6,19,0.00,,---,0.28,VWS V14.01,2013-06-23 18:19:00,
2013-06-23 14:20:00,94.3,44.3,30.24,East,95,4.9,5.4,18,0.00,,---,0.28,VWS V15.00,2013-06-23 18:20:00,
2013-06-23 14:21:00,95.7,46.9,30.24,South,185,5.4,5.4,19,0.00,,---,0.28,VWS V15.00,2013-06-23 18:21:00,
2013-06-23 14:22:00,95.7,46.9,30.24,South,185,5.4,5.4,19,0.00,,---,0.28,VWS V15.00,2013-06-23 18:22:00,
2013-06-23 14:23:00,96.1,44.3,30.24,South,185,5.4,5.4,17,0.00,,---,0.28,VWS V15.00,2013-06-23 18:23:00,
2013-06-23 14:24:00,90.5,48.8,30.24,ESE,110,5.4,5.4,24,0.00,,---,0.28,VWS V14.01,2013-06-23 18:24:00,
2013-06-23 14:25:00,96.4,46.1,30.24,SE,136,5.4,5.4,18,0.00,,---,0.28,VWS V15.00,2013-06-23 18:25:00,
2013-06-23 14:26:00,93.6,45.2,30.24,ESE,112,8.3,8.3,19,0.00,,---,0.28,VWS V15.00,2013-06-23 18:26:00,
2013-06-23 14:27:00,93.6,45.2,30.24,ESE,120,5.8,8.3,19,0.00,,---,0.28,VWS V15.00,2013-06-23 18:27:00,
2013-06-23 14:28:00,93.6,45.2,30.24,ESE,120,5.8,5.8,19,0.00,,---,0.28,VWS V15.00,2013-06-23 18:28:00,
2013-06-23 14:29:00,90.3,46.3,30.24,East,86,3.6,3.6,22,0.00,,---,0.28,VWS V14.01,2013-06-23 18:29:00,
2013-06-23 14:30:00,93.6,45.2,30.24,South,180,8.3,8.3,19,0.00,,---,0.28,VWS V15.00,2013-06-23 18:30:00,
2013-06-23 14:31:00,93.6,45.2,30.24,ESE,120,6.7,8.3,19,0.00,,---,0.28,VWS V15.00,2013-06-23 18:31:00,
2013-06-23 14:32:00,96.3,44.4,30.24,ESE,120,6.7,6.7,17,0.00,,---,0.28,VWS V15.00,2013-06-23 18:32:00,
2013-06-23 14:33:00,96.3,44.4,30.24,ESE,120,6.7,6.7,17,0.00,,---,0.28,VWS V15.00,2013-06-23 18:33:00,
2013-06-23 14:34:00,96.3,44.4,30.24,ESE,120,6.7,6.7,17,0.00,,---,0.28,VWS V15.00,2013-06-23 18:34:00,
2013-06-23 14:35:00,93.4,50.1,30.24,ESE,103,4.0,4.0,23,0.00,,---,0.28,VWS V14.01,2013-06-23 18:35:00,
2013-06-23 14:36:00,94.3,44.3,30.24,East,100,7.6,7.6,18,0.00,,---,0.28,VWS V15.00,2013-06-23 18:36:00,
2013-06-23 14:37:00,94.3,44.3,30.24,ESE,113,8.3,8.3,18,0.00,,---,0.28,VWS V15.00,2013-06-23 18:37:00,
2013-06-23 14:38:00,94.3,44.3,30.24,SE,133,5.4,8.3,18,0.00,,---,0.28,VWS V15.00,2013-06-23 18:38:00,
2013-06-23 14:39:00,94.3,44.3,30.24,SE,133,5.4,5.4,18,0.00,,---,0.28,VWS V15.00,2013-06-23 18:39:00,
2013-06-23 14:40:00,93.0,46.1,30.24,SE,124,8.3,8.3,20,0.00,,---,0.28,VWS V14.01,2013-06-23 18:40:00,
2013-06-23 14:41:00,94.3,44.3,30.24,ENE,76,5.4,6.3,18,0.00,,---,0.28,VWS V15.00,2013-06-23 18:41:00,
2013-06-23 14:42:00,93.6,43.7,30.24,SE,133,4.0,5.4,18,0.00,,---,0.28,VWS V15.00,2013-06-23 18:42:00,
2013-06-23 14:43:00,94.5,44.5,30.24,East,101,3.6,4.0,18,0.00,,---,0.28,VWS V15.00,2013-06-23 18:43:00,
2013-06-23 14:44:00,94.5,44.5,30.24,East,101,3.6,3.6,18,0.00,,---,0.28,VWS V15.00,2013-06-23 18:44:00,
2013-06-23 14:45:00,92.1,45.3,30.24,East,100,4.9,8.1,20,0.00,,---,0.28,VWS V14.01,2013-06-23 18:45:00,
2013-06-23 14:46:00,94.8,43.3,30.24,SSE,162,4.0,5.8,17,0.00,,---,0.28,VWS V15.00,2013-06-23 18:46:00,
2013-06-23 14:47:00,94.8,43.3,30.24,SSE,162,4.0,4.0,17,0.00,,---,0.28,VWS V15.00,2013-06-23 18:47:00,
2013-06-23 14:48:00,94.8,43.3,30.24,SSE,162,4.0,4.0,17,0.00,,---,0.28,VWS V15.00,2013-06-23 18:48:00,
2013-06-23 14:49:00,94.8,43.3,30.24,SW,231,7.6,9.6,17,0.00,,---,0.28,VWS V15.00,2013-06-23 18:49:00,
2013-06-23 14:50:00,92.8,44.6,30.21,ENE,71,5.8,5.8,19,0.00,,---,0.28,VWS V14.01,2013-06-23 18:50:00,
2013-06-23 14:51:00,94.8,43.3,30.24,SE,135,6.3,8.1,17,0.00,,---,0.28,VWS V15.00,2013-06-23 18:51:00,
2013-06-23 14:52:00,95.4,43.7,30.24,SE,135,6.3,6.3,17,0.00,,---,0.28,VWS V15.00,2013-06-23 18:52:00,
2013-06-23 14:53:00,95.4,43.7,30.24,ENE,68,8.3,8.3,17,0.00,,---,0.28,VWS V15.00,2013-06-23 18:53:00,
2013-06-23 14:54:00,95.4,43.7,30.24,ENE,68,8.3,8.3,17,0.00,,---,0.28,VWS V15.00,2013-06-23 18:54:00,
2013-06-23 14:55:00,94.8,44.8,30.21,ESE,120,3.6,3.6,18,0.00,,---,0.28,VWS V14.01,2013-06-23 18:55:00,
2013-06-23 14:56:00,96.3,44.4,30.24,ENE,68,8.3,8.3,17,0.00,,---,0.28,VWS V15.00,2013-06-23 18:56:00,
2013-06-23 14:57:00,96.3,44.4,30.24,East,94,5.4,8.3,17,0.00,,---,0.28,VWS V15.00,2013-06-23 18:57:00,
2013-06-23 14:58:00,96.3,44.4,30.24,ESE,115,8.7,8.7,17,0.00,,---,0.28,VWS V15.00,2013-06-23 18:58:00,
2013-06-23 14:59:00,96.8,44.8,30.24,East,88,6.3,8.7,17,0.00,,---,0.28,VWS V15.00,2013-06-23 18:59:00,
2013-06-23 15:00:00,93.9,44.0,30.21,South,185,7.6,7.6,18,0.00,,---,0.28,VWS V14.01,2013-06-23 19:00:00,
2013-06-23 15:01:00,96.8,44.8,30.24,ESE,115,8.1,8.1,17,0.00,,---,0.28,VWS V15.00,2013-06-23 19:01:00,
2013-06-23 15:02:00,95.9,44.1,30.24,East,101,3.6,8.1,17,0.00,,---,0.28,VWS V15.00,2013-06-23 19:02:00,
2013-06-23 15:03:00,95.9,44.1,30.24,East,101,3.6,3.6,17,0.00,,---,0.28,VWS V15.00,2013-06-23 19:03:00,
2013-06-23 15:04:00,96.8,44.8,30.24,ESE,121,2.7,3.6,17,0.00,,---,0.28,VWS V15.00,2013-06-23 19:04:00,
2013-06-23 15:05:00,94.1,44.2,30.21,NNE,27,3.6,3.6,18,0.00,,---,0.28,VWS V14.01,2013-06-23 19:05:00,
2013-06-23 15:06:00,96.8,44.8,30.24,ESE,121,2.7,2.7,17,0.00,,---,0.28,VWS V15.00,2013-06-23 19:06:00,
2013-06-23 15:07:00,95.9,44.1,30.24,ESE,121,2.7,2.7,17,0.00,,---,0.28,VWS V15.00,2013-06-23 19:07:00,
2013-06-23 15:08:00,95.9,44.1,30.24,NE,56,5.4,5.4,17,0.00,,---,0.28,VWS V15.00,2013-06-23 19:08:00,
2013-06-23 15:09:00,95.0,44.9,30.24,ENE,60,3.1,5.4,18,0.00,,---,0.28,VWS V15.00,2013-06-23 19:09:00,
2013-06-23 15:10:00,95.4,43.7,30.21,SE,131,14.5,14.5,17,0.00,,---,0.28,VWS V14.01,2013-06-23 19:10:00,
2013-06-23 15:11:00,93.7,43.9,30.24,ENE,60,3.1,3.1,18,0.00,,---,0.28,VWS V15.00,2013-06-23 19:11:00,
2013-06-23 15:12:00,93.7,43.9,30.24,East,101,4.0,4.0,18,0.00,,---,0.28,VWS V15.00,2013-06-23 19:12:00,
2013-06-23 15:13:00,93.7,43.9,30.24,East,101,4.0,4.0,18,0.00,,---,0.28,VWS V15.00,2013-06-23 19:13:00,
2013-06-23 15:14:00,95.4,43.7,30.24,East,101,4.0,4.0,17,0.00,,---,0.28,VWS V15.00,2013-06-23 19:14:00,
2013-06-23 15:15:00,95.4,43.7,30.24,East,101,4.0,4.0,17,0.00,,---,0.28,VWS V15.00,2013-06-23 19:15:00,
2013-06-23 15:16:00,95.0,43.4,30.24,SE,130,8.7,8.7,17,0.00,,---,0.28,VWS V15.00,2013-06-23 19:16:00,
2013-06-23 15:17:00,95.0,43.4,30.24,ESE,122,8.1,8.7,17,0.00,,---,0.28,VWS V15.00,2013-06-23 19:17:00,
2013-06-23 15:18:00,95.0,43.4,30.24,ESE,122,8.1,8.1,17,0.00,,---,0.28,VWS V15.00,2013-06-23 19:18:00,
2013-06-23 15:19:00,95.0,43.4,30.24,SE,135,7.6,8.1,17,0.00,,---,0.28,VWS V15.00,2013-06-23 19:19:00,
2013-06-23 15:20:00,95.4,46.6,30.24,SE,135,7.6,7.6,19,0.00,,---,0.28,VWS V15.00,2013-06-23 19:20:00,
2013-06-23 15:21:00,95.4,46.6,30.24,East,90,8.7,8.7,19,0.00,,---,0.28,VWS V15.00,2013-06-23 19:21:00,
2013-06-23 15:22:00,95.4,46.6,30.24,East,90,8.7,8.7,19,0.00,,---,0.28,VWS V15.00,2013-06-23 19:22:00,
2013-06-23 15:23:00,95.4,46.6,30.24,East,98,8.3,8.7,19,0.00,,---,0.28,VWS V15.00,2013-06-23 19:23:00,
2013-06-23 15:24:00,95.4,46.6,30.24,ESE,110,5.4,8.3,19,0.00,,---,0.28,VWS V15.00,2013-06-23 19:24:00,
2013-06-23 15:25:00,90.5,48.8,30.24,ESE,110,5.4,5.4,24,0.00,,---,0.28,VWS V15.00,2013-06-23 19:25:00,
2013-06-23 15:26:00,90.3,46.3,30.24,East,92,6.3,8.7,22,0.00,,---,0.28,VWS V15.00,2013-06-23 19:26:00,
2013-06-23 15:27:00,90.3,46.3,30.24,East,92,6.3,6.3,22,0.00,,---,0.28,VWS V15.00,2013-06-23 19:27:00,
2013-06-23 15:28:00,90.3,46.3,30.24,East,92,6.3,6.3,22,0.00,,---,0.28,VWS V15.00,2013-06-23 19:28:00,
2013-06-23 15:29:00,90.3,46.3,30.24,East,86,3.6,6.3,22,0.00,,---,0.28,VWS V15.00,2013-06-23 19:29:00,
2013-06-23 15:30:00,90.3,46.3,30.24,East,86,3.6,3.6,22,0.00,,---,0.28,VWS V15.00,2013-06-23 19:30:00,
2013-06-23 15:31:00,91.8,47.5,30.24,East,86,3.6,3.6,22,0.00,,---,0.28,VWS V15.00,2013-06-23 19:31:00,
2013-06-23 15:32:00,92.5,44.3,30.24,ESE,121,10.1,10.1,19,0.00,,---,0.28,VWS V15.00,2013-06-23 19:32:00,
2013-06-23 15:33:00,92.5,44.3,30.24,ESE,121,10.1,10.1,19,0.00,,---,0.28,VWS V15.00,2013-06-23 19:33:00,
2013-06-23 15:34:00,87.6,49.5,30.21,East,89,8.1,8.1,27,0.00,,---,0.28,VWS V14.01,2013-06-23 19:34:00,
2013-06-23 15:35:00,93.4,50.1,30.24,East,93,5.8,5.8,23,0.00,,---,0.28,VWS V15.00,2013-06-23 19:35:00,
2013-06-23 15:36:00,93.4,50.1,30.24,SE,135,3.1,5.8,23,0.00,,---,0.28,VWS V15.00,2013-06-23 19:36:00,
2013-06-23 15:37:00,93.0,46.1,30.24,SE,135,3.1,3.1,20,0.00,,---,0.28,VWS V15.00,2013-06-23 19:37:00,
2013-06-23 15:38:00,93.0,46.1,30.24,SE,124,8.3,8.3,20,0.00,,---,0.28,VWS V15.00,2013-06-23 19:38:00,
2013-06-23 15:39:00,87.1,50.1,30.21,ESE,113,2.7,6.3,28,0.00,,---,0.28,VWS V14.01,2013-06-23 19:39:00,
2013-06-23 15:40:00,93.0,46.1,30.24,SE,124,8.3,8.3,20,0.00,,---,0.28,VWS V15.00,2013-06-23 19:40:00,
2013-06-23 15:41:00,93.0,46.1,30.24,ESE,113,6.3,8.3,20,0.00,,---,0.28,VWS V15.00,2013-06-23 19:41:00,
2013-06-23 15:42:00,92.1,45.3,30.24,ESE,113,6.3,6.3,20,0.00,,---,0.28,VWS V15.00,2013-06-23 19:42:00,
2013-06-23 15:43:00,92.1,45.3,30.24,SE,127,6.3,6.3,20,0.00,,---,0.28,VWS V15.00,2013-06-23 19:43:00,
2013-06-23 15:44:00,92.7,44.4,30.21,ESE,115,11.0,11.0,19,0.00,,---,0.28,VWS V14.01,2013-06-23 19:44:00,
2013-06-23 15:45:00,92.1,45.3,30.24,East,100,4.9,8.1,20,0.00,,---,0.28,VWS V15.00,2013-06-23 19:45:00,
2013-06-23 15:46:00,92.1,45.3,30.24,East,100,4.9,4.9,20,0.00,,---,0.28,VWS V15.00,2013-06-23 19:46:00,
2013-06-23 15:47:00,92.8,44.6,30.21,ENE,71,5.8,5.8,19,0.00,,---,0.28,VWS V15.00,2013-06-23 19:47:00,
2013-06-23 15:48:00,92.8,44.6,30.21,ENE,71,5.8,5.8,19,0.00,,---,0.28,VWS V15.00,2013-06-23 19:48:00,
2013-06-23 15:49:00,93.7,43.9,30.21,SE,144,8.3,8.3,18,0.00,,---,0.28,VWS V14.01,2013-06-23 19:49:00,
2013-06-23 15:50:00,92.8,44.6,30.21,ENE,71,5.8,5.8,19,0.00,,---,0.28,VWS V15.00,2013-06-23 19:50:00,
2013-06-23 15:51:00,94.8,44.8,30.21,ENE,71,5.8,5.8,18,0.00,,---,0.28,VWS V15.00,2013-06-23 19:51:00,
2013-06-23 15:52:00,94.8,44.8,30.21,SE,137,6.7,6.7,18,0.00,,---,0.28,VWS V15.00,2013-06-23 19:52:00,
2013-06-23 15:53:00,94.8,44.8,30.21,ENE,70,10.5,10.5,18,0.00,,---,0.28,VWS V15.00,2013-06-23 19:53:00,
2013-06-23 15:54:00,94.5,44.5,30.21,ESE,109,5.4,6.7,18,0.00,,---,0.28,VWS V14.01,2013-06-23 19:54:00,
2013-06-23 15:55:00,94.8,44.8,30.21,NE,55,11.9,11.9,18,0.00,,---,0.28,VWS V15.00,2013-06-23 19:55:00,
2013-06-23 15:56:00,94.8,44.8,30.21,NE,55,11.9,11.9,18,0.00,,---,0.28,VWS V15.00,2013-06-23 19:56:00,
2013-06-23 15:57:00,94.8,44.8,30.21,ENE,65,8.1,11.9,18,0.00,,---,0.28,VWS V15.00,2013-06-23 19:57:00,
2013-06-23 15:58:00,94.8,44.8,30.21,ENE,65,8.1,8.1,18,0.00,,---,0.28,VWS V15.00,2013-06-23 19:58:00,
2013-06-23 15:59:00,93.0,46.1,30.21,ESE,103,8.7,8.7,20,0.00,,---,0.28,VWS V14.01,2013-06-23 19:59:00,
2013-06-23 16:00:00,93.9,44.0,30.21,South,185,7.6,7.6,18,0.00,,---,0.28,VWS V15.00,2013-06-23 20:00:00,
2013-06-23 16:01:00,93.9,44.0,30.21,South,185,7.6,7.6,18,0.00,,---,0.28,VWS V15.00,2013-06-23 20:01:00,
2013-06-23 16:02:00,93.9,44.0,30.21,ESE,120,7.6,7.6,18,0.00,,---,0.28,VWS V15.00,2013-06-23 20:02:00,
2013-06-23 16:03:00,94.1,44.2,30.21,SE,128,5.8,7.6,18,0.00,,---,0.28,VWS V15.00,2013-06-23 20:03:00,
2013-06-23 16:04:00,91.2,45.9,30.21,SE,128,7.6,12.3,21,0.00,,---,0.28,VWS V14.01,2013-06-23 20:04:00,
2013-06-23 16:05:00,94.1,44.2,30.21,NNE,27,3.6,3.6,18,0.00,,---,0.28,VWS V15.00,2013-06-23 20:05:00,
2013-06-23 16:06:00,94.1,44.2,30.21,NNE,27,3.6,3.6,18,0.00,,---,0.28,VWS V15.00,2013-06-23 20:06:00,
2013-06-23 16:07:00,94.1,44.2,30.21,NE,41,5.8,5.8,18,0.00,,---,0.28,VWS V15.00,2013-06-23 20:07:00,
2013-06-23 16:08:00,95.4,43.7,30.21,SE,131,14.5,14.5,17,0.00,,---,0.28,VWS V15.00,2013-06-23 20:08:00,
2013-06-23 16:09:00,88.7,49.5,30.21,ENE,75,5.4,9.6,26,0.00,,---,0.28,VWS V14.01,2013-06-23 20:09:00,
2013-06-23 16:10:00,95.4,43.7,30.21,SE,131,14.5,14.5,17,0.00,,---,0.28,VWS V15.00,2013-06-23 20:10:00,
2013-06-23 16:11:00,88.3,49.1,30.21,ESE,122,3.6,8.7,26,0.00,,---,0.28,VWS V15.00,2013-06-23 20:11:00,
2013-06-23 16:12:00,90.1,48.5,30.21,NE,53,4.0,6.3,24,0.00,,---,0.28,VWS V15.00,2013-06-23 20:12:00,
2013-06-23 16:13:00,89.8,47.1,30.21,ESE,111,5.8,9.6,23,0.00,,---,0.28,VWS V15.00,2013-06-23 20:13:00,
2013-06-23 16:14:00,90.7,49.0,30.21,ESE,110,3.1,3.6,24,0.00,,---,0.28,VWS V14.01,2013-06-23 20:14:00,
2013-06-23 16:15:00,91.2,47.1,30.21,ENE,78,6.3,6.3,22,0.00,,---,0.28,VWS V15.00,2013-06-23 20:15:00,
2013-06-23 16:16:00,90.9,46.8,30.21,East,90,8.7,8.7,22,0.00,,---,0.28,VWS V15.00,2013-06-23 20:16:00,
2013-06-23 16:17:00,91.9,46.5,30.21,ENE,71,5.8,8.7,21,0.00,,---,0.28,VWS V15.00,2013-06-23 20:17:00,
2013-06-23 16:18:00,89.4,45.6,30.21,ENE,78,8.3,8.3,22,0.00,,---,0.28,VWS V15.00,2013-06-23 20:18:00,
2013-06-23 16:19:00,90.1,49.6,30.21,ENE,72,4.0,11.0,25,0.00,,---,0.28,VWS V15.00,2013-06-23 20:19:00,
2013-06-23 16:20:00,89.8,44.7,30.21,ENE,58,8.1,8.1,21,0.00,,---,0.28,VWS V14.01,2013-06-23 20:20:00,
2013-06-23 16:21:00,89.4,45.6,30.21,NE,51,7.6,7.6,22,0.00,,---,0.28,VWS V15.00,2013-06-23 20:21:00,
2013-06-23 16:22:00,89.4,45.6,30.21,ENE,71,5.4,7.6,22,0.00,,---,0.28,VWS V15.00,2013-06-23 20:22:00,
2013-06-23 16:23:00,90.5,46.5,30.21,ENE,65,2.7,5.4,22,0.00,,---,0.28,VWS V15.00,2013-06-23 20:23:00,
2013-06-23 16:24:00,89.6,44.5,30.21,SE,124,4.9,12.3,21,0.00,,---,0.28,VWS V15.00,2013-06-23 20:24:00,
2013-06-23 16:25:00,90.7,45.4,30.21,ESE,108,6.3,6.3,21,0.00,,---,0.28,VWS V14.01,2013-06-23 20:25:00,
2013-06-23 16:26:00,91.6,43.5,30.21,ESE,115,10.1,10.1,19,0.00,,---,0.28,VWS V15.00,2013-06-23 20:26:00,
2013-06-23 16:27:00,91.8,43.7,30.21,ESE,108,8.7,10.1,19,0.00,,---,0.28,VWS V15.00,2013-06-23 20:27:00,
2013-06-23 16:28:00,92.3,44.1,30.21,East,97,4.0,8.7,19,0.00,,---,0.28,VWS V15.00,2013-06-23 20:28:00,
2013-06-23 16:29:00,91.9,43.8,30.21,ESE,104,5.4,5.4,19,0.00,,---,0.28,VWS V15.00,2013-06-23 20:29:00,
2013-06-23 16:30:00,92.7,44.4,30.21,ESE,103,8.7,8.7,19,0.00,,---,0.28,VWS V14.01,2013-06-23 20:30:00,
2013-06-23 16:31:00,94.1,44.2,30.21,ESE,113,8.3,10.1,18,0.00,,---,0.28,VWS V15.00,2013-06-23 20:31:00,
2013-06-23 16:32:00,94.3,44.3,30.21,ENE,78,5.8,8.3,18,0.00,,---,0.28,VWS V15.00,2013-06-23 20:32:00,
2013-06-23 16:33:00,87.6,49.5,30.21,East,89,8.1,8.1,27,0.00,,---,0.28,VWS V15.00,2013-06-23 20:33:00,
2013-06-23 16:34:00,87.4,50.4,30.21,ESE,118,5.4,8.1,28,0.00,,---,0.28,VWS V15.00,2013-06-23 20:34:00,
2013-06-23 16:35:00,92.5,44.3,30.21,East,90,8.3,8.3,19,0.00,,---,0.28,VWS V14.01,2013-06-23 20:35:00,
2013-06-23 16:36:00,87.8,50.7,30.21,East,95,2.7,8.3,28,0.00,,---,0.28,VWS V15.00,2013-06-23 20:36:00,
2013-06-23 16:37:00,87.3,50.2,30.21,ENE,59,5.8,5.8,28,0.00,,---,0.28,VWS V15.00,2013-06-23 20:37:00,
2013-06-23 16:38:00,87.1,50.1,30.21,East,87,6.3,8.7,28,0.00,,---,0.28,VWS V15.00,2013-06-23 20:38:00,
2013-06-23 16:39:00,88.0,50.8,30.21,SE,131,3.6,6.3,28,0.00,,---,0.28,VWS V15.00,2013-06-23 20:39:00,
2013-06-23 16:40:00,94.3,42.8,30.21,East,101,8.1,8.1,17,0.00,,---,0.28,VWS V14.01,2013-06-23 20:40:00,
2013-06-23 16:41:00,90.0,50.5,30.21,ESE,103,5.4,8.7,26,0.00,,---,0.28,VWS V15.00,2013-06-23 20:41:00,
2013-06-23 16:42:00,90.9,46.8,30.21,ESE,121,4.9,5.8,22,0.00,,---,0.28,VWS V15.00,2013-06-23 20:42:00,
2013-06-23 16:43:00,92.1,44.0,30.21,ESE,119,5.4,8.1,19,0.00,,---,0.28,VWS V15.00,2013-06-23 20:43:00,
2013-06-23 16:44:00,92.7,44.4,30.21,SE,135,10.5,11.0,19,0.00,,---,0.28,VWS V15.00,2013-06-23 20:44:00,
2013-06-23 16:45:00,95.2,43.5,30.21,ENE,78,8.1,8.3,17,0.00,,---,0.28,VWS V14.01,2013-06-23 20:45:00,
2013-06-23 16:46:00,94.1,44.2,30.21,SE,140,7.6,8.3,18,0.00,,---,0.28,VWS V15.00,2013-06-23 20:46:00,
2013-06-23 16:47:00,94.3,45.7,30.21,ENE,73,3.6,8.1,19,0.00,,---,0.28,VWS V15.00,2013-06-23 20:47:00,
2013-06-23 16:48:00,93.7,43.9,30.21,ESE,109,4.0,6.3,18,0.00,,---,0.28,VWS V15.00,2013-06-23 20:48:00,
2013-06-23 16:49:00,93.7,43.9,30.21,SE,141,7.6,8.3,18,0.00,,---,0.28,VWS V15.00,2013-06-23 20:49:00,
2013-06-23 16:50:00,92.8,44.6,30.21,ESE,123,3.1,6.3,19,0.00,,---,0.28,VWS V14.01,2013-06-23 20:50:00,
2013-06-23 16:51:00,94.3,44.3,30.21,East,87,3.6,5.4,18,0.00,,---,0.28,VWS V15.00,2013-06-23 20:51:00,
2013-06-23 16:52:00,93.4,43.6,30.21,ESE,121,8.7,10.5,18,0.00,,---,0.28,VWS V15.00,2013-06-23 20:52:00,
2013-06-23 16:53:00,94.6,44.6,30.21,East,98,6.7,8.7,18,0.00,,---,0.28,VWS V15.00,2013-06-23 20:53:00,
2013-06-23 16:54:00,94.5,44.5,30.21,ENE,75,4.9,6.7,18,0.00,,---,0.28,VWS V15.00,2013-06-23 20:54:00,
2013-06-23 16:55:00,89.2,43.0,30.21,SE,138,8.3,8.3,20,0.00,,---,0.28,VWS V14.01,2013-06-23 20:55:00,
2013-06-23 16:56:00,93.0,44.7,30.21,SSE,158,8.7,8.7,19,0.00,,---,0.28,VWS V15.00,2013-06-23 20:56:00,
2013-06-23 16:57:00,92.7,45.8,30.21,ENE,66,4.0,8.7,20,0.00,,---,0.28,VWS V15.00,2013-06-23 20:57:00,
2013-06-23 16:58:00,93.6,46.5,30.21,ENE,67,4.9,6.3,20,0.00,,---,0.28,VWS V15.00,2013-06-23 20:58:00,
2013-06-23 16:59:00,93.0,46.1,30.21,ENE,63,8.1,8.7,20,0.00,,---,0.28,VWS V15.00,2013-06-23 20:59:00,
2013-06-23 17:00:00,88.9,43.9,30.21,East,97,6.3,6.3,21,0.00,,---,0.28,VWS V14.01,2013-06-23 21:00:00,
2013-06-23 17:01:00,92.1,46.6,30.21,ESE,123,3.6,7.2,21,0.00,,---,0.28,VWS V15.00,2013-06-23 21:01:00,
2013-06-23 17:02:00,90.9,46.8,30.21,East,94,6.3,7.6,22,0.00,,---,0.28,VWS V15.00,2013-06-23 21:02:00,
2013-06-23 17:03:00,91.2,45.9,30.21,ENE,72,12.3,14.1,21,0.00,,---,0.28,VWS V15.00,2013-06-23 21:03:00,
2013-06-23 17:04:00,91.2,45.9,30.21,East,88,6.3,12.3,21,0.00,,---,0.28,VWS V15.00,2013-06-23 21:04:00,
2013-06-23 17:05:00,91.2,47.1,30.21,East,85,5.8,7.6,22,0.00,,---,0.28,VWS V15.00,2013-06-23 21:05:00,
2013-06-23 17:06:00,90.5,44.0,30.21,SE,133,4.0,7.6,20,0.00,,---,0.28,VWS V14.01,2013-06-23 21:06:00,
2013-06-23 17:07:00,88.7,47.3,30.21,ENE,65,8.3,11.0,24,0.00,,---,0.28,VWS V15.00,2013-06-23 21:07:00,
2013-06-23 17:08:00,89.1,49.8,30.21,ENE,64,9.6,11.0,26,0.00,,---,0.28,VWS V15.00,2013-06-23 21:08:00,
2013-06-23 17:09:00,88.7,49.5,30.21,ENE,75,5.4,9.6,26,0.00,,---,0.28,VWS V15.00,2013-06-23 21:09:00,
2013-06-23 17:10:00,89.2,50.9,30.21,ENE,73,8.7,8.7,27,0.00,,---,0.28,VWS V15.00,2013-06-23 21:10:00,
2013-06-23 17:11:00,88.7,43.8,30.21,East,93,7.6,7.6,21,0.00,,---,0.28,VWS V14.01,2013-06-23 21:11:00,
2013-06-23 17:12:00,90.1,48.5,30.21,NE,53,4.0,6.3,24,0.00,,---,0.28,VWS V15.00,2013-06-23 21:12:00,
2013-06-23 17:13:00,89.8,47.1,30.21,ESE,111,5.8,9.6,23,0.00,,---,0.28,VWS V15.00,2013-06-23 21:13:00,
2013-06-23 17:14:00,90.7,49.0,30.21,ENE,65,3.6,5.8,24,0.00,,---,0.28,VWS V15.00,2013-06-23 21:14:00,
2013-06-23 17:15:00,91.2,47.1,30.21,ENE,78,6.3,6.3,22,0.00,,---,0.28,VWS V15.00,2013-06-23 21:15:00,
2013-06-23 17:16:00,89.1,44.1,30.21,SE,142,8.1,8.1,21,0.00,,---,0.28,VWS V14.01,2013-06-23 21:16:00,
2013-06-23 17:17:00,91.9,46.5,30.21,ENE,71,5.8,8.7,21,0.00,,---,0.28,VWS V15.00,2013-06-23 21:17:00,
2013-06-23 17:18:00,89.4,45.6,30.21,ENE,78,8.3,8.3,22,0.00,,---,0.28,VWS V15.00,2013-06-23 21:18:00,
2013-06-23 17:19:00,90.1,49.6,30.21,ENE,72,4.0,11.0,25,0.00,,---,0.28,VWS V15.00,2013-06-23 21:19:00,
2013-06-23 17:20:00,89.4,46.8,30.21,NE,55,5.8,8.1,23,0.00,,---,0.28,VWS V15.00,2013-06-23 21:20:00,
2013-06-23 17:21:00,90.7,44.1,30.18,ESE,121,4.0,8.3,20,0.00,,---,0.28,VWS V14.01,2013-06-23 21:21:00,
2013-06-23 17:22:00,89.4,45.6,30.21,ENE,71,5.4,7.6,22,0.00,,---,0.28,VWS V15.00,2013-06-23 21:22:00,
2013-06-23 17:23:00,90.5,46.5,30.21,ENE,65,2.7,5.4,22,0.00,,---,0.28,VWS V15.00,2013-06-23 21:23:00,
2013-06-23 17:24:00,89.6,44.5,30.21,SE,124,4.9,12.3,21,0.00,,---,0.28,VWS V15.00,2013-06-23 21:24:00,
2013-06-23 17:25:00,90.9,46.8,30.21,NE,43,6.3,6.3,22,0.00,,---,0.28,VWS V15.00,2013-06-23 21:25:00,
2013-06-23 17:26:00,92.3,44.1,30.18,ESE,120,6.3,7.6,19,0.00,,---,0.28,VWS V14.01,2013-06-23 21:26:00,
2013-06-23 17:27:00,91.8,43.7,30.21,ESE,108,8.7,10.1,19,0.00,,---,0.28,VWS V15.00,2013-06-23 21:27:00,
2013-06-23 17:28:00,92.3,44.1,30.21,East,97,4.0,8.7,19,0.00,,---,0.28,VWS V15.00,2013-06-23 21:28:00,
2013-06-23 17:29:00,91.9,43.8,30.21,ESE,104,5.4,5.4,19,0.00,,---,0.28,VWS V15.00,2013-06-23 21:29:00,
2013-06-23 17:30:00,93.4,43.6,30.21,ESE,112,5.8,8.7,18,0.00,,---,0.28,VWS V15.00,2013-06-23 21:30:00,
2013-06-23 17:31:00,91.0,43.1,30.18,ENE,60,4.0,7.6,19,0.00,,---,0.28,VWS V14.01,2013-06-23 21:31:00,
2013-06-23 17:32:00,94.3,44.3,30.21,ENE,78,5.8,8.3,18,0.00,,---,0.28,VWS V15.00,2013-06-23 21:32:00,
2013-06-23 17:33:00,91.6,44.9,30.21,East,84,7.6,7.6,20,0.00,,---,0.28,VWS V15.00,2013-06-23 21:33:00,
2013-06-23 17:34:00,91.6,43.5,30.21,East,79,4.9,7.6,19,0.00,,---,0.28,VWS V15.00,2013-06-23 21:34:00,
2013-06-23 17:35:00,92.5,44.3,30.21,SSE,150,11.0,11.0,19,0.00,,---,0.28,VWS V15.00,2013-06-23 21:35:00,
2013-06-23 17:36:00,90.0,44.8,30.18,ESE,107,4.0,5.8,21,0.00,,---,0.28,VWS V14.01,2013-06-23 21:36:00,
2013-06-23 17:37:00,93.4,43.6,30.21,East,99,9.6,9.6,18,0.00,,---,0.28,VWS V15.00,2013-06-23 21:37:00,
2013-06-23 17:38:00,93.6,42.2,30.21,ESE,110,6.3,9.6,17,0.00,,---,0.28,VWS V15.00,2013-06-23 21:38:00,
2013-06-23 17:39:00,94.1,42.7,30.21,East,94,5.8,7.6,17,0.00,,---,0.28,VWS V15.00,2013-06-23 21:39:00,
2013-06-23 17:40:00,94.3,42.8,30.21,East,101,8.1,8.1,17,0.00,,---,0.28,VWS V15.00,2013-06-23 21:40:00,
2013-06-23 17:41:00,90.7,44.1,30.18,ESE,123,3.1,8.1,20,0.00,,---,0.28,VWS V14.01,2013-06-23 21:41:00,
2013-06-23 17:42:00,93.6,43.7,30.21,ENE,72,5.8,5.8,18,0.00,,---,0.28,VWS V15.00,2013-06-23 21:42:00,
2013-06-23 17:43:00,94.3,44.3,30.21,ESE,117,7.6,8.1,18,0.00,,---,0.28,VWS V15.00,2013-06-23 21:43:00,
2013-06-23 17:44:00,94.8,44.8,30.21,SE,130,8.3,8.3,18,0.00,,---,0.28,VWS V15.00,2013-06-23 21:44:00,
2013-06-23 17:45:00,95.2,43.5,30.21,East,94,4.9,8.3,17,0.00,,---,0.28,VWS V15.00,2013-06-23 21:45:00,
2013-06-23 17:46:00,88.5,43.6,30.18,NE,56,6.3,6.3,21,0.00,,---,0.28,VWS V14.01,2013-06-23 21:46:00,
2013-06-23 17:47:00,91.8,43.7,30.21,ENE,70,7.6,7.6,19,0.00,,---,0.28,VWS V15.00,2013-06-23 21:47:00,
2013-06-23 17:48:00,92.8,43.2,30.21,South,171,7.2,8.1,18,0.00,,---,0.28,VWS V15.00,2013-06-23 21:48:00,
2013-06-23 17:49:00,93.4,43.6,30.21,ESE,123,3.6,8.3,18,0.00,,---,0.28,VWS V15.00,2013-06-23 21:49:00,
2013-06-23 17:50:00,92.8,44.6,30.21,SSE,152,5.4,6.3,19,0.00,,---,0.28,VWS V15.00,2013-06-23 21:50:00,
2013-06-23 17:51:00,87.3,43.8,30.18,SE,146,5.8,8.7,22,0.00,,---,0.28,VWS V14.01,2013-06-23 21:51:00,
2013-06-23 17:52:00,90.5,44.0,30.21,ENE,60,8.1,8.3,20,0.00,,---,0.28,VWS V15.00,2013-06-23 21:52:00,
2013-06-23 17:53:00,90.1,43.7,30.21,SE,127,6.3,8.7,20,0.00,,---,0.28,VWS V15.00,2013-06-23 21:53:00,
2013-06-23 17:54:00,89.2,44.2,30.21,East,99,7.2,7.6,21,0.00,,---,0.28,VWS V15.00,2013-06-23 21:54:00,
2013-06-23 17:55:00,89.1,44.1,30.21,SE,138,8.3,8.3,21,0.00,,---,0.28,VWS V15.00,2013-06-23 21:55:00,
2013-06-23 17:56:00,86.2,49.3,30.18,ESE,109,4.9,8.3,28,0.00,,---,0.28,VWS V14.01,2013-06-23 21:56:00,
2013-06-23 17:57:00,89.1,45.3,30.21,ESE,113,6.3,10.5,22,0.00,,---,0.28,VWS V15.00,2013-06-23 21:57:00,
2013-06-23 17:58:00,89.1,45.3,30.21,ENE,67,4.0,6.3,22,0.00,,---,0.28,VWS V15.00,2013-06-23 21:58:00,
2013-06-23 17:59:00,89.1,44.1,30.21,ENE,64,5.4,7.6,21,0.00,,---,0.28,VWS V15.00,2013-06-23 21:59:00,
2013-06-23 18:00:00,88.9,43.9,30.21,ESE,102,5.8,5.8,21,0.00,,---,0.28,VWS V15.00,2013-06-23 22:00:00,
2013-06-23 18:01:00,85.3,51.2,30.18,East,86,4.0,7.6,31,0.00,,---,0.28,VWS V14.01,2013-06-23 22:01:00,
2013-06-23 18:02:00,89.2,46.6,30.21,ENE,70,5.4,6.3,23,0.00,,---,0.28,VWS V15.00,2013-06-23 22:02:00,
2013-06-23 18:03:00,90.0,44.8,30.21,SE,142,10.5,10.5,21,0.00,,---,0.28,VWS V15.00,2013-06-23 22:03:00,
2013-06-23 18:04:00,90.1,43.7,30.21,SE,143,8.3,10.5,20,0.00,,---,0.28,VWS V15.00,2013-06-23 22:04:00,
2013-06-23 18:05:00,90.5,44.0,30.21,ESE,104,5.4,8.3,20,0.00,,---,0.28,VWS V15.00,2013-06-23 22:05:00,
2013-06-23 18:06:00,84.2,51.2,30.18,ESE,119,4.5,8.1,32,0.00,,---,0.28,VWS V14.01,2013-06-23 22:06:00,
2013-06-23 18:07:00,90.0,44.8,30.21,East,97,5.4,10.1,21,0.00,,---,0.28,VWS V15.00,2013-06-23 22:07:00,
2013-06-23 18:08:00,89.2,44.2,30.21,East,84,7.6,8.7,21,0.00,,---,0.28,VWS V15.00,2013-06-23 22:08:00,
2013-06-23 18:09:00,89.2,43.0,30.21,East,92,4.9,8.3,20,0.00,,---,0.28,VWS V15.00,2013-06-23 22:09:00,
2013-06-23 18:10:00,88.5,43.6,30.21,SE,128,5.4,8.7,21,0.00,,---,0.28,VWS V15.00,2013-06-23 22:10:00,
2013-06-23 18:11:00,83.8,51.7,30.18,ENE,78,3.1,5.4,33,0.00,,---,0.28,VWS V14.01,2013-06-23 22:11:00,
2013-06-23 18:12:00,89.1,46.5,30.21,East,90,5.8,5.8,23,0.00,,---,0.28,VWS V15.00,2013-06-23 22:12:00,
2013-06-23 18:13:00,88.9,45.2,30.21,ENE,71,3.1,7.6,22,0.00,,---,0.28,VWS V15.00,2013-06-23 22:13:00,
2013-06-23 18:14:00,89.1,44.1,30.21,NE,55,4.9,5.4,21,0.00,,---,0.28,VWS V15.00,2013-06-23 22:14:00,
2013-06-23 18:15:00,89.1,45.3,30.21,East,86,5.8,5.8,22,0.00,,---,0.28,VWS V15.00,2013-06-23 22:15:00,
2013-06-23 18:16:00,89.1,44.1,30.21,ESE,115,3.1,8.1,21,0.00,,---,0.28,VWS V15.00,2013-06-23 22:16:00,
2013-06-23 18:17:00,83.5,50.5,30.18,ESE,118,3.1,4.0,32,0.00,,---,0.28,VWS V14.01,2013-06-23 22:17:00,
2013-06-23 18:18:00,90.1,43.7,30.18,SE,125,6.3,8.3,20,0.00,,---,0.28,VWS V15.00,2013-06-23 22:18:00,
2013-06-23 18:19:00,90.0,43.5,30.18,ESE,112,4.0,8.1,20,0.00,,---,0.28,VWS V15.00,2013-06-23 22:19:00,
2013-06-23 18:20:00,90.7,44.1,30.18,SE,134,8.3,8.3,20,0.00,,---,0.28,VWS V15.00,2013-06-23 22:20:00,
2013-06-23 18:21:00,91.2,43.2,30.18,ESE,110,7.6,8.3,19,0.00,,---,0.28,VWS V15.00,2013-06-23 22:21:00,
2013-06-23 18:22:00,83.5,49.7,30.18,SE,129,5.4,5.8,31,0.00,,---,0.28,VWS V14.01,2013-06-23 22:22:00,
2013-06-23 18:23:00,92.1,44.0,30.18,ESE,117,8.3,10.1,19,0.00,,---,0.28,VWS V15.00,2013-06-23 22:23:00,
2013-06-23 18:24:00,92.3,44.1,30.18,East,81,5.4,8.7,19,0.00,,---,0.28,VWS V15.00,2013-06-23 22:24:00,
2013-06-23 18:25:00,92.3,42.7,30.18,SSE,162,3.6,8.3,18,0.00,,---,0.28,VWS V15.00,2013-06-23 22:25:00,
2013-06-23 18:26:00,92.5,42.9,30.18,SE,136,7.6,7.6,18,0.00,,---,0.28,VWS V15.00,2013-06-23 22:26:00,
2013-06-23 18:27:00,83.7,49.0,30.18,East,86,3.6,4.9,30,0.00,,---,0.28,VWS V14.01,2013-06-23 22:27:00,
2013-06-23 18:28:00,91.2,43.2,30.18,NE,54,5.8,8.3,19,0.00,,---,0.28,VWS V15.00,2013-06-23 22:28:00,
2013-06-23 18:29:00,90.3,42.5,30.18,East,85,5.8,5.8,19,0.00,,---,0.28,VWS V15.00,2013-06-23 22:29:00,
2013-06-23 18:30:00,90.3,43.8,30.18,East,84,7.6,8.1,20,0.00,,---,0.28,VWS V15.00,2013-06-23 22:30:00,
2013-06-23 18:31:00,90.3,42.5,30.18,ESE,121,7.2,7.6,19,0.00,,---,0.28,VWS V15.00,2013-06-23 22:31:00,
2013-06-23 18:32:00,83.5,49.7,30.21,ESE,110,5.4,5.4,31,0.00,,---,0.28,VWS V14.01,2013-06-23 22:32:00,
2013-06-23 18:33:00,90.5,44.0,30.18,ENE,61,3.6,8.3,20,0.00,,---,0.28,VWS V15.00,2013-06-23 22:33:00,
2013-06-23 18:34:00,90.7,45.4,30.18,ENE,60,4.9,6.3,21,0.00,,---,0.28,VWS V15.00,2013-06-23 22:34:00,
2013-06-23 18:35:00,91.0,44.4,30.18,East,80,5.4,5.4,20,0.00,,---,0.28,VWS V15.00,2013-06-23 22:35:00,
2013-06-23 18:36:00,90.0,44.8,30.18,East,84,4.0,5.8,21,0.00,,---,0.28,VWS V15.00,2013-06-23 22:36:00,
2013-06-23 18:37:00,83.5,50.5,30.18,SE,130,8.1,8.1,32,0.00,,---,0.28,VWS V14.01,2013-06-23 22:37:00,
2013-06-23 18:38:00,91.4,43.4,30.18,ESE,114,3.6,6.3,19,0.00,,---,0.28,VWS V15.00,2013-06-23 22:38:00,
2013-06-23 18:39:00,91.2,44.6,30.18,SE,124,3.1,5.8,20,0.00,,---,0.28,VWS V15.00,2013-06-23 22:39:00,
2013-06-23 18:40:00,91.4,43.4,30.18,ENE,65,4.9,8.1,19,0.00,,---,0.28,VWS V15.00,2013-06-23 22:40:00,
2013-06-23 18:41:00,90.7,44.1,30.18,ESE,123,3.1,8.1,20,0.00,,---,0.28,VWS V15.00,2013-06-23 22:41:00,
2013-06-23 18:42:00,83.1,50.2,30.18,SE,125,7.6,7.6,32,0.00,,---,0.28,VWS V14.01,2013-06-23 22:42:00,
2013-06-23 18:43:00,91.4,43.4,30.18,East,89,5.8,6.7,19,0.00,,---,0.28,VWS V15.00,2013-06-23 22:43:00,
2013-06-23 18:44:00,90.7,44.1,30.18,East,81,3.6,5.8,20,0.00,,---,0.28,VWS V15.00,2013-06-23 22:44:00,
2013-06-23 18:45:00,90.0,43.5,30.18,SE,138,5.8,5.8,20,0.00,,---,0.28,VWS V15.00,2013-06-23 22:45:00,
2013-06-23 18:46:00,88.5,43.6,30.18,NE,56,6.3,6.3,21,0.00,,---,0.28,VWS V15.00,2013-06-23 22:46:00,
2013-06-23 18:47:00,82.9,49.2,30.18,SSE,148,4.9,6.3,31,0.00,,---,0.28,VWS V14.01,2013-06-23 22:47:00,
2013-06-23 18:48:00,88.0,44.4,30.18,East,101,4.0,5.8,22,0.00,,---,0.28,VWS V15.00,2013-06-23 22:48:00,
2013-06-23 18:49:00,87.6,44.1,30.18,ESE,109,5.4,6.3,22,0.00,,---,0.28,VWS V15.00,2013-06-23 22:49:00,
2013-06-23 18:50:00,87.3,42.6,30.18,SE,137,6.3,6.3,21,0.00,,---,0.28,VWS V15.00,2013-06-23 22:50:00,
2013-06-23 18:51:00,87.3,43.8,30.18,SE,146,5.8,8.7,22,0.00,,---,0.28,VWS V15.00,2013-06-23 22:51:00,
2013-06-23 18:52:00,82.9,50.1,30.18,East,82,4.0,4.0,32,0.00,,---,0.28,VWS V14.01,2013-06-23 22:52:00,
2013-06-23 18:53:00,86.9,45.8,30.18,East,101,7.6,7.6,24,0.00,,---,0.28,VWS V15.00,2013-06-23 22:53:00,
2013-06-23 18:54:00,86.7,46.7,30.18,NE,53,10.1,10.1,25,0.00,,---,0.28,VWS V15.00,2013-06-23 22:54:00,
2013-06-23 18:55:00,86.4,49.4,30.18,SSE,163,8.1,10.1,28,0.00,,---,0.28,VWS V15.00,2013-06-23 22:55:00,
2013-06-23 18:56:00,86.2,49.3,30.18,ESE,109,4.9,8.3,28,0.00,,---,0.28,VWS V15.00,2013-06-23 22:56:00,
2013-06-23 18:57:00,82.6,48.9,30.18,ESE,118,5.8,6.3,31,0.00,,---,0.28,VWS V14.01,2013-06-23 22:57:00,
2013-06-23 18:58:00,85.8,49.9,30.18,SE,124,7.6,7.6,29,0.00,,---,0.28,VWS V15.00,2013-06-23 22:58:00,
2013-06-23 18:59:00,85.6,49.8,30.18,East,85,3.1,7.6,29,0.00,,---,0.28,VWS V15.00,2013-06-23 22:59:00,
2013-06-23 19:00:00,85.5,50.5,30.18,ESE,112,6.3,6.3,30,0.00,,---,0.28,VWS V15.00,2013-06-23 23:00:00,
2013-06-23 19:01:00,85.3,51.2,30.18,East,86,4.0,7.6,31,0.00,,---,0.28,VWS V15.00,2013-06-23 23:01:00,
2013-06-23 19:02:00,82.6,50.6,30.18,ESE,109,5.8,5.8,33,0.00,,---,0.28,VWS V14.01,2013-06-23 23:02:00,
2013-06-23 19:03:00,84.7,50.8,30.18,SE,129,4.9,5.8,31,0.00,,---,0.28,VWS V15.00,2013-06-23 23:03:00,
2013-06-23 19:04:00,84.9,50.1,30.18,NE,56,5.4,5.4,30,0.00,,---,0.28,VWS V15.00,2013-06-23 23:04:00,
2013-06-23 19:05:00,84.4,50.5,30.18,ESE,106,6.3,7.6,31,0.00,,---,0.28,VWS V15.00,2013-06-23 23:05:00,
2013-06-23 19:06:00,84.2,51.2,30.18,East,85,8.1,8.3,32,0.00,,---,0.28,VWS V15.00,2013-06-23 23:06:00,
2013-06-23 19:07:00,84.2,51.2,30.18,East,85,8.3,8.3,32,0.00,,---,0.28,VWS V15.00,2013-06-23 23:07:00,
2013-06-23 19:08:00,82.4,49.6,30.18,ENE,62,3.6,6.3,32,0.00,,---,0.28,VWS V14.01,2013-06-23 23:08:00,
2013-06-23 19:09:00,83.8,50.9,30.18,East,95,3.6,8.3,32,0.00,,---,0.28,VWS V15.00,2013-06-23 23:09:00,
2013-06-23 19:10:00,83.8,51.7,30.18,ENE,75,5.8,5.8,33,0.00,,---,0.28,VWS V15.00,2013-06-23 23:10:00,
2013-06-23 19:11:00,83.8,51.7,30.18,East,101,5.4,5.8,33,0.00,,---,0.28,VWS V15.00,2013-06-23 23:11:00,
2013-06-23 19:12:00,83.7,52.3,30.18,East,93,7.2,8.1,34,0.00,,---,0.28,VWS V15.00,2013-06-23 23:12:00,
2013-06-23 19:13:00,82.4,50.4,30.18,ENE,73,6.7,6.7,33,0.00,,---,0.28,VWS V14.01,2013-06-23 23:13:00,
2013-06-23 19:14:00,83.5,50.5,30.18,ESE,103,5.8,8.7,32,0.00,,---,0.28,VWS V15.00,2013-06-23 23:14:00,
2013-06-23 19:15:00,83.5,50.5,30.18,SE,126,3.6,5.8,32,0.00,,---,0.28,VWS V15.00,2013-06-23 23:15:00,
2013-06-23 19:16:00,83.5,50.5,30.18,SE,131,3.6,7.2,32,0.00,,---,0.28,VWS V15.00,2013-06-23 23:16:00,
2013-06-23 19:17:00,83.5,50.5,30.18,ENE,77,5.8,6.3,32,0.00,,---,0.28,VWS V15.00,2013-06-23 23:17:00,
2013-06-23 19:18:00,82.2,51.1,30.18,East,98,4.0,4.0,34,0.00,,---,0.28,VWS V14.01,2013-06-23 23:18:00,
2013-06-23 19:19:00,83.5,50.5,30.18,SE,137,5.8,6.3,32,0.00,,---,0.28,VWS V15.00,2013-06-23 23:19:00,
2013-06-23 19:20:00,83.5,50.5,30.18,East,101,8.1,8.1,32,0.00,,---,0.28,VWS V15.00,2013-06-23 23:20:00,
2013-06-23 19:21:00,83.5,49.7,30.18,ESE,102,5.8,8.1,31,0.00,,---,0.28,VWS V15.00,2013-06-23 23:21:00,
2013-06-23 19:22:00,83.7,49.8,30.18,ESE,120,4.0,6.3,31,0.00,,---,0.28,VWS V15.00,2013-06-23 23:22:00,
2013-06-23 19:23:00,82.0,51.7,30.18,ESE,118,4.0,4.0,35,0.00,,---,0.28,VWS V14.01,2013-06-23 23:23:00,
2013-06-23 19:24:00,83.7,50.7,30.18,East,82,5.8,7.6,32,0.00,,---,0.28,VWS V15.00,2013-06-23 23:24:00,
2013-06-23 19:25:00,83.5,49.7,30.18,ENE,65,5.4,6.3,31,0.00,,---,0.28,VWS V15.00,2013-06-23 23:25:00,
2013-06-23 19:26:00,83.5,48.8,30.18,ENE,77,4.0,6.3,30,0.00,,---,0.28,VWS V15.00,2013-06-23 23:26:00,
2013-06-23 19:27:00,83.5,49.7,30.18,ENE,76,5.8,5.8,31,0.00,,---,0.28,VWS V15.00,2013-06-23 23:27:00,
2013-06-23 19:28:00,81.9,52.3,30.18,SE,137,6.3,6.3,36,0.00,,---,0.28,VWS V14.01,2013-06-23 23:28:00,
2013-06-23 19:29:00,83.5,49.7,30.18,East,93,7.6,7.6,31,0.00,,---,0.28,VWS V15.00,2013-06-23 23:29:00,
2013-06-23 19:30:00,83.5,49.7,30.18,SE,138,4.9,7.6,31,0.00,,---,0.28,VWS V15.00,2013-06-23 23:30:00,
2013-06-23 19:31:00,83.5,49.7,30.21,ESE,108,5.4,7.6,31,0.00,,---,0.28,VWS V15.00,2013-06-23 23:31:00,
2013-06-23 19:32:00,83.5,49.7,30.21,ESE,119,5.8,5.8,31,0.00,,---,0.28,VWS V15.00,2013-06-23 23:32:00,
2013-06-23 19:33:00,81.9,52.3,30.18,SE,133,5.4,8.1,36,0.00,,---,0.28,VWS V14.01,2013-06-23 23:33:00,
2013-06-23 19:34:00,83.5,51.4,30.18,SE,125,3.6,7.6,33,0.00,,---,0.28,VWS V15.00,2013-06-23 23:34:00,
2013-06-23 19:35:00,83.5,50.5,30.18,SE,124,5.8,8.3,32,0.00,,---,0.28,VWS V15.00,2013-06-23 23:35:00,
2013-06-23 19:36:00,83.5,50.5,30.18,ENE,77,5.4,8.1,32,0.00,,---,0.28,VWS V15.00,2013-06-23 23:36:00,
2013-06-23 19:37:00,83.5,50.5,30.18,East,95,8.3,8.3,32,0.00,,---,0.28,VWS V15.00,2013-06-23 23:37:00,
2013-06-23 19:38:00,81.7,52.2,30.21,East,79,6.3,6.3,36,0.00,,---,0.28,VWS V14.01,2013-06-23 23:38:00,
2013-06-23 19:39:00,83.5,51.4,30.18,NE,55,3.1,6.3,33,0.00,,---,0.28,VWS V15.00,2013-06-23 23:39:00,
2013-06-23 19:40:00,83.3,50.4,30.18,ESE,105,5.4,5.8,32,0.00,,---,0.28,VWS V15.00,2013-06-23 23:40:00,
2013-06-23 19:41:00,83.3,50.4,30.18,ENE,61,5.8,6.3,32,0.00,,---,0.28,VWS V15.00,2013-06-23 23:41:00,
2013-06-23 19:42:00,83.1,50.2,30.18,SE,128,8.1,8.1,32,0.00,,---,0.28,VWS V15.00,2013-06-23 23:42:00,
2013-06-23 19:43:00,81.7,51.4,30.21,SE,138,6.3,8.7,35,0.00,,---,0.28,VWS V14.01,2013-06-23 23:43:00,
2013-06-23 19:44:00,83.1,51.1,30.18,East,93,3.1,6.3,33,0.00,,---,0.28,VWS V15.00,2013-06-23 23:44:00,
2013-06-23 19:45:00,83.1,50.2,30.18,NE,51,8.7,8.7,32,0.00,,---,0.28,VWS V15.00,2013-06-23 23:45:00,
2013-06-23 19:46:00,83.1,49.4,30.18,ESE,109,5.8,10.5,31,0.00,,---,0.28,VWS V15.00,2013-06-23 23:46:00,
2013-06-23 19:47:00,82.9,49.2,30.18,SSE,148,4.9,6.3,31,0.00,,---,0.28,VWS V15.00,2013-06-23 23:47:00,
2013-06-23 19:48:00,81.5,52.0,30.21,ESE,106,3.6,4.9,36,0.00,,---,0.28,VWS V14.01,2013-06-23 23:48:00,
2013-06-23 19:49:00,82.9,50.1,30.18,ESE,121,8.3,8.3,32,0.00,,---,0.28,VWS V15.00,2013-06-23 23:49:00,
2013-06-23 19:50:00,82.9,50.1,30.18,ENE,74,3.6,8.3,32,0.00,,---,0.28,VWS V15.00,2013-06-23 23:50:00,
2013-06-23 19:51:00,82.9,50.1,30.18,East,84,4.0,4.0,32,0.00,,---,0.28,VWS V15.00,2013-06-23 23:51:00,
2013-06-23 19:52:00,82.9,50.1,30.18,East,82,4.0,4.0,32,0.00,,---,0.28,VWS V15.00,2013-06-23 23:52:00,
2013-06-23 19:53:00,81.3,52.6,30.21,ESE,102,3.1,6.3,37,0.00,,---,0.28,VWS V14.01,2013-06-23 23:53:00,
2013-06-23 19:54:00,82.8,49.9,30.18,East,79,7.6,7.6,32,0.00,,---,0.28,VWS V15.00,2013-06-23 23:54:00,
2013-06-23 19:55:00,82.8,49.9,30.18,NE,55,5.8,8.3,32,0.00,,---,0.28,VWS V15.00,2013-06-23 23:55:00,
2013-06-23 19:56:00,82.6,49.8,30.18,East,87,5.4,8.1,32,0.00,,---,0.28,VWS V15.00,2013-06-23 23:56:00,
2013-06-23 19:57:00,82.6,48.9,30.18,SE,139,3.1,6.3,31,0.00,,---,0.28,VWS V15.00,2013-06-23 23:57:00,
2013-06-23 19:58:00,81.1,53.9,30.21,East,100,6.3,6.3,39,0.00,,---,0.28,VWS V14.01,2013-06-23 23:58:00,
2013-06-23 19:59:00,82.6,49.8,30.18,East,90,6.3,6.3,32,0.00,,---,0.28,VWS V15.00,2013-06-23 23:59:00,
2013-06-23 20:00:00,82.6,49.8,30.18,East,81,6.3,6.3,32,0.00,,---,0.28,VWS V15.00,2013-06-24 00:00:00,
2013-06-23 20:01:00,82.6,49.8,30.18,East,91,8.1,8.1,32,0.00,,---,0.28,VWS V15.00,2013-06-24 00:01:00,
2013-06-23 20:02:00,82.6,50.6,30.18,East,93,4.0,8.1,33,0.00,,---,0.28,VWS V15.00,2013-06-24 00:02:00,
2013-06-23 20:03:00,82.4,50.4,30.18,NNE,27,4.0,5.8,33,0.00,,---,0.28,VWS V15.00,2013-06-24 00:03:00,
2013-06-23 20:04:00,81.1,53.2,30.21,East,90,6.3,6.3,38,0.00,,---,0.28,VWS V14.01,2013-06-24 00:04:00,
2013-06-23 20:05:00,82.4,49.6,30.18,ESE,104,5.8,8.3,32,0.00,,---,0.28,VWS V15.00,2013-06-24 00:05:00,
2013-06-23 20:06:00,82.6,50.6,30.18,East,88,4.0,9.2,33,0.00,,---,0.28,VWS V15.00,2013-06-24 00:06:00,
2013-06-23 20:07:00,82.4,49.6,30.18,ENE,62,3.6,6.3,32,0.00,,---,0.28,VWS V15.00,2013-06-24 00:07:00,
2013-06-23 20:08:00,82.4,49.6,30.18,East,97,3.6,5.4,32,0.00,,---,0.28,VWS V15.00,2013-06-24 00:08:00,
2013-06-23 20:09:00,81.0,53.7,30.21,SSE,151,3.6,6.3,39,0.00,,---,0.28,VWS V14.01,2013-06-24 00:09:00,
2013-06-23 20:10:00,82.4,49.6,30.18,ESE,120,4.0,5.8,32,0.00,,---,0.28,VWS V15.00,2013-06-24 00:10:00,
2013-06-23 20:11:00,82.4,50.4,30.18,ENE,74,4.0,5.4,33,0.00,,---,0.28,VWS V15.00,2013-06-24 00:11:00,
2013-06-23 20:12:00,82.4,50.4,30.18,ESE,123,4.0,6.7,33,0.00,,---,0.28,VWS V15.00,2013-06-24 00:12:00,
2013-06-23 20:13:00,82.4,50.4,30.18,ENE,63,3.1,6.7,33,0.00,,---,0.28,VWS V15.00,2013-06-24 00:13:00,
2013-06-23 20:14:00,80.8,54.2,30.21,East,84,2.7,3.1,40,0.00,,---,0.28,VWS V14.01,2013-06-24 00:14:00,
2013-06-23 20:15:00,82.2,51.1,30.18,NE,37,4.9,7.6,34,0.00,,---,0.28,VWS V15.00,2013-06-24 00:15:00,
2013-06-23 20:16:00,82.4,52.0,30.18,East,98,3.6,5.4,35,0.00,,---,0.28,VWS V15.00,2013-06-24 00:16:00,
2013-06-23 20:17:00,82.2,51.1,30.18,ESE,123,4.0,6.3,34,0.00,,---,0.28,VWS V15.00,2013-06-24 00:17:00,
2013-06-23 20:18:00,82.2,51.1,30.18,ESE,102,4.9,6.3,34,0.00,,---,0.28,VWS V15.00,2013-06-24 00:18:00,
2013-06-23 20:19:00,81.0,53.7,30.21,ENE,60,5.4,5.8,39,0.00,,---,0.28,VWS V14.01,2013-06-24 00:19:00,
2013-06-23 20:20:00,82.0,50.9,30.18,ESE,115,5.8,6.7,34,0.00,,---,0.28,VWS V15.00,2013-06-24 00:20:00,
2013-06-23 20:21:00,82.0,50.9,30.18,SE,127,5.8,6.3,34,0.00,,---,0.28,VWS V15.00,2013-06-24 00:21:00,
2013-06-23 20:22:00,82.0,52.5,30.18,ESE,104,2.7,6.3,36,0.00,,---,0.28,VWS V15.00,2013-06-24 00:22:00,
2013-06-23 20:23:00,82.0,50.9,30.18,East,79,5.8,5.8,34,0.00,,---,0.28,VWS V15.00,2013-06-24 00:23:00,
2013-06-23 20:24:00,80.8,54.2,30.21,SE,133,8.3,8.3,40,0.00,,---,0.28,VWS V14.01,2013-06-24 00:24:00,
2013-06-23 20:25:00,81.9,51.5,30.18,East,92,7.6,7.6,35,0.00,,---,0.28,VWS V15.00,2013-06-24 00:25:00,
2013-06-23 20:26:00,82.0,51.7,30.18,ESE,114,3.1,7.6,35,0.00,,---,0.28,VWS V15.00,2013-06-24 00:26:00,
2013-06-23 20:27:00,82.0,53.2,30.18,SE,129,4.0,5.4,37,0.00,,---,0.28,VWS V15.00,2013-06-24 00:27:00,
2013-06-23 20:28:00,81.9,52.3,30.18,SE,135,6.3,6.3,36,0.00,,---,0.28,VWS V15.00,2013-06-24 00:28:00,
2013-06-23 20:29:00,80.6,53.4,30.21,SE,130,5.4,7.6,39,0.00,,---,0.28,VWS V14.01,2013-06-24 00:29:00,
2013-06-23 20:30:00,81.9,52.3,30.18,SE,131,2.7,5.4,36,0.00,,---,0.28,VWS V15.00,2013-06-24 00:30:00,
2013-06-23 20:31:00,81.9,52.3,30.18,ENE,58,5.8,5.8,36,0.00,,---,0.28,VWS V15.00,2013-06-24 00:31:00,
2013-06-23 20:32:00,81.7,51.4,30.18,NE,54,8.1,8.1,35,0.00,,---,0.28,VWS V15.00,2013-06-24 00:32:00,
2013-06-23 20:33:00,81.9,52.3,30.18,ESE,111,5.8,8.1,36,0.00,,---,0.28,VWS V15.00,2013-06-24 00:33:00,
2013-06-23 20:34:00,80.4,53.9,30.21,East,98,3.1,5.4,40,0.00,,---,0.28,VWS V14.01,2013-06-24 00:34:00,
2013-06-23 20:35:00,81.7,52.2,30.18,SE,133,3.6,4.9,36,0.00,,---,0.28,VWS V15.00,2013-06-24 00:35:00,
2013-06-23 20:36:00,81.9,53.1,30.18,East,85,3.6,3.6,37,0.00,,---,0.28,VWS V15.00,2013-06-24 00:36:00,
2013-06-23 20:37:00,81.7,52.9,30.21,East,87,4.9,4.9,37,0.00,,---,0.28,VWS V15.00,2013-06-24 00:37:00,
2013-06-23 20:38:00,81.7,52.2,30.21,ENE,70,7.2,7.2,36,0.00,,---,0.28,VWS V15.00,2013-06-24 00:38:00,
2013-06-23 20:39:00,80.2,55.1,30.21,ESE,108,0.0,3.6,42,0.00,,---,0.28,VWS V14.01,2013-06-24 00:39:00,
2013-06-23 20:40:00,81.7,52.2,30.21,ESE,121,8.1,8.1,36,0.00,,---,0.28,VWS V15.00,2013-06-24 00:40:00,
2013-06-23 20:41:00,81.7,52.2,30.21,East,99,6.3,10.1,36,0.00,,---,0.28,VWS V15.00,2013-06-24 00:41:00,
2013-06-23 20:42:00,81.7,52.2,30.21,East,91,5.4,6.3,36,0.00,,---,0.28,VWS V15.00,2013-06-24 00:42:00,
2013-06-23 20:43:00,81.7,51.4,30.21,SE,138,6.3,8.7,35,0.00,,---,0.28,VWS V15.00,2013-06-24 00:43:00,
2013-06-23 20:44:00,80.1,54.3,30.21,SE,127,4.9,5.8,41,0.00,,---,0.28,VWS V14.01,2013-06-24 00:44:00,
2013-06-23 20:45:00,81.7,51.4,30.21,SE,134,3.6,6.7,35,0.00,,---,0.28,VWS V15.00,2013-06-24 00:45:00,
2013-06-23 20:46:00,81.5,52.0,30.21,SE,133,5.4,8.3,36,0.00,,---,0.28,VWS V15.00,2013-06-24 00:46:00,
2013-06-23 20:47:00,81.5,52.0,30.21,East,92,3.6,7.6,36,0.00,,---,0.28,VWS V15.00,2013-06-24 00:47:00,
2013-06-23 20:48:00,81.5,52.0,30.21,ESE,106,3.6,4.9,36,0.00,,---,0.28,VWS V15.00,2013-06-24 00:48:00,
2013-06-23 20:49:00,80.1,55.6,30.21,ESE,116,2.7,3.1,43,0.00,,---,0.28,VWS V14.01,2013-06-24 00:49:00,
2013-06-23 20:50:00,81.5,52.7,30.21,ENE,68,4.0,5.4,37,0.00,,---,0.28,VWS V15.00,2013-06-24 00:50:00,
2013-06-23 20:51:00,81.5,54.2,30.21,East,90,2.2,4.0,39,0.00,,---,0.28,VWS V15.00,2013-06-24 00:51:00,
2013-06-23 20:52:00,81.3,53.3,30.21,ESE,104,5.4,5.4,38,0.00,,---,0.28,VWS V15.00,2013-06-24 00:52:00,
2013-06-23 20:53:00,81.3,52.6,30.21,ESE,102,3.1,6.3,37,0.00,,---,0.28,VWS V15.00,2013-06-24 00:53:00,
2013-06-23 20:54:00,80.1,54.9,30.21,East,88,4.0,4.0,42,0.00,,---,0.28,VWS V14.01,2013-06-24 00:54:00,
2013-06-23 20:55:00,81.3,53.3,30.21,ESE,110,3.6,6.3,38,0.00,,---,0.28,VWS V15.00,2013-06-24 00:55:00,
2013-06-23 20:56:00,81.1,53.2,30.21,East,97,4.9,5.4,38,0.00,,---,0.28,VWS V15.00,2013-06-24 00:56:00,
2013-06-23 20:57:00,81.1,53.9,30.21,ENE,76,4.0,4.9,39,0.00,,---,0.28,VWS V15.00,2013-06-24 00:57:00,
2013-06-23 20:58:00,81.1,53.9,30.21,East,100,6.3,6.3,39,0.00,,---,0.28,VWS V15.00,2013-06-24 00:58:00,
2013-06-23 20:59:00,81.1,53.9,30.21,ENE,68,8.1,8.1,39,0.00,,---,0.28,VWS V15.00,2013-06-24 00:59:00,
2013-06-23 21:00:00,80.2,55.1,30.21,East,98,4.0,4.0,42,0.00,,---,0.28,VWS V14.01,2013-06-24 01:00:00,
2013-06-23 21:01:00,81.1,53.9,30.21,ENE,74,5.8,5.8,39,0.00,,---,0.28,VWS V15.00,2013-06-24 01:01:00,
2013-06-23 21:02:00,81.1,53.9,30.21,ENE,73,3.1,6.3,39,0.00,,---,0.28,VWS V15.00,2013-06-24 01:02:00,
2013-06-23 21:03:00,81.1,53.9,30.21,ENE,65,6.3,6.3,39,0.00,,---,0.28,VWS V15.00,2013-06-24 01:03:00,
2013-06-23 21:04:00,81.0,53.0,30.21,ESE,110,3.6,6.3,38,0.00,,---,0.28,VWS V15.00,2013-06-24 01:04:00,
2013-06-23 21:05:00,80.2,55.1,30.21,East,85,2.7,5.8,42,0.00,,---,0.28,VWS V14.01,2013-06-24 01:05:00,
2013-06-23 21:06:00,81.0,53.0,30.21,ESE,123,4.0,6.3,38,0.00,,---,0.28,VWS V15.00,2013-06-24 01:06:00,
2013-06-23 21:07:00,81.0,53.0,30.21,ENE,68,6.3,6.3,38,0.00,,---,0.28,VWS V15.00,2013-06-24 01:07:00,
2013-06-23 21:08:00,81.0,53.0,30.21,ESE,111,6.3,6.3,38,0.00,,---,0.28,VWS V15.00,2013-06-24 01:08:00,
2013-06-23 21:09:00,81.0,53.7,30.21,NE,52,4.9,6.3,39,0.00,,---,0.28,VWS V15.00,2013-06-24 01:09:00,
2013-06-23 21:10:00,80.4,54.6,30.21,ENE,75,5.4,5.4,41,0.00,,---,0.28,VWS V14.01,2013-06-24 01:10:00,
2013-06-23 21:11:00,80.8,54.2,30.21,SE,133,3.1,6.3,40,0.00,,---,0.28,VWS V15.00,2013-06-24 01:11:00,
2013-06-23 21:12:00,80.8,54.2,30.21,ENE,75,4.9,5.8,40,0.00,,---,0.28,VWS V15.00,2013-06-24 01:12:00,
2013-06-23 21:13:00,80.8,54.2,30.21,East,84,3.1,4.9,40,0.00,,---,0.28,VWS V15.00,2013-06-24 01:13:00,
2013-06-23 21:14:00,80.8,54.2,30.21,ESE,119,3.6,4.9,40,0.00,,---,0.28,VWS V15.00,2013-06-24 01:14:00,
2013-06-23 21:15:00,80.2,54.4,30.21,East,92,4.0,4.9,41,0.00,,---,0.28,VWS V14.01,2013-06-24 01:15:00,
2013-06-23 21:16:00,80.6,54.1,30.21,SE,124,5.8,5.8,40,0.00,,---,0.28,VWS V15.00,2013-06-24 01:16:00,
2013-06-23 21:17:00,80.6,54.1,30.21,ENE,74,4.9,5.8,40,0.00,,---,0.28,VWS V15.00,2013-06-24 01:17:00,
2013-06-23 21:18:00,81.0,54.4,30.21,ENE,73,5.8,5.8,40,0.00,,---,0.28,VWS V15.00,2013-06-24 01:18:00,
2013-06-23 21:19:00,81.0,53.7,30.21,ENE,65,3.6,6.3,39,0.00,,---,0.28,VWS V15.00,2013-06-24 01:19:00,
2013-06-23 21:20:00,80.2,55.1,30.21,East,87,3.6,5.4,42,0.00,,---,0.28,VWS V14.01,2013-06-24 01:20:00,
2013-06-23 21:21:00,80.8,53.5,30.21,ENE,78,5.4,6.3,39,0.00,,---,0.28,VWS V15.00,2013-06-24 01:21:00,
2013-06-23 21:22:00,80.8,54.2,30.21,East,97,4.0,5.4,40,0.00,,---,0.28,VWS V15.00,2013-06-24 01:22:00,
2013-06-23 21:23:00,80.8,54.2,30.21,East,97,3.6,4.0,40,0.00,,---,0.28,VWS V15.00,2013-06-24 01:23:00,
2013-06-23 21:24:00,80.8,54.2,30.21,East,89,4.0,8.3,40,0.00,,---,0.28,VWS V15.00,2013-06-24 01:24:00,
2013-06-23 21:25:00,80.2,55.1,30.21,ESE,108,3.6,4.9,42,0.00,,---,0.28,VWS V14.01,2013-06-24 01:25:00,
2013-06-23 21:26:00,80.8,54.2,30.21,East,93,5.8,5.8,40,0.00,,---,0.28,VWS V15.00,2013-06-24 01:26:00,
2013-06-23 21:27:00,80.8,54.2,30.21,NE,48,6.3,6.3,40,0.00,,---,0.28,VWS V15.00,2013-06-24 01:27:00,
2013-06-23 21:28:00,80.6,53.4,30.21,NNE,19,3.1,6.3,39,0.00,,---,0.28,VWS V15.00,2013-06-24 01:28:00,
2013-06-23 21:29:00,80.6,53.4,30.21,ESE,119,4.9,7.6,39,0.00,,---,0.28,VWS V15.00,2013-06-24 01:29:00,
2013-06-23 21:30:00,80.1,54.9,30.21,East,89,2.7,3.1,42,0.00,,---,0.28,VWS V14.01,2013-06-24 01:30:00,
2013-06-23 21:31:00,80.6,54.1,30.21,SSE,160,2.7,5.4,40,0.00,,---,0.28,VWS V15.00,2013-06-24 01:31:00,
2013-06-23 21:32:00,80.4,53.9,30.21,ESE,120,3.1,5.4,40,0.00,,---,0.28,VWS V15.00,2013-06-24 01:32:00,
2013-06-23 21:33:00,80.4,53.9,30.21,East,89,3.6,3.6,40,0.00,,---,0.28,VWS V15.00,2013-06-24 01:33:00,
2013-06-23 21:34:00,80.4,53.9,30.21,East,98,3.1,5.4,40,0.00,,---,0.28,VWS V15.00,2013-06-24 01:34:00,
2013-06-23 21:35:00,80.1,54.9,30.21,East,85,3.1,5.4,42,0.00,,---,0.28,VWS V14.01,2013-06-24 01:35:00,
2013-06-23 21:36:00,80.2,54.4,30.21,ESE,117,5.4,5.4,41,0.00,,---,0.28,VWS V15.00,2013-06-24 01:36:00,
2013-06-23 21:37:00,80.2,54.4,30.21,ESE,112,3.6,5.4,41,0.00,,---,0.28,VWS V15.00,2013-06-24 01:37:00,
2013-06-23 21:38:00,80.2,54.4,30.21,ENE,78,3.6,3.6,41,0.00,,---,0.28,VWS V15.00,2013-06-24 01:38:00,
2013-06-23 21:39:00,80.2,55.1,30.21,ESE,108,0.0,3.6,42,0.00,,---,0.28,VWS V15.00,2013-06-24 01:39:00,
2013-06-23 21:40:00,80.1,54.9,30.24,East,83,5.8,5.8,42,0.00,,---,0.28,VWS V14.01,2013-06-24 01:40:00,
2013-06-23 21:41:00,80.2,55.1,30.21,East,96,3.6,3.6,42,0.00,,---,0.28,VWS V15.00,2013-06-24 01:41:00,
2013-06-23 21:42:00,80.2,54.4,30.21,East,82,3.1,4.0,41,0.00,,---,0.28,VWS V15.00,2013-06-24 01:42:00,
2013-06-23 21:43:00,80.1,54.9,30.21,ESE,122,3.1,3.1,42,0.00,,---,0.28,VWS V15.00,2013-06-24 01:43:00,
2013-06-23 21:44:00,80.1,54.3,30.21,ENE,74,3.6,5.8,41,0.00,,---,0.28,VWS V15.00,2013-06-24 01:44:00,
2013-06-23 21:45:00,80.2,55.1,30.24,SE,124,2.2,3.1,42,0.00,,---,0.28,VWS V14.01,2013-06-24 01:45:00,
2013-06-23 21:46:00,80.2,56.4,30.21,East,87,2.7,4.0,44,0.00,,---,0.28,VWS V15.00,2013-06-24 01:46:00,
2013-06-23 21:47:00,80.1,54.9,30.21,ESE,104,3.6,3.6,42,0.00,,---,0.28,VWS V15.00,2013-06-24 01:47:00,
2013-06-23 21:48:00,80.1,54.9,30.21,East,85,2.2,3.6,42,0.00,,---,0.28,VWS V15.00,2013-06-24 01:48:00,
2013-06-23 21:49:00,80.1,55.6,30.21,ESE,116,2.7,3.1,43,0.00,,---,0.28,VWS V15.00,2013-06-24 01:49:00,
2013-06-23 21:50:00,80.1,55.6,30.24,ENE,63,3.1,3.6,43,0.00,,---,0.28,VWS V14.01,2013-06-24 01:50:00,
2013-06-23 21:51:00,79.9,55.4,30.21,ENE,68,5.4,5.4,43,0.00,,---,0.28,VWS V15.00,2013-06-24 01:51:00,
2013-06-23 21:52:00,80.1,56.2,30.21,SSE,149,3.1,5.4,44,0.00,,---,0.28,VWS V15.00,2013-06-24 01:52:00,
2013-06-23 21:53:00,80.1,56.2,30.21,East,81,4.0,4.0,44,0.00,,---,0.28,VWS V15.00,2013-06-24 01:53:00,
2013-06-23 21:54:00,80.1,54.9,30.21,SE,136,3.6,6.3,42,0.00,,---,0.28,VWS V15.00,2013-06-24 01:54:00,
2013-06-23 21:55:00,79.9,55.4,30.24,ESE,122,6.3,6.3,43,0.00,,---,0.28,VWS V14.01,2013-06-24 01:55:00,
2013-06-23 21:56:00,80.1,54.9,30.21,SE,137,7.6,7.6,42,0.00,,---,0.28,VWS V15.00,2013-06-24 01:56:00,
2013-06-23 21:57:00,80.1,54.9,30.21,NE,51,5.8,7.6,42,0.00,,---,0.28,VWS V15.00,2013-06-24 01:57:00,
2013-06-23 21:58:00,80.2,55.1,30.21,ENE,74,3.1,5.8,42,0.00,,---,0.28,VWS V15.00,2013-06-24 01:58:00,
2013-06-23 21:59:00,80.2,55.1,30.21,East,98,4.0,4.9,42,0.00,,---,0.28,VWS V15.00,2013-06-24 01:59:00,
2013-06-23 22:00:00,80.1,54.9,30.24,East,82,0.0,4.0,42,0.00,,---,0.28,VWS V14.01,2013-06-24 02:00:00,
2013-06-23 22:01:00,80.4,55.9,30.21,ESE,120,3.6,5.8,43,0.00,,---,0.28,VWS V15.00,2013-06-24 02:01:00,
2013-06-23 22:02:00,80.2,55.1,30.21,ESE,110,2.7,4.0,42,0.00,,---,0.28,VWS V15.00,2013-06-24 02:02:00,
2013-06-23 22:03:00,80.2,54.4,30.21,East,94,5.8,5.8,41,0.00,,---,0.28,VWS V15.00,2013-06-24 02:03:00,
2013-06-23 22:04:00,80.2,55.1,30.21,East,85,5.8,8.3,42,0.00,,---,0.28,VWS V15.00,2013-06-24 02:04:00,
2013-06-23 22:05:00,79.9,55.4,30.24,SE,129,3.6,3.6,43,0.00,,---,0.28,VWS V14.01,2013-06-24 02:05:00,
2013-06-23 22:06:00,80.4,55.2,30.21,East,94,5.4,5.4,42,0.00,,---,0.28,VWS V15.00,2013-06-24 02:06:00,
2013-06-23 22:07:00,80.4,54.6,30.21,ESE,119,5.8,5.8,41,0.00,,---,0.28,VWS V15.00,2013-06-24 02:07:00,
2013-06-23 22:08:00,80.4,54.6,30.21,ESE,116,5.8,5.8,41,0.00,,---,0.28,VWS V15.00,2013-06-24 02:08:00,
2013-06-23 22:09:00,80.4,54.6,30.21,East,85,3.6,5.8,41,0.00,,---,0.28,VWS V15.00,2013-06-24 02:09:00,
2013-06-23 22:10:00,79.7,55.9,30.24,East,100,4.0,4.0,44,0.00,,---,0.28,VWS V14.01,2013-06-24 02:10:00,
2013-06-23 22:11:00,80.2,55.1,30.21,East,81,3.1,5.8,42,0.00,,---,0.28,VWS V15.00,2013-06-24 02:11:00,
2013-06-23 22:12:00,80.2,55.1,30.21,ESE,108,4.0,4.0,42,0.00,,---,0.28,VWS V15.00,2013-06-24 02:12:00,
2013-06-23 22:13:00,80.4,55.2,30.21,ESE,107,3.6,4.0,42,0.00,,---,0.28,VWS V15.00,2013-06-24 02:13:00,
2013-06-23 22:14:00,80.2,55.1,30.21,ESE,112,3.1,4.9,42,0.00,,---,0.28,VWS V15.00,2013-06-24 02:14:00,
2013-06-23 22:15:00,80.2,54.4,30.21,ESE,106,4.0,4.9,41,0.00,,---,0.28,VWS V15.00,2013-06-24 02:15:00,
2013-06-23 22:16:00,79.7,55.9,30.24,East,81,3.1,3.1,44,0.00,,---,0.28,VWS V14.01,2013-06-24 02:16:00,
2013-06-23 22:17:00,80.2,55.1,30.21,ENE,68,2.7,5.8,42,0.00,,---,0.28,VWS V15.00,2013-06-24 02:17:00,
2013-06-23 22:18:00,80.2,55.1,30.21,SSE,155,3.1,4.0,42,0.00,,---,0.28,VWS V15.00,2013-06-24 02:18:00,
2013-06-23 22:19:00,80.1,54.9,30.21,East,92,4.0,4.0,42,0.00,,---,0.28,VWS V15.00,2013-06-24 02:19:00,
2013-06-23 22:20:00,80.2,55.1,30.21,ENE,76,4.9,5.4,42,0.00,,---,0.28,VWS V15.00,2013-06-24 02:20:00,
2013-06-23 22:21:00,79.9,55.4,30.24,ESE,103,4.0,4.9,43,0.00,,---,0.28,VWS V14.01,2013-06-24 02:21:00,
2013-06-23 22:22:00,80.1,54.9,30.21,East,95,4.0,5.4,42,0.00,,---,0.28,VWS V15.00,2013-06-24 02:22:00,
2013-06-23 22:23:00,80.1,54.9,30.21,East,95,3.6,5.8,42,0.00,,---,0.28,VWS V15.00,2013-06-24 02:23:00,
2013-06-23 22:24:00,80.2,55.1,30.21,East,91,4.9,6.3,42,0.00,,---,0.28,VWS V15.00,2013-06-24 02:24:00,
2013-06-23 22:25:00,80.2,55.1,30.21,SE,139,3.6,4.9,42,0.00,,---,0.28,VWS V15.00,2013-06-24 02:25:00,
2013-06-23 22:26:00,78.4,59.9,30.24,North,10,3.6,3.6,53,0.04,,---,0.31,VWS V14.01,2013-06-24 02:26:00,
2013-06-23 22:27:00,80.2,55.1,30.21,East,83,4.0,5.4,42,0.00,,---,0.28,VWS V15.00,2013-06-24 02:27:00,
2013-06-23 22:28:00,80.2,54.4,30.21,ENE,76,2.7,4.0,41,0.00,,---,0.28,VWS V15.00,2013-06-24 02:28:00,
2013-06-23 22:29:00,80.2,55.1,30.21,ESE,119,2.7,4.9,42,0.00,,---,0.28,VWS V15.00,2013-06-24 02:29:00,
2013-06-23 22:30:00,80.1,54.9,30.21,ESE,103,4.0,4.0,42,0.00,,---,0.28,VWS V15.00,2013-06-24 02:30:00,
2013-06-23 22:31:00,77.0,63.5,30.24,ENE,68,2.7,2.7,63,0.04,,---,0.31,VWS V14.01,2013-06-24 02:31:00,
2013-06-23 22:32:00,80.1,54.9,30.21,ENE,74,4.0,4.9,42,0.00,,---,0.28,VWS V15.00,2013-06-24 02:32:00,
2013-06-23 22:33:00,80.1,54.9,30.21,East,84,5.4,5.4,42,0.00,,---,0.28,VWS V15.00,2013-06-24 02:33:00,
2013-06-23 22:34:00,80.1,54.9,30.21,East,100,2.7,5.4,42,0.00,,---,0.28,VWS V15.00,2013-06-24 02:34:00,
2013-06-23 22:35:00,80.1,54.9,30.21,East,85,3.1,5.4,42,0.00,,---,0.28,VWS V15.00,2013-06-24 02:35:00,
2013-06-23 22:36:00,76.3,67.4,30.24,ESE,122,2.7,4.0,74,0.04,,---,0.31,VWS V14.01,2013-06-24 02:36:00,
2013-06-23 22:37:00,80.1,54.3,30.24,East,99,4.0,4.0,41,0.00,,---,0.28,VWS V15.00,2013-06-24 02:37:00,
2013-06-23 22:38:00,80.1,54.9,30.24,ESE,106,3.1,4.0,42,0.00,,---,0.28,VWS V15.00,2013-06-24 02:38:00,
2013-06-23 22:39:00,80.1,54.9,30.24,ENE,71,2.7,3.6,42,0.00,,---,0.28,VWS V15.00,2013-06-24 02:39:00,
2013-06-23 22:40:00,80.1,54.9,30.24,East,83,5.8,5.8,42,0.00,,---,0.28,VWS V15.00,2013-06-24 02:40:00,
2013-06-23 22:41:00,75.7,68.4,30.24,East,88,2.7,2.7,78,0.04,,---,0.31,VWS V14.01,2013-06-24 02:41:00,
2013-06-23 22:42:00,80.1,54.9,30.24,East,90,4.0,5.8,42,0.00,,---,0.28,VWS V15.00,2013-06-24 02:42:00,
2013-06-23 22:43:00,80.2,55.1,30.24,ENE,69,6.3,6.3,42,0.00,,---,0.28,VWS V15.00,2013-06-24 02:43:00,
2013-06-23 22:44:00,80.2,55.1,30.24,East,90,3.1,6.3,42,0.00,,---,0.28,VWS V15.00,2013-06-24 02:44:00,
2013-06-23 22:45:00,80.2,55.1,30.24,SE,124,2.2,3.1,42,0.00,,---,0.28,VWS V15.00,2013-06-24 02:45:00,
2013-06-23 22:46:00,75.7,70.2,30.24,East,91,0.0,2.2,83,0.04,,---,0.31,VWS V14.01,2013-06-24 02:46:00,
2013-06-23 22:47:00,80.1,54.9,30.24,ESE,106,5.8,6.3,42,0.00,,---,0.28,VWS V15.00,2013-06-24 02:47:00,
2013-06-23 22:48:00,80.1,54.9,30.24,East,100,3.1,5.8,42,0.00,,---,0.28,VWS V15.00,2013-06-24 02:48:00,
2013-06-23 22:49:00,80.1,54.9,30.24,ENE,70,3.6,5.8,42,0.00,,---,0.28,VWS V15.00,2013-06-24 02:49:00,
2013-06-23 22:50:00,80.1,55.6,30.24,ENE,63,3.1,3.6,43,0.00,,---,0.28,VWS V15.00,2013-06-24 02:50:00,
2013-06-23 22:51:00,75.6,70.7,30.24,East,95,4.9,4.9,85,0.04,,---,0.31,VWS V14.01,2013-06-24 02:51:00,
2013-06-23 22:52:00,79.9,54.8,30.24,ESE,114,3.6,5.8,42,0.00,,---,0.28,VWS V15.00,2013-06-24 02:52:00,
2013-06-23 22:53:00,79.9,55.4,30.24,East,90,2.7,4.0,43,0.00,,---,0.28,VWS V15.00,2013-06-24 02:53:00,
2013-06-23 22:54:00,79.9,54.8,30.24,East,84,4.9,4.9,42,0.00,,---,0.28,VWS V15.00,2013-06-24 02:54:00,
2013-06-23 22:55:00,79.9,55.4,30.24,ESE,122,6.3,6.3,43,0.00,,---,0.28,VWS V15.00,2013-06-24 02:55:00,
2013-06-23 22:56:00,75.4,69.9,30.24,ENE,75,5.4,5.4,83,0.04,,---,0.31,VWS V14.01,2013-06-24 02:56:00,
2013-06-23 22:57:00,80.1,55.6,30.24,ENE,78,2.7,4.9,43,0.00,,---,0.28,VWS V15.00,2013-06-24 02:57:00,
2013-06-23 22:58:00,80.1,54.9,30.24,ESE,107,4.0,4.0,42,0.00,,---,0.28,VWS V15.00,2013-06-24 02:58:00,
2013-06-23 22:59:00,80.1,54.9,30.24,ENE,65,2.7,5.4,42,0.00,,---,0.28,VWS V15.00,2013-06-24 02:59:00,
2013-06-23 23:00:00,80.1,54.9,30.24,East,82,0.0,4.0,42,0.00,,---,0.28,VWS V15.00,2013-06-24 03:00:00,
2013-06-23 23:01:00,75.6,69.0,30.24,ENE,77,2.2,3.6,80,0.04,,---,0.31,VWS V14.01,2013-06-24 03:01:00,
2013-06-23 23:02:00,80.1,54.9,30.24,East,93,3.6,4.0,42,0.00,,---,0.28,VWS V15.00,2013-06-24 03:02:00,
2013-06-23 23:03:00,80.1,56.2,30.24,East,89,3.1,3.6,44,0.00,,---,0.28,VWS V15.00,2013-06-24 03:03:00,
2013-06-23 23:04:00,79.9,55.4,30.24,ENE,76,4.0,5.8,43,0.00,,---,0.28,VWS V15.00,2013-06-24 03:04:00,
2013-06-23 23:05:00,79.9,55.4,30.24,East,97,3.6,4.0,43,0.00,,---,0.28,VWS V15.00,2013-06-24 03:05:00,
2013-06-23 23:06:00,75.6,68.6,30.24,East,85,4.5,4.5,79,0.04,,---,0.31,VWS V14.01,2013-06-24 03:06:00,
2013-06-23 23:07:00,79.9,55.4,30.24,East,101,3.6,3.6,43,0.00,,---,0.28,VWS V15.00,2013-06-24 03:07:00,
2013-06-23 23:08:00,79.7,55.2,30.24,ESE,114,2.7,3.6,43,0.00,,---,0.28,VWS V15.00,2013-06-24 03:08:00,
2013-06-23 23:09:00,79.7,55.2,30.24,ENE,69,3.1,4.9,43,0.00,,---,0.28,VWS V15.00,2013-06-24 03:09:00,
2013-06-23 23:10:00,79.9,56.7,30.24,East,83,2.2,3.1,45,0.00,,---,0.28,VWS V15.00,2013-06-24 03:10:00,
2013-06-23 23:11:00,79.7,55.2,30.24,East,87,2.2,4.9,43,0.00,,---,0.28,VWS V15.00,2013-06-24 03:11:00,
2013-06-23 23:12:00,75.7,66.9,30.24,ENE,77,3.6,3.6,74,0.04,,---,0.31,VWS V14.01,2013-06-24 03:12:00,
2013-06-23 23:13:00,79.7,55.2,30.24,ENE,59,2.2,3.1,43,0.00,,---,0.28,VWS V15.00,2013-06-24 03:13:00,
2013-06-23 23:14:00,79.7,55.2,30.24,East,97,4.9,4.9,43,0.00,,---,0.28,VWS V15.00,2013-06-24 03:14:00,
2013-06-23 23:15:00,79.7,55.9,30.24,East,85,2.7,4.9,44,0.00,,---,0.28,VWS V15.00,2013-06-24 03:15:00,
2013-06-23 23:16:00,79.7,55.9,30.24,East,88,0.0,3.1,44,0.00,,---,0.28,VWS V15.00,2013-06-24 03:16:00,
2013-06-23 23:17:00,75.9,65.8,30.24,ESE,108,3.1,3.1,71,0.04,,---,0.31,VWS V14.01,2013-06-24 03:17:00,
2013-06-23 23:18:00,79.7,55.2,30.24,East,89,3.6,4.9,43,0.00,,---,0.28,VWS V15.00,2013-06-24 03:18:00,
2013-06-23 23:19:00,79.7,55.2,30.24,NE,40,3.6,4.0,43,0.00,,---,0.28,VWS V15.00,2013-06-24 03:19:00,
2013-06-23 23:20:00,79.9,56.0,30.24,ENE,62,3.1,4.9,44,0.00,,---,0.28,VWS V15.00,2013-06-24 03:20:00,
2013-06-23 23:21:00,79.9,55.4,30.24,East,93,3.6,4.9,43,0.00,,---,0.28,VWS V15.00,2013-06-24 03:21:00,
2013-06-23 23:22:00,76.3,65.4,30.24,ESE,103,3.1,3.1,69,0.04,,---,0.31,VWS V14.01,2013-06-24 03:22:00,
2013-06-23 23:23:00,80.2,55.7,30.24,ESE,112,5.4,5.8,43,0.00,,---,0.28,VWS V15.00,2013-06-24 03:23:00,
2013-06-23 23:24:00,80.2,55.7,30.24,NE,44,4.0,5.4,43,0.00,,---,0.28,VWS V15.00,2013-06-24 03:24:00,
2013-06-23 23:25:00,78.4,59.9,30.24,NE,52,2.7,4.0,53,0.04,,---,0.31,VWS V15.00,2013-06-24 03:25:00,
2013-06-23 23:26:00,78.4,59.9,30.24,ESE,111,4.0,4.0,53,0.04,,---,0.31,VWS V15.00,2013-06-24 03:26:00,
2013-06-23 23:27:00,76.6,64.0,30.24,East,81,0.0,2.7,65,0.00,,---,0.31,VWS V14.01,2013-06-24 03:27:00,
2013-06-23 23:28:00,77.4,63.8,30.24,ENE,77,2.7,4.0,63,0.04,,---,0.31,VWS V15.00,2013-06-24 03:28:00,
2013-06-23 23:29:00,77.0,63.5,30.24,ENE,63,2.7,2.7,63,0.04,,---,0.31,VWS V15.00,2013-06-24 03:29:00,
2013-06-23 23:30:00,77.0,63.5,30.24,East,79,2.2,3.6,63,0.04,,---,0.31,VWS V15.00,2013-06-24 03:30:00,
2013-06-23 23:31:00,77.0,63.5,30.24,East,101,4.0,4.0,63,0.04,,---,0.31,VWS V15.00,2013-06-24 03:31:00,
2013-06-23 23:32:00,76.8,63.3,30.24,East,91,2.2,2.2,63,0.00,,---,0.31,VWS V14.01,2013-06-24 03:32:00,
2013-06-23 23:33:00,76.3,67.4,30.24,ESE,108,2.7,5.8,74,0.04,,---,0.31,VWS V15.00,2013-06-24 03:33:00,
2013-06-23 23:34:00,76.3,67.4,30.24,East,84,2.7,2.7,74,0.04,,---,0.31,VWS V15.00,2013-06-24 03:34:00,
2013-06-23 23:35:00,76.3,67.4,30.24,East,96,3.6,3.6,74,0.04,,---,0.31,VWS V15.00,2013-06-24 03:35:00,
2013-06-23 23:36:00,75.9,67.8,30.24,East,91,2.7,4.0,76,0.04,,---,0.31,VWS V15.00,2013-06-24 03:36:00,
2013-06-23 23:37:00,76.8,60.9,30.24,East,88,2.2,2.7,58,0.00,,---,0.31,VWS V14.01,2013-06-24 03:37:00,
2013-06-23 23:38:00,75.9,67.8,30.24,East,84,2.2,3.1,76,0.04,,---,0.31,VWS V15.00,2013-06-24 03:38:00,
2013-06-23 23:39:00,75.9,67.8,30.24,East,89,2.2,3.6,76,0.04,,---,0.31,VWS V15.00,2013-06-24 03:39:00,
2013-06-23 23:40:00,75.7,68.4,30.24,ENE,70,2.7,3.1,78,0.04,,---,0.31,VWS V15.00,2013-06-24 03:40:00,
2013-06-23 23:41:00,75.7,68.4,30.24,East,89,2.2,2.7,78,0.04,,---,0.31,VWS V15.00,2013-06-24 03:41:00,
2013-06-23 23:42:00,77.2,60.3,30.24,ESE,118,3.6,3.6,56,0.00,,---,0.31,VWS V14.01,2013-06-24 03:42:00,
2013-06-23 23:43:00,75.7,69.1,30.24,ENE,78,0.0,2.7,80,0.04,,---,0.31,VWS V15.00,2013-06-24 03:43:00,
2013-06-23 23:44:00,75.7,69.9,30.24,ENE,78,0.0,0.0,82,0.04,,---,0.31,VWS V15.00,2013-06-24 03:44:00,
2013-06-23 23:45:00,75.7,69.9,30.24,ENE,75,0.0,0.0,82,0.04,,---,0.31,VWS V15.00,2013-06-24 03:45:00,
2013-06-23 23:46:00,75.6,70.0,30.24,East,91,0.0,2.2,83,0.04,,---,0.31,VWS V15.00,2013-06-24 03:46:00,
2013-06-23 23:47:00,77.4,57.3,30.24,ESE,105,4.9,4.9,50,0.00,,---,0.31,VWS V14.01,2013-06-24 03:47:00,
2013-06-23 23:48:00,75.6,70.4,30.24,East,83,0.0,0.0,84,0.04,,---,0.31,VWS V15.00,2013-06-24 03:48:00,
2013-06-23 23:49:00,75.7,70.6,30.24,East,91,2.2,4.0,84,0.04,,---,0.31,VWS V15.00,2013-06-24 03:49:00,
2013-06-23 23:50:00,75.6,70.7,30.24,NE,42,3.6,3.6,85,0.04,,---,0.31,VWS V15.00,2013-06-24 03:50:00,
2013-06-23 23:51:00,75.6,70.7,30.24,NE,51,5.8,5.8,85,0.04,,---,0.31,VWS V15.00,2013-06-24 03:51:00,
2013-06-23 23:52:00,77.9,56.1,30.24,NE,50,2.7,4.0,47,0.00,,---,0.31,VWS V14.01,2013-06-24 03:52:00,
2013-06-23 23:53:00,75.4,70.2,30.24,ESE,110,0.0,2.7,84,0.04,,---,0.31,VWS V15.00,2013-06-24 03:53:00,
2013-06-23 23:54:00,75.2,69.7,30.24,ESE,114,3.1,3.6,83,0.04,,---,0.31,VWS V15.00,2013-06-24 03:54:00,
2013-06-23 23:55:00,75.2,69.7,30.24,East,88,0.0,3.1,83,0.04,,---,0.31,VWS V15.00,2013-06-24 03:55:00,
2013-06-23 23:56:00,75.4,69.9,30.24,ENE,75,5.4,5.4,83,0.04,,---,0.31,VWS V15.00,2013-06-24 03:56:00,
2013-06-23 23:57:00,77.7,56.5,30.24,ESE,118,5.4,5.4,48,0.00,,---,0.31,VWS V14.01,2013-06-24 03:57:00,
2013-06-23 23:58:00,75.4,69.5,30.24,ESE,111,3.1,4.0,82,0.04,,---,0.31,VWS V15.00,2013-06-24 03:58:00,
2013-06-23 23:59:00,75.4,69.2,30.24,East,86,4.9,4.9,81,0.04,,---,0.31,VWS V15.00,2013-06-24 03:59:00,